[[{"header":{"parameterUnit":"m.s-1","parameterCategory":1,"la1":31.0,"la2":29.5877,"lo1":-88.7671,"lo2":-86.6584,"dy":0.0162,"dx":0.0185,"nx":115,"ny":88,"refTime":"2023-04-15T12:00:00:Z","depth":0,"parameterNumber":2,"parameterNumberName":"U-component_of_WINDS"},"data":[0.0,0.0,0.0,0.0,0.0,0.0,0.0,0.0,0.0,0.0,0.0,0.0,0.0,0.0,0.0,0.0,0.0,0.0,0.0,0.0,0.0,0.0,0.0,0.0,0.0,0.0,0.0,0.0,0.0,0.0,0.0,0.0,0.0,0.0,0.0,0.0,0.0,0.0,0.0,0.0,0.0,0.0,0.0,0.0,0.0,0.0,0.0,0.0,0.0,0.0,0.0,0.0,0.0,0.0,0.0,0.0,0.0,0.0,0.0,0.0,0.0,0.0,0.0,0.0,0.0,0.0,0.0,0.0,0.0,0.0,0.0,0.0,0.0,0.0,0.0,0.0,0.0,0.0,0.0,0.0,0.0,0.0,0.0,0.0,0.0,0.0,0.0,0.0,0.0,0.0,0.0,0.0,0.0,0.0,0.0,0.0,0.0,0.0,0.0,0.0,0.0,0.0,0.0,0.0,0.0,0.0,0.0,0.0,0.0,0.0,0.0,0.0,0.0,0.0,0.0,0.0,0.0,0.0,0.0,0.0,0.0,0.0,0.0,0.0,0.0,0.0,0.0,0.0,0.0,0.0,0.0,0.0,0.0,0.0,0.0,0.0,0.0,0.0,0.0,0.0,0.0,0.0,0.0,0.0,0.0,0.0,0.0,0.0,0.0,0.0,0.0,0.0,0.0,0.0,0.0,0.0,0.0,0.0,0.0,0.0,0.0,0.0,0.0,0.0,0.0,0.0,0.0,0.0,0.0,0.0,0.0,0.0,0.0,0.0,0.0,0.0,0.0,0.0,0.0,0.0,0.0,0.0,0.0,0.0,0.0,0.0,0.0,0.0,0.0,0.0,0.0,0.0,0.0,0.0,0.0,0.0,0.0,0.0,0.0,0.0,0.0,0.0,0.0,0.0,0.0,0.0,0.0,0.0,0.0,0.0,0.0,0.0,0.0,0.0,0.0,0.0,0.0,0.0,0.0,0.0,0.0,0.0,0.0,0.0,0.0,0.0,0.0,0.0,0.0,0.0,0.0,0.0,0.0,0.0,0.0,0.0,0.0,0.0,0.0,0.0,0.0,0.0,0.0,0.0,0.0,0.0,0.0,0.0,0.0,0.0,0.0,0.0,0.0,0.0,0.0,0.0,0.0,0.0,0.0,0.0,0.0,0.0,0.0,0.0,0.0,0.0,0.0,0.0,0.0,0.0,0.0,0.0,0.0,0.0,0.0,0.0,0.0,0.0,0.0,0.0,0.0,0.0,0.0,0.0,0.0,0.0,0.0,0.0,0.0,0.0,0.0,0.0,0.0,0.0,0.0,0.0,0.0,0.0,0.0,0.0,0.0,0.0,0.0,0.0,0.0,0.0,0.0,0.0,0.0,0.0,0.0,0.0,0.0,0.0,0.0,0.0,0.0,0.0,0.0,0.0,0.0,0.0,0.0,0.0,0.0,0.0,0.0,0.0,0.0,0.0,0.0,0.0,0.0,0.0,0.0,0.0,0.0,0.0,0.0,0.0,0.0,0.0,0.0,0.0,0.0,0.0,0.0,0.0,0.0,0.0,0.0,0.0,0.0,0.0,0.0,0.0,0.0,0.0,0.0,0.0,0.0,0.0,0.0,0.0,0.0,0.0,0.0,0.0,0.0,0.0,0.0,0.0,0.0,0.0,0.0,0.0,0.0,0.0,0.0,0.0,0.0,0.0,0.0,0.0,0.0,0.0,0.0,0.0,0.0,0.0,0.0,0.0,0.0,0.0,0.0,0.0,0.0,0.0,0.0,0.0,0.0,0.0,0.0,0.0,0.0,0.0,0.0,0.0,0.0,0.0,0.0,0.0,0.0,0.0,0.0,0.0,0.0,0.0,0.0,0.0,0.0,0.0,0.0,0.0,0.0,0.0,0.0,0.0,0.0,0.0,0.0,0.0,0.0,0.0,0.0,0.0,0.0,0.0,0.0,0.0,0.0,0.0,0.0,0.0,0.0,0.0,0.0,0.0,0.0,0.0,0.0,0.0,0.0,0.0,0.0,0.0,0.0,0.0,0.0,0.0,0.0,0.0,0.0,0.0,0.0,0.0,0.0,0.0,0.0,0.0,0.0,0.0,0.0,0.0,0.0,0.0,0.0,0.0,0.0,0.0,0.0,0.0,0.0,0.0,0.0,0.0,0.0,0.0,0.0,0.0,0.0,0.0,0.0,0.0,0.0,0.0,0.0,0.0,0.0,0.0,0.0,0.0,0.0,0.0,0.0,0.0,0.0,0.0,0.0,0.0,0.0,0.0,0.0,0.0,0.0,0.0,0.0,0.0,0.0,0.0,0.0,0.0,0.0,0.0,0.0,0.0,0.0,0.0,0.0,0.0,0.0,0.0,0.0,0.0,0.0,0.0,0.0,0.0,0.0,0.0,0.0,0.0,0.0,0.0,0.0,0.0,0.0,0.0,0.0,0.0,0.0,0.0,0.0,0.0,0.0,0.0,0.0,0.0,0.0,0.0,0.0,0.0,0.0,0.0,0.0,0.0,0.0,0.0,0.0,0.0,0.0,0.0,0.0,0.0,0.0,0.0,0.0,0.0,0.0,0.0,0.0,0.0,0.0,0.0,0.0,0.0,0.0,0.0,0.0,0.0,0.0,0.0,0.0,0.0,0.0,0.0,0.0,0.0,0.0,0.0,0.0,0.0,0.0,0.0,0.0,0.0,0.0,0.0,0.0,0.0,0.0,0.0,0.0,0.0,0.0,0.0,0.0,0.0,0.0,0.0,0.0,0.0,0.0,0.0,0.0,0.0,0.0,0.0,0.0,0.0,0.0,0.0,0.0,0.0,0.0,0.0,0.0,0.0,0.0,0.0,0.0,0.0,0.0,0.0,0.0,0.0,0.0,0.0,0.0,0.0,0.0,0.0,0.0,0.0,0.0,0.0,0.0,0.0,0.0,0.0,0.0,0.0,0.0,0.0,0.0,0.0,0.0,0.0,0.0,0.0,0.0,0.0,0.0,0.0,0.0,0.0,0.0,0.0,0.0,0.0,0.0,0.0,0.0,0.0,0.0,0.0,0.0,0.0,0.0,0.0,0.0,0.0,0.0,0.0,0.0,0.0,0.0,0.0,0.0,0.0,0.0,0.0,0.0,0.0,0.0,0.0,0.0,0.0,0.0,0.0,0.0,0.0,0.0,0.0,0.0,0.0,0.0,0.0,0.0,0.0,0.0,0.0,0.0,0.0,0.0,0.0,0.0,0.0,0.0,0.0,0.0,0.0,0.0,0.0,0.0,0.0,0.0,0.0,0.0,0.0,0.0,0.0,0.0,0.0,0.0,0.0,0.0,0.0,0.0,0.0,0.0,0.0,0.0,0.0,0.0,0.0,0.0,0.0,0.0,0.0,0.0,0.0,0.0,0.0,0.0,0.0,0.0,0.0,0.0,0.0,0.0,0.0,0.0,0.0,0.0,0.0,0.0,0.0,0.0,0.0,0.0,0.0,0.0,0.0,0.0,0.0,0.0,0.0,0.0,0.0,0.0,0.0,0.0,0.0,0.0,0.0,0.0,0.0,0.0,0.0,0.0,0.0,0.0,0.0,0.0,0.0,0.0,0.0,0.0,0.0,0.0,0.0,0.0,0.0,0.0,0.0,0.0,0.0,0.0,0.0,0.0,0.0,0.0,0.0,0.0,0.0,0.0,0.0,0.0,0.0,0.0,0.0,0.0,0.0,0.0,0.0,0.0,0.0,0.0,0.0,0.0,0.0,0.0,0.0,0.0,0.0,0.0,0.0,0.0,0.0,0.0,0.0,0.0,0.0,0.0,0.0,0.0,0.0,0.0,0.0,0.0,0.0,0.0,0.0,0.0,0.0,0.0,0.0,0.0,0.0,0.0,0.0,0.0,0.0,0.0,0.0,0.0,0.0,0.0,0.0,0.0,0.0,0.0,0.0,0.0,0.0,0.0,0.0,0.0,0.0,0.0,0.0,0.0,0.0,0.0,0.0,0.0,0.0,0.0,0.0,0.0,0.0,0.0,0.0,0.0,0.0,0.0,0.0,0.0,0.0,0.0,0.0,0.0,0.0,0.0,0.0,0.0,0.0,0.0,0.0,0.0,0.0,0.0,0.0,0.0,0.0,0.0,0.0,0.0,0.0,0.0,0.0,0.0,0.0,0.0,0.0,0.0,0.0,0.0,0.0,0.0,0.0,0.0,0.0,0.0,0.0,0.0,0.0,0.0,0.0,0.0,0.0,0.0,0.0,0.0,0.0,0.0,0.0,0.0,0.0,0.0,0.0,0.0,0.0,0.0,0.0,-4.1117,0.0,0.0,0.0,0.0,0.0,0.0,0.0,0.0,0.0,0.0,0.0,0.0,0.0,0.0,0.0,0.0,0.0,0.0,0.0,0.0,0.0,0.0,0.0,0.0,0.0,0.0,0.0,0.0,0.0,0.0,0.0,0.0,0.0,0.0,0.0,0.0,0.0,0.0,0.0,0.0,0.0,0.0,0.0,0.0,0.0,0.0,0.0,0.0,0.0,0.0,0.0,0.0,0.0,0.0,0.0,0.0,0.0,0.0,0.0,0.0,0.0,0.0,0.0,0.0,0.0,0.0,0.0,0.0,0.0,0.0,0.0,0.0,0.0,0.0,0.0,0.0,0.0,0.0,0.0,0.0,0.0,0.0,0.0,0.0,0.0,0.0,0.0,0.0,0.0,0.0,0.0,0.0,0.0,0.0,0.0,0.0,0.0,0.0,0.0,0.0,0.0,0.0,0.0,0.0,0.0,0.0,0.0,0.0,0.0,0.0,-4.207,-4.2519,-4.207,-4.1815,-4.179,0.0,0.0,0.0,0.0,0.0,0.0,0.0,0.0,0.0,0.0,0.0,0.0,0.0,0.0,0.0,0.0,0.0,0.0,0.0,0.0,0.0,0.0,0.0,0.0,0.0,0.0,0.0,0.0,0.0,0.0,0.0,0.0,0.0,0.0,0.0,0.0,0.0,0.0,0.0,0.0,0.0,0.0,0.0,0.0,0.0,0.0,0.0,0.0,0.0,0.0,0.0,0.0,0.0,0.0,0.0,0.0,0.0,0.0,0.0,0.0,0.0,0.0,0.0,0.0,0.0,0.0,0.0,0.0,0.0,0.0,0.0,0.0,0.0,0.0,0.0,0.0,0.0,0.0,0.0,0.0,0.0,0.0,0.0,0.0,0.0,0.0,0.0,0.0,0.0,0.0,0.0,0.0,0.0,0.0,0.0,0.0,0.0,0.0,0.0,0.0,0.0,0.0,0.0,0.0,0.0,0.0,0.0,0.0,0.0,0.0,0.0,0.0,-4.2851,-4.2304,-4.2088,0.0,0.0,0.0,0.0,0.0,0.0,0.0,0.0,0.0,0.0,0.0,0.0,0.0,0.0,0.0,0.0,0.0,0.0,0.0,0.0,0.0,0.0,0.0,0.0,0.0,0.0,0.0,0.0,0.0,0.0,0.0,0.0,0.0,0.0,0.0,0.0,0.0,0.0,0.0,0.0,0.0,0.0,0.0,0.0,0.0,0.0,0.0,0.0,0.0,0.0,0.0,0.0,0.0,0.0,0.0,0.0,0.0,0.0,0.0,0.0,0.0,0.0,0.0,0.0,0.0,0.0,0.0,0.0,0.0,0.0,0.0,0.0,0.0,0.0,0.0,0.0,0.0,0.0,0.0,0.0,0.0,0.0,0.0,0.0,0.0,0.0,0.0,0.0,0.0,0.0,0.0,0.0,0.0,0.0,0.0,0.0,0.0,0.0,0.0,0.0,0.0,0.0,0.0,0.0,0.0,0.0,0.0,0.0,0.0,0.0,-4.3633,-4.3691,-4.2871,0.0,-4.1267,0.0,0.0,0.0,0.0,0.0,0.0,0.0,0.0,0.0,0.0,0.0,0.0,0.0,0.0,0.0,0.0,0.0,0.0,0.0,0.0,0.0,0.0,0.0,0.0,0.0,0.0,0.0,0.0,0.0,0.0,0.0,0.0,0.0,0.0,0.0,0.0,0.0,0.0,0.0,0.0,0.0,0.0,0.0,0.0,0.0,0.0,0.0,0.0,0.0,0.0,0.0,0.0,0.0,0.0,0.0,0.0,0.0,0.0,0.0,0.0,0.0,0.0,0.0,0.0,0.0,0.0,0.0,0.0,0.0,0.0,0.0,0.0,0.0,0.0,0.0,0.0,0.0,0.0,0.0,0.0,0.0,0.0,0.0,0.0,0.0,0.0,0.0,0.0,0.0,0.0,0.0,0.0,0.0,0.0,0.0,0.0,0.0,0.0,0.0,0.0,0.0,0.0,0.0,0.0,0.0,0.0,0.0,0.0,0.0,0.0,-4.4707,-4.5215,-4.3906,-4.2539,0.0,0.0,0.0,0.0,0.0,0.0,0.0,0.0,0.0,0.0,0.0,0.0,0.0,0.0,0.0,0.0,0.0,0.0,0.0,0.0,0.0,0.0,0.0,0.0,0.0,0.0,0.0,0.0,0.0,0.0,0.0,0.0,0.0,0.0,0.0,0.0,0.0,0.0,0.0,0.0,0.0,0.0,0.0,0.0,0.0,0.0,0.0,0.0,0.0,0.0,0.0,0.0,0.0,0.0,0.0,0.0,0.0,0.0,0.0,0.0,0.0,0.0,0.0,0.0,0.0,0.0,0.0,0.0,0.0,0.0,0.0,0.0,0.0,0.0,0.0,0.0,0.0,0.0,0.0,0.0,0.0,0.0,0.0,0.0,0.0,0.0,0.0,0.0,0.0,0.0,0.0,0.0,0.0,0.0,0.0,0.0,0.0,0.0,0.0,0.0,0.0,0.0,0.0,0.0,0.0,0.0,0.0,0.0,0.0,0.0,-4.4413,-4.5195,-4.5488,-4.4355,-4.291,-4.125,0.0,0.0,0.0,0.0,0.0,0.0,0.0,0.0,0.0,0.0,0.0,0.0,0.0,0.0,0.0,0.0,0.0,0.0,0.0,0.0,0.0,0.0,0.0,0.0,0.0,0.0,0.0,0.0,0.0,0.0,0.0,0.0,0.0,0.0,0.0,0.0,0.0,0.0,0.0,0.0,0.0,0.0,0.0,0.0,0.0,0.0,0.0,0.0,0.0,0.0,0.0,0.0,0.0,0.0,0.0,0.0,0.0,0.0,0.0,0.0,0.0,0.0,0.0,0.0,0.0,0.0,0.0,0.0,0.0,0.0,0.0,0.0,0.0,0.0,0.0,0.0,0.0,0.0,0.0,0.0,0.0,0.0,0.0,0.0,0.0,0.0,0.0,0.0,0.0,0.0,0.0,0.0,0.0,0.0,0.0,0.0,0.0,0.0,0.0,0.0,0.0,0.0,0.0,0.0,0.0,0.0,0.0,0.0,-4.2505,-4.4119,-4.4609,-4.3887,-4.373,-4.291,0.0,0.0,0.0,0.0,0.0,0.0,0.0,0.0,0.0,0.0,0.0,0.0,0.0,0.0,0.0,0.0,0.0,0.0,0.0,0.0,0.0,0.0,0.0,0.0,0.0,0.0,0.0,0.0,0.0,0.0,0.0,0.0,0.0,0.0,0.0,0.0,0.0,0.0,0.0,0.0,0.0,0.0,0.0,0.0,0.0,0.0,0.0,0.0,0.0,0.0,0.0,0.0,0.0,0.0,0.0,0.0,0.0,0.0,0.0,0.0,0.0,0.0,0.0,0.0,0.0,0.0,0.0,0.0,0.0,0.0,0.0,0.0,0.0,0.0,0.0,0.0,0.0,0.0,0.0,0.0,0.0,0.0,0.0,0.0,0.0,0.0,0.0,0.0,0.0,0.0,0.0,0.0,0.0,0.0,0.0,0.0,0.0,0.0,0.0,0.0,0.0,0.0,0.0,0.0,0.0,0.0,0.0,0.0,0.0,-4.2461,-4.4099,-4.459,-4.375,-4.3711,-4.2656,0.0,0.0,0.0,0.0,0.0,0.0,0.0,0.0,0.0,0.0,0.0,0.0,0.0,0.0,0.0,0.0,0.0,0.0,0.0,0.0,0.0,0.0,0.0,0.0,0.0,0.0,0.0,0.0,0.0,0.0,0.0,0.0,0.0,0.0,0.0,0.0,0.0,0.0,0.0,0.0,0.0,0.0,0.0,0.0,0.0,0.0,0.0,0.0,0.0,0.0,0.0,0.0,0.0,0.0,0.0,0.0,0.0,0.0,0.0,0.0,0.0,0.0,0.0,0.0,0.0,0.0,0.0,0.0,0.0,0.0,0.0,0.0,0.0,0.0,0.0,0.0,0.0,0.0,0.0,0.0,0.0,0.0,0.0,0.0,0.0,0.0,0.0,0.0,0.0,0.0,0.0,0.0,0.0,0.0,0.0,0.0,0.0,0.0,0.0,0.0,0.0,0.0,0.0,0.0,0.0,0.0,0.0,0.0,0.0,-4.2834,0.0,-4.4433,-4.4141,-4.3848,-4.2637,0.0,0.0,0.0,0.0,0.0,0.0,0.0,0.0,0.0,0.0,0.0,0.0,0.0,0.0,0.0,0.0,0.0,0.0,0.0,0.0,0.0,0.0,0.0,0.0,0.0,0.0,0.0,0.0,0.0,0.0,0.0,0.0,0.0,0.0,0.0,0.0,0.0,0.0,0.0,0.0,0.0,0.0,0.0,0.0,0.0,0.0,0.0,0.0,0.0,0.0,0.0,0.0,0.0,0.0,0.0,0.0,0.0,0.0,0.0,0.0,0.0,0.0,0.0,0.0,0.0,0.0,0.0,0.0,0.0,0.0,0.0,0.0,0.0,0.0,0.0,0.0,0.0,0.0,0.0,0.0,0.0,0.0,0.0,0.0,0.0,0.0,0.0,0.0,0.0,0.0,0.0,0.0,0.0,0.0,0.0,0.0,0.0,0.0,0.0,0.0,0.0,0.0,0.0,0.0,0.0,0.0,0.0,0.0,-4.183,-4.3586,-4.3727,-4.4179,-4.4922,-4.4141,-4.291,0.0,0.0,0.0,0.0,0.0,0.0,0.0,0.0,0.0,0.0,0.0,0.0,0.0,0.0,0.0,0.0,0.0,0.0,0.0,0.0,0.0,0.0,0.0,0.0,0.0,0.0,0.0,0.0,0.0,0.0,0.0,0.0,0.0,0.0,0.0,0.0,0.0,0.0,0.0,0.0,0.0,0.0,0.0,0.0,0.0,0.0,0.0,0.0,0.0,0.0,0.0,0.0,0.0,0.0,0.0,0.0,0.0,0.0,0.0,0.0,0.0,0.0,0.0,0.0,0.0,0.0,0.0,0.0,0.0,0.0,0.0,0.0,0.0,0.0,0.0,0.0,0.0,0.0,0.0,0.0,0.0,0.0,0.0,0.0,0.0,0.0,0.0,0.0,0.0,0.0,0.0,0.0,0.0,0.0,0.0,0.0,0.0,0.0,0.0,0.0,0.0,0.0,0.0,0.0,0.0,0.0,0.0,0.0,0.0,-4.3653,-4.4292,-4.4725,-4.496,-4.414,-4.291,0.0,0.0,0.0,0.0,0.0,0.0,0.0,0.0,0.0,0.0,0.0,0.0,0.0,0.0,0.0,0.0,0.0,0.0,0.0,0.0,0.0,0.0,0.0,0.0,0.0,0.0,0.0,0.0,0.0,0.0,0.0,0.0,0.0,0.0,0.0,0.0,0.0,0.0,0.0,0.0,0.0,0.0,0.0,0.0,0.0,0.0,0.0,0.0,0.0,0.0,0.0,0.0,0.0,0.0,0.0,0.0,0.0,0.0,0.0,0.0,0.0,0.0,0.0,0.0,0.0,0.0,0.0,0.0,0.0,0.0,0.0,0.0,0.0,0.0,0.0,0.0,0.0,0.0,0.0,0.0,0.0,0.0,0.0,0.0,0.0,0.0,0.0,0.0,0.0,0.0,0.0,0.0,0.0,0.0,0.0,0.0,0.0,0.0,0.0,0.0,0.0,0.0,0.0,0.0,0.0,0.0,0.0,0.0,0.0,-4.4548,-4.5176,-4.5638,-4.5953,-4.4822,-4.3378,-4.1699,0.0,0.0,0.0,0.0,0.0,0.0,0.0,0.0,0.0,0.0,0.0,0.0,0.0,0.0,0.0,0.0,0.0,0.0,0.0,0.0,0.0,0.0,0.0,0.0,0.0,0.0,0.0,0.0,0.0,0.0,0.0,0.0,0.0,0.0,0.0,0.0,0.0,0.0,0.0,0.0,0.0,0.0,0.0,0.0,0.0,0.0,0.0,0.0,0.0,0.0,0.0,0.0,0.0,0.0,0.0,0.0,0.0,0.0,0.0,0.0,0.0,0.0,0.0,0.0,0.0,0.0,0.0,0.0,0.0,0.0,0.0,0.0,0.0,0.0,0.0,0.0,0.0,0.0,0.0,0.0,0.0,0.0,0.0,0.0,0.0,0.0,0.0,0.0,0.0,0.0,0.0,0.0,0.0,0.0,0.0,0.0,0.0,0.0,0.0,0.0,0.0,0.0,0.0,0.0,0.0,0.0,0.0,0.0,-4.6123,-4.6382,-4.6851,-4.7529,-4.589,-4.4193,0.0,0.0,0.0,0.0,0.0,0.0,0.0,0.0,0.0,0.0,0.0,0.0,0.0,0.0,0.0,0.0,0.0,0.0,0.0,0.0,0.0,0.0,0.0,0.0,0.0,0.0,0.0,0.0,0.0,0.0,0.0,0.0,0.0,0.0,0.0,0.0,0.0,0.0,0.0,0.0,0.0,0.0,0.0,0.0,0.0,0.0,0.0,0.0,0.0,0.0,0.0,0.0,0.0,0.0,0.0,0.0,0.0,0.0,0.0,0.0,0.0,0.0,0.0,0.0,0.0,0.0,0.0,0.0,0.0,0.0,0.0,0.0,0.0,0.0,0.0,0.0,0.0,0.0,0.0,0.0,0.0,0.0,0.0,0.0,0.0,0.0,0.0,0.0,0.0,0.0,0.0,0.0,0.0,0.0,0.0,0.0,0.0,0.0,0.0,0.0,0.0,0.0,0.0,0.0,0.0,0.0,0.0,0.0,0.0,-4.6951,-4.8264,-4.8503,-4.7553,-4.5881,-4.45,0.0,0.0,0.0,0.0,0.0,0.0,0.0,0.0,0.0,0.0,0.0,0.0,0.0,0.0,0.0,0.0,0.0,0.0,0.0,0.0,0.0,0.0,0.0,0.0,0.0,0.0,0.0,0.0,0.0,0.0,0.0,0.0,0.0,0.0,0.0,0.0,0.0,0.0,0.0,0.0,0.0,0.0,0.0,0.0,0.0,0.0,0.0,0.0,0.0,0.0,0.0,0.0,0.0,0.0,0.0,0.0,0.0,0.0,0.0,0.0,0.0,0.0,0.0,0.0,0.0,0.0,0.0,0.0,0.0,0.0,0.0,0.0,0.0,0.0,0.0,0.0,0.0,0.0,0.0,0.0,0.0,0.0,0.0,0.0,0.0,0.0,0.0,0.0,0.0,0.0,0.0,0.0,0.0,0.0,0.0,0.0,0.0,0.0,0.0,0.0,0.0,0.0,0.0,0.0,0.0,0.0,0.0,0.0,-4.5615,-4.7717,-4.9135,-4.944,-4.8516,-4.6911,-4.5299,0.0,0.0,0.0,0.0,0.0,0.0,0.0,0.0,0.0,0.0,0.0,0.0,0.0,0.0,0.0,0.0,0.0,0.0,0.0,0.0,0.0,0.0,0.0,0.0,0.0,0.0,0.0,0.0,0.0,0.0,0.0,0.0,0.0,0.0,0.0,0.0,0.0,0.0,0.0,0.0,0.0,0.0,0.0,0.0,0.0,0.0,0.0,0.0,0.0,0.0,0.0,0.0,0.0,0.0,0.0,0.0,0.0,0.0,0.0,0.0,0.0,0.0,0.0,0.0,0.0,0.0,0.0,0.0,0.0,0.0,0.0,0.0,0.0,0.0,0.0,0.0,0.0,0.0,0.0,0.0,0.0,0.0,0.0,0.0,0.0,0.0,0.0,0.0,0.0,0.0,0.0,0.0,0.0,0.0,0.0,0.0,0.0,0.0,0.0,0.0,0.0,0.0,0.0,0.0,0.0,0.0,0.0,0.0,-4.591,-4.8333,-4.9375,-4.9859,-4.9709,-4.8269,-4.6326,0.0,0.0,0.0,0.0,0.0,0.0,0.0,0.0,0.0,0.0,0.0,0.0,0.0,0.0,0.0,0.0,0.0,0.0,0.0,0.0,0.0,0.0,0.0,0.0,0.0,0.0,0.0,0.0,0.0,0.0,0.0,0.0,0.0,0.0,0.0,0.0,0.0,0.0,0.0,0.0,0.0,0.0,0.0,0.0,0.0,0.0,0.0,0.0,0.0,0.0,0.0,0.0,0.0,0.0,0.0,0.0,0.0,0.0,0.0,0.0,0.0,0.0,0.0,0.0,0.0,0.0,0.0,0.0,0.0,0.0,0.0,0.0,0.0,0.0,0.0,0.0,0.0,0.0,0.0,0.0,0.0,0.0,0.0,0.0,0.0,0.0,0.0,0.0,0.0,0.0,0.0,0.0,0.0,0.0,0.0,0.0,0.0,0.0,0.0,0.0,0.0,0.0,0.0,0.0,0.0,0.0,0.0,0.0,-4.6372,-4.8284,-4.9865,-5.0073,-4.8819,-4.7903,-4.6508,0.0,0.0,0.0,0.0,0.0,0.0,0.0,0.0,0.0,0.0,0.0,0.0,0.0,0.0,0.0,0.0,0.0,0.0,0.0,0.0,0.0,0.0,0.0,0.0,0.0,0.0,0.0,0.0,0.0,0.0,0.0,0.0,0.0,0.0,0.0,0.0,0.0,0.0,0.0,0.0,0.0,0.0,0.0,0.0,0.0,0.0,0.0,0.0,-3.5995,0.0,0.0,0.0,0.0,0.0,0.0,0.0,0.0,0.0,0.0,0.0,0.0,0.0,0.0,0.0,0.0,0.0,0.0,0.0,0.0,0.0,0.0,0.0,0.0,0.0,0.0,0.0,0.0,0.0,0.0,0.0,0.0,0.0,0.0,0.0,0.0,0.0,0.0,0.0,0.0,0.0,0.0,0.0,0.0,0.0,0.0,0.0,0.0,0.0,0.0,0.0,0.0,0.0,0.0,0.0,0.0,0.0,0.0,0.0,-4.6111,-4.8197,-4.9553,-4.9818,-4.8979,-4.7824,-4.6272,0.0,0.0,0.0,0.0,0.0,0.0,0.0,0.0,0.0,0.0,0.0,0.0,0.0,0.0,0.0,0.0,0.0,0.0,0.0,0.0,0.0,0.0,0.0,0.0,0.0,0.0,0.0,0.0,0.0,0.0,0.0,0.0,0.0,0.0,0.0,0.0,0.0,0.0,0.0,0.0,0.0,0.0,0.0,0.0,0.0,0.0,0.0,0.0,0.0,0.0,0.0,0.0,0.0,0.0,0.0,0.0,0.0,0.0,0.0,0.0,0.0,0.0,0.0,0.0,0.0,0.0,0.0,0.0,0.0,0.0,0.0,0.0,0.0,0.0,0.0,0.0,0.0,0.0,0.0,0.0,0.0,0.0,0.0,0.0,0.0,0.0,0.0,0.0,0.0,0.0,0.0,0.0,0.0,0.0,0.0,0.0,0.0,0.0,0.0,0.0,0.0,0.0,0.0,0.0,0.0,0.0,0.0,-4.3869,-4.5558,-4.7908,-4.8848,-4.9232,-4.9067,-4.7603,-4.5698,-4.3345,0.0,0.0,0.0,0.0,0.0,0.0,0.0,0.0,0.0,0.0,0.0,0.0,0.0,0.0,0.0,0.0,0.0,0.0,0.0,0.0,0.0,0.0,0.0,0.0,0.0,0.0,0.0,0.0,0.0,0.0,0.0,0.0,0.0,0.0,0.0,0.0,0.0,0.0,-3.7236,-3.8142,0.0,0.0,0.0,0.0,0.0,0.0,0.0,0.0,-3.5946,0.0,0.0,0.0,0.0,0.0,0.0,0.0,0.0,0.0,0.0,0.0,0.0,0.0,0.0,0.0,0.0,0.0,0.0,0.0,0.0,0.0,0.0,0.0,0.0,0.0,0.0,0.0,0.0,0.0,0.0,0.0,0.0,0.0,0.0,0.0,0.0,0.0,0.0,0.0,0.0,0.0,0.0,0.0,0.0,0.0,0.0,0.0,0.0,0.0,0.0,0.0,0.0,0.0,0.0,0.0,0.0,-4.192,-4.3519,-4.521,-4.7057,-4.7893,-4.8007,-4.733,-4.6411,-4.4735,-4.2279,0.0,0.0,0.0,0.0,0.0,0.0,0.0,0.0,0.0,0.0,0.0,0.0,0.0,0.0,0.0,0.0,0.0,0.0,0.0,0.0,0.0,0.0,0.0,0.0,0.0,0.0,0.0,0.0,0.0,0.0,0.0,0.0,0.0,0.0,0.0,0.0,0.0,0.0,0.0,-4.0365,-4.1403,0.0,0.0,0.0,0.0,0.0,0.0,0.0,0.0,-3.5946,0.0,0.0,0.0,0.0,0.0,0.0,0.0,0.0,0.0,0.0,0.0,0.0,0.0,0.0,0.0,0.0,0.0,0.0,0.0,0.0,0.0,0.0,0.0,0.0,0.0,0.0,0.0,0.0,0.0,0.0,0.0,0.0,0.0,0.0,0.0,0.0,0.0,0.0,0.0,0.0,0.0,0.0,0.0,0.0,0.0,0.0,0.0,0.0,0.0,0.0,0.0,0.0,0.0,0.0,0.0,-4.1639,-4.2932,-4.4639,-4.6752,-4.7213,-4.7251,-4.6846,-4.5643,-4.3978,0.0,0.0,0.0,0.0,0.0,0.0,0.0,0.0,0.0,0.0,0.0,0.0,0.0,0.0,0.0,0.0,0.0,0.0,0.0,0.0,0.0,0.0,0.0,0.0,0.0,0.0,0.0,0.0,0.0,0.0,0.0,0.0,0.0,0.0,0.0,0.0,0.0,0.0,0.0,0.0,-4.1177,-4.2015,-4.2047,0.0,0.0,0.0,0.0,0.0,0.0,-3.6846,-3.6598,0.0,0.0,0.0,0.0,0.0,0.0,0.0,0.0,0.0,0.0,0.0,0.0,0.0,0.0,0.0,0.0,0.0,0.0,0.0,0.0,0.0,0.0,0.0,0.0,0.0,0.0,0.0,0.0,0.0,0.0,0.0,0.0,0.0,0.0,0.0,0.0,0.0,0.0,0.0,0.0,0.0,0.0,0.0,0.0,0.0,0.0,0.0,0.0,0.0,0.0,0.0,0.0,0.0,0.0,0.0,-4.1329,-4.2372,-4.4048,-4.6388,-4.6532,-4.6513,-4.6494,-4.49,-4.3192,0.0,0.0,0.0,0.0,0.0,0.0,0.0,0.0,0.0,0.0,0.0,0.0,0.0,0.0,0.0,0.0,0.0,0.0,0.0,0.0,0.0,0.0,0.0,0.0,0.0,0.0,0.0,0.0,0.0,0.0,0.0,0.0,0.0,0.0,0.0,0.0,0.0,0.0,0.0,0.0,0.0,-4.1983,-4.199,-4.1448,0.0,0.0,0.0,0.0,-3.8402,-3.7992,0.0,0.0,0.0,0.0,0.0,0.0,0.0,0.0,0.0,0.0,0.0,0.0,0.0,0.0,0.0,0.0,0.0,0.0,0.0,0.0,0.0,0.0,0.0,0.0,0.0,0.0,0.0,0.0,0.0,0.0,0.0,0.0,0.0,0.0,0.0,0.0,0.0,0.0,0.0,0.0,0.0,0.0,0.0,0.0,0.0,0.0,0.0,0.0,0.0,0.0,0.0,0.0,0.0,0.0,0.0,0.0,-4.0339,-4.2001,-4.3704,-4.5466,-4.5563,-4.5563,-4.5525,-4.3942,-4.2265,0.0,0.0,0.0,0.0,0.0,0.0,0.0,0.0,0.0,0.0,0.0,0.0,0.0,0.0,0.0,0.0,0.0,0.0,0.0,0.0,0.0,0.0,0.0,0.0,0.0,0.0,0.0,0.0,0.0,0.0,0.0,0.0,0.0,0.0,0.0,0.0,0.0,0.0,0.0,0.0,0.0,-4.2002,-4.1983,-4.1919,-4.13,0.0,0.0,0.0,-3.8413,-3.8863,0.0,0.0,0.0,0.0,0.0,0.0,0.0,0.0,0.0,0.0,0.0,0.0,0.0,0.0,0.0,0.0,0.0,0.0,0.0,0.0,0.0,0.0,0.0,0.0,0.0,0.0,0.0,0.0,0.0,0.0,0.0,0.0,0.0,0.0,0.0,0.0,0.0,0.0,0.0,0.0,0.0,0.0,0.0,0.0,0.0,0.0,0.0,0.0,0.0,0.0,0.0,0.0,0.0,0.0,0.0,-3.8355,-4.0027,-4.1686,-4.3433,-4.5148,-4.5246,-4.501,-4.4544,-4.3407,-4.1772,0.0,0.0,0.0,0.0,0.0,0.0,0.0,0.0,0.0,0.0,0.0,0.0,0.0,0.0,0.0,0.0,0.0,0.0,0.0,0.0,0.0,0.0,0.0,0.0,0.0,0.0,0.0,0.0,0.0,0.0,0.0,0.0,0.0,0.0,0.0,0.0,0.0,0.0,0.0,0.0,0.0,0.0,-4.257,-4.3088,0.0,0.0,0.0,-4.1537,-4.118,0.0,0.0,0.0,0.0,0.0,0.0,0.0,0.0,0.0,0.0,0.0,0.0,0.0,0.0,0.0,0.0,0.0,0.0,0.0,0.0,0.0,0.0,0.0,0.0,0.0,0.0,0.0,0.0,0.0,0.0,0.0,0.0,0.0,0.0,0.0,0.0,0.0,0.0,0.0,0.0,0.0,0.0,0.0,0.0,0.0,0.0,0.0,0.0,0.0,0.0,0.0,0.0,0.0,0.0,0.0,0.0,0.0,-3.9796,-4.146,-4.3185,-4.4879,-4.501,-4.4615,-4.3805,-4.3009,0.0,0.0,0.0,0.0,0.0,0.0,0.0,0.0,0.0,0.0,0.0,0.0,0.0,0.0,0.0,0.0,0.0,0.0,0.0,0.0,0.0,0.0,0.0,0.0,0.0,0.0,0.0,-3.3299,0.0,0.0,0.0,0.0,0.0,0.0,0.0,0.0,0.0,0.0,0.0,0.0,0.0,0.0,-4.1578,-4.2618,-4.3555,-4.3936,0.0,0.0,-4.3453,-4.3028,-4.2127,-4.0994,0.0,0.0,0.0,0.0,0.0,0.0,0.0,0.0,0.0,0.0,0.0,0.0,0.0,0.0,0.0,0.0,0.0,0.0,0.0,0.0,0.0,0.0,0.0,0.0,0.0,0.0,0.0,0.0,0.0,0.0,0.0,0.0,0.0,0.0,0.0,0.0,0.0,0.0,0.0,0.0,0.0,0.0,0.0,0.0,0.0,0.0,0.0,0.0,0.0,0.0,0.0,0.0,0.0,0.0,0.0,-3.952,-4.1224,-4.2925,-4.4538,-4.4699,-4.4304,-4.3448,-4.2704,-4.115,0.0,0.0,0.0,0.0,0.0,0.0,0.0,0.0,0.0,0.0,0.0,0.0,0.0,0.0,0.0,0.0,0.0,0.0,0.0,0.0,0.0,0.0,0.0,0.0,0.0,0.0,0.0,0.0,0.0,0.0,0.0,0.0,0.0,0.0,0.0,0.0,0.0,0.0,0.0,0.0,0.0,-3.9901,-4.1549,-4.2601,-4.3212,0.0,0.0,-4.3882,-4.2318,-4.2679,-4.2077,-3.8912,0.0,0.0,0.0,0.0,0.0,0.0,0.0,0.0,0.0,0.0,0.0,0.0,0.0,0.0,0.0,0.0,0.0,0.0,0.0,0.0,0.0,0.0,0.0,0.0,0.0,0.0,0.0,0.0,0.0,0.0,0.0,0.0,0.0,0.0,0.0,0.0,0.0,0.0,0.0,0.0,0.0,0.0,0.0,0.0,0.0,0.0,0.0,0.0,0.0,0.0,0.0,0.0,0.0,-3.7367,-3.8512,-4.0685,-4.2375,-4.3502,-4.4055,-4.3723,-4.2447,-4.2181,-4.0641,0.0,0.0,0.0,0.0,0.0,0.0,0.0,0.0,0.0,0.0,0.0,0.0,0.0,0.0,0.0,0.0,0.0,0.0,0.0,0.0,0.0,0.0,0.0,0.0,0.0,0.0,0.0,0.0,-3.4216,-3.4233,-3.4323,0.0,0.0,0.0,0.0,0.0,0.0,0.0,0.0,0.0,0.0,-3.9546,-4.1265,-4.2342,0.0,0.0,-4.3432,-4.348,-4.2846,-4.2621,-4.1794,-3.9478,-3.8656,0.0,0.0,0.0,0.0,0.0,0.0,0.0,0.0,0.0,0.0,0.0,0.0,0.0,0.0,0.0,0.0,0.0,0.0,0.0,0.0,0.0,0.0,0.0,0.0,0.0,0.0,0.0,0.0,0.0,0.0,0.0,0.0,0.0,0.0,0.0,0.0,0.0,0.0,0.0,0.0,0.0,0.0,0.0,0.0,0.0,0.0,0.0,0.0,0.0,0.0,0.0,0.0,-3.6475,-3.7798,-3.9985,-4.1646,-4.2745,-4.3336,-4.2991,-4.1696,-4.1484,-4.0056,0.0,0.0,0.0,0.0,0.0,0.0,0.0,0.0,0.0,0.0,0.0,0.0,0.0,0.0,0.0,0.0,0.0,0.0,0.0,0.0,0.0,0.0,0.0,0.0,0.0,0.0,0.0,0.0,-3.4216,-3.4245,-3.4351,0.0,0.0,0.0,0.0,0.0,0.0,0.0,0.0,0.0,0.0,-3.9372,-4.1089,-4.1972,-4.2526,-4.2886,-4.3055,-4.3073,-4.2843,-4.2183,-4.1105,-3.9442,0.0,0.0,0.0,0.0,0.0,0.0,0.0,0.0,0.0,0.0,0.0,0.0,0.0,0.0,0.0,0.0,0.0,0.0,0.0,0.0,0.0,0.0,0.0,0.0,0.0,0.0,0.0,0.0,0.0,0.0,0.0,0.0,0.0,0.0,0.0,0.0,0.0,0.0,0.0,0.0,0.0,0.0,0.0,0.0,0.0,0.0,0.0,0.0,0.0,0.0,0.0,0.0,0.0,0.0,-3.7573,-3.9212,-4.0812,-4.2306,-4.2569,-4.221,-4.1308,-4.0611,-3.9456,-3.7785,0.0,0.0,0.0,0.0,0.0,0.0,0.0,0.0,0.0,0.0,0.0,0.0,0.0,0.0,0.0,0.0,0.0,0.0,0.0,0.0,0.0,0.0,0.0,0.0,0.0,0.0,-3.4197,-3.4216,-3.4221,0.0,0.0,0.0,0.0,0.0,0.0,0.0,0.0,0.0,0.0,-3.8018,-3.9232,-4.0945,-4.1282,-4.1664,-4.2585,-4.2858,-4.2731,-4.1981,-4.1259,-4.0159,0.0,0.0,0.0,0.0,0.0,0.0,0.0,0.0,0.0,0.0,0.0,0.0,0.0,0.0,0.0,0.0,0.0,0.0,0.0,0.0,0.0,0.0,0.0,0.0,0.0,0.0,0.0,0.0,-3.8235,0.0,0.0,0.0,0.0,0.0,0.0,0.0,0.0,0.0,0.0,0.0,-3.8154,-3.7811,0.0,0.0,0.0,0.0,0.0,0.0,0.0,0.0,0.0,0.0,0.0,0.0,-3.5133,-3.6552,-3.8653,-3.9991,-4.0538,-4.1121,-4.1009,-4.0205,-3.9992,-3.8909,-3.6878,0.0,0.0,0.0,0.0,0.0,0.0,0.0,0.0,0.0,0.0,0.0,0.0,0.0,0.0,0.0,0.0,0.0,0.0,0.0,0.0,0.0,0.0,0.0,0.0,0.0,-3.4086,0.0,0.0,0.0,0.0,0.0,0.0,0.0,0.0,0.0,0.0,0.0,-3.6309,-3.7742,-3.819,-3.8844,-4.0023,-4.0265,-4.0268,0.0,0.0,0.0,0.0,0.0,0.0,0.0,0.0,0.0,0.0,0.0,0.0,0.0,0.0,-3.8692,-3.8161,-3.8082,-3.8004,-3.7695,0.0,0.0,0.0,0.0,0.0,0.0,0.0,0.0,0.0,0.0,0.0,0.0,0.0,0.0,0.0,0.0,-3.7985,0.0,0.0,0.0,0.0,0.0,0.0,0.0,0.0,-3.8084,-3.8332,-3.8535,-3.8453,-3.8032,0.0,-3.6964,-3.6111,0.0,0.0,0.0,0.0,0.0,0.0,0.0,0.0,-3.4778,-3.5921,-3.7978,-3.9161,-3.947,-4.0029,-4.0099,-3.9571,-3.9343,-3.8415,-3.6674,-3.5928,-3.5147,0.0,0.0,0.0,0.0,0.0,0.0,0.0,0.0,0.0,0.0,0.0,0.0,0.0,0.0,0.0,0.0,0.0,0.0,0.0,0.0,0.0,0.0,0.0,-3.3921,0.0,0.0,0.0,0.0,0.0,0.0,0.0,0.0,0.0,-3.5479,-3.582,-3.6547,-3.7972,-3.8421,-3.8871,-3.9524,0.0,0.0,0.0,0.0,0.0,0.0,0.0,-3.9923,-3.9476,-3.9187,-3.8844,-3.8332,-3.8524,-3.8947,-3.9572,0.0,0.0,-3.9104,-3.895,-3.8863,-3.8549,-3.8515,-3.8513,-3.8508,-3.805,-3.7572,0.0,0.0,0.0,0.0,0.0,0.0,0.0,0.0,-3.8838,-3.8821,0.0,-3.8213,0.0,0.0,0.0,0.0,0.0,0.0,0.0,0.0,-3.802,-3.8318,-3.8981,-3.9015,-3.8632,-3.7958,-3.7991,-3.7264,-3.5811,-3.4746,0.0,0.0,0.0,0.0,0.0,0.0,-3.4047,-3.5698,-3.7223,-3.8398,-3.912,-3.9348,-3.9452,-3.9432,-3.8753,-3.8018,-3.7218,-3.6413,-3.5611,-3.4798,-3.401,0.0,0.0,0.0,0.0,0.0,0.0,0.0,0.0,0.0,0.0,0.0,0.0,0.0,0.0,0.0,0.0,0.0,0.0,0.0,0.0,-3.3661,0.0,0.0,0.0,0.0,0.0,0.0,0.0,0.0,0.0,0.0,-3.5304,-3.6073,-3.6946,-3.7835,0.0,0.0,0.0,0.0,-3.9544,-3.9694,-3.9873,-3.9989,-4.0014,-3.9535,-3.9169,-3.9238,0.0,0.0,-3.8274,-3.9055,-3.9629,-3.966,-4.0325,-4.0682,-3.9961,-3.9833,-3.9585,-3.8816,-3.8695,-3.8607,-3.8613,-3.8572,-3.823,-4.1116,0.0,0.0,0.0,0.0,-3.8548,-3.8785,-3.9175,-3.8563,-3.8585,-3.9042,-3.8357,0.0,0.0,0.0,0.0,0.0,0.0,-3.7176,-3.7538,-3.8453,-3.9003,-3.9227,-3.925,-3.8986,-3.8394,-3.7867,-3.721,-3.6434,-3.5617,-3.4747,-3.3824,0.0,0.0,0.0,0.0,-3.4515,-3.5575,-3.7123,-3.8024,-3.8275,-3.8328,-3.8363,-3.8363,-3.8214,-3.7741,-3.6964,-3.6229,-3.5432,-3.454,-3.3762,0.0,0.0,0.0,0.0,0.0,0.0,0.0,0.0,0.0,0.0,0.0,0.0,0.0,0.0,0.0,0.0,0.0,0.0,0.0,-3.316,-3.322,-3.3327,0.0,0.0,0.0,0.0,0.0,0.0,0.0,0.0,0.0,-3.5451,-3.6446,-3.7445,0.0,0.0,-3.9064,-3.9264,-3.9272,-3.9163,-3.878,0.0,0.0,0.0,-3.947,-3.9824,-3.9896,-3.9868,-3.9825,-3.9908,-4.0159,-4.0401,-4.043,-4.0657,-4.0776,-4.0643,-4.0622,-4.0526,-4.0345,-4.0311,-4.0348,-4.0303,-3.9452,-3.8475,-4.1688,-4.008,-3.9457,-3.9202,-3.9196,-3.9013,-3.9166,-3.95,-3.8952,-3.8979,-3.9385,-3.8655,-3.8102,-3.7708,-3.7363,0.0,0.0,0.0,-3.7529,-3.7899,-3.87,-3.9253,-3.9598,-3.9367,-3.8935,-3.8328,-3.7619,-3.699,-3.6437,-3.5706,-3.4975,-3.4206,0.0,0.0,-3.325,-3.4065,-3.4865,-3.5686,-3.6898,-3.7539,-3.7539,-3.7576,-3.7595,-3.7631,-3.765,-3.747,-3.6969,-3.5981,-3.5156,-3.4606,-3.355,-3.291,0.0,0.0,0.0,0.0,0.0,0.0,0.0,0.0,0.0,0.0,0.0,-3.2249,0.0,0.0,0.0,0.0,-3.252,-3.2587,-3.2719,-3.2832,0.0,0.0,0.0,0.0,0.0,0.0,0.0,-3.3313,-3.4163,-3.4932,-3.537,-3.6526,-3.7624,-3.8368,-3.86,-3.877,-3.8984,0.0,-3.8975,-3.8701,-3.9139,-3.9369,-3.9007,-3.9507,-3.9977,-4.0129,-4.0306,-4.0433,-4.0531,-4.0593,-4.0565,-4.0333,-4.026,-4.0189,-3.9883,-3.9872,-4.0202,-4.0835,-4.0766,-4.0593,-4.0579,-3.9503,-3.8456,-4.2077,-4.0799,-4.0375,-4.0196,-4.0188,-3.9961,-3.9833,-3.9807,-3.9677,-3.9703,-3.9731,-3.9059,-3.8707,-3.8673,-3.7892,0.0,0.0,-3.7704,-3.8147,-3.8738,-3.8681,-3.9101,-3.9842,-3.9183,-3.8529,-3.7891,-3.7337,-3.6688,-3.5997,-3.5377,-3.5042,-3.4957,-3.4078,-3.3582,-3.36,-3.4339,-3.5097,-3.5765,-3.657,-3.695,-3.6987,-3.7031,-3.7073,-3.7063,-3.708,-3.7027,-3.6921,-3.556,-3.4765,-3.4694,-3.3351,-3.2488,-3.2316,0.0,0.0,0.0,0.0,0.0,0.0,0.0,0.0,0.0,0.0,0.0,0.0,0.0,0.0,0.0,-3.2232,0.0,-3.2266,-3.2437,0.0,0.0,0.0,-3.2959,-3.3039,-3.3055,-3.3039,-3.2959,0.0,0.0,0.0,0.0,-3.7362,-3.7802,-3.8129,-3.8428,-3.8624,-3.8785,-3.8917,-3.9073,-3.9219,-3.9274,-3.9202,-3.9329,-3.9433,-3.9665,-3.9977,-4.0011,-4.0072,-4.0207,-4.0041,-3.941,-3.9322,-3.9172,-3.8349,-3.8389,-3.8801,-4.042,-4.0159,-3.97,-3.964,-3.8962,-3.8157,-4.1587,-4.1128,-3.985,-3.9468,-3.9668,-3.9511,-3.9362,-3.9212,-3.9077,-3.9023,-3.9017,-3.8853,-3.8473,-3.7939,-3.7155,-3.6832,-3.6882,-3.7614,-3.7741,-3.7434,-3.8161,-3.8296,-3.7962,-3.7893,-3.7552,-3.7015,-3.6875,-3.6514,-3.6014,-3.5848,-3.5472,-3.4907,-3.4091,-3.3494,-3.3183,-3.3991,-3.45,-3.4692,-3.6016,-3.6693,-3.6693,-3.6733,-3.6457,-3.5922,-3.5904,-3.5642,-3.5084,-3.4121,-3.3577,-3.3504,-3.2579,-3.202,-3.1948,-3.1011,0.0,0.0,0.0,0.0,0.0,0.0,0.0,0.0,0.0,-3.1856,-3.1873,0.0,-3.1893,0.0,-3.1966,-3.1984,-3.2002,-3.2126,0.0,0.0,-3.2403,-3.2471,-3.2505,-3.2639,-3.2705,-3.264,-3.3506,-3.4126,-3.4109,-3.4978,-3.5616,-3.574,-3.7039,-3.8088,-3.8234,-3.8396,-3.8603,-3.8741,-3.8857,-3.8837,-3.8393,-3.7977,-3.7823,-3.794,-3.8087,-3.8185,-3.826,-3.8429,-3.8466,-3.8289,-3.832,-3.8273,-3.8125,-3.8179,-3.8329,-3.8839,-3.8809,-3.8744,-3.8789,-3.8143,-3.7542,-4.1375,-4.098,-3.9755,-3.9072,-3.8903,-3.9013,-3.9013,-3.8914,-3.8832,-3.8805,-3.8805,-3.8805,-3.8592,-3.8182,-3.7773,-3.7386,-3.7173,-3.7672,-3.7512,-3.6854,-3.7448,-3.7543,-3.722,-3.7027,-3.6788,-3.6558,-3.6222,-3.5937,-3.5701,-3.5684,-3.548,-3.5057,-3.3999,-3.3335,-3.3126,-3.3395,-3.3872,-3.4582,-3.5735,-3.6343,-3.6305,-3.6015,-3.5655,-3.5241,-3.4913,-3.455,-3.4118,-3.3358,-3.2907,-3.2867,-3.2142,-3.1654,-3.1579,-3.0841,-3.0205,0.0,0.0,0.0,0.0,0.0,0.0,0.0,0.0,0.0,0.0,0.0,-3.167,0.0,-3.169,0.0,-3.1727,-3.1819,-3.1929,-3.2001,-3.2091,-3.2144,-3.2214,-3.2301,-3.2387,-3.2318,-3.3038,-3.3512,-3.3565,-3.4269,-3.478,-3.478,-3.5776,-3.663,-3.6852,-3.7018,-3.7212,-3.7454,-3.7547,-3.7587,-3.7344,-3.7138,-3.7009,-3.7114,-3.7252,-3.737,-3.747,-3.7632,-3.7679,-3.7376,-3.7329,-3.7264,-3.7031,-3.698,-3.7013,-3.7084,-3.7161,-3.7385,-3.7792,-3.7259,-3.6698,-4.1146,-4.0417,-3.9622,-3.8827,-3.8116,-3.8511,-3.8694,-3.8678,-3.8694,-3.8694,-3.8694,-3.8694,-3.8694,-3.8678,-3.8596,-3.8237,-3.7692,-3.7621,-3.7222,-3.6535,-3.6673,-3.6752,-3.6754,-3.6232,-3.6054,-3.6148,-3.5546,-3.5205,-3.5245,-3.5268,-3.5268,-3.5224,-3.3873,-3.3177,-3.3182,-3.2744,-3.3301,-3.4827,-3.5476,-3.5817,-3.58,-3.51,-3.4673,-3.4554,-3.3956,-3.3543,-3.3424,-3.2773,-3.2395,-3.2361,-3.1781,-3.1349,-3.1237,-3.0643,-3.0232,0.0,-2.9428,0.0,0.0,0.0,0.0,0.0,0.0,0.0,0.0,-3.146,-3.146,-3.146,-3.146,-3.146,-3.146,-3.1521,-3.1634,-3.1709,-3.1802,-3.1893,-3.2018,-3.2019,-3.2037,-3.2055,-3.2629,-3.3029,-3.3048,-3.3732,-3.4171,-3.4119,-3.4302,-3.4606,-3.4971,-3.5335,-3.5712,-3.5882,-3.5881,-3.6047,-3.6219,-3.6337,-3.6373,-3.6484,-3.6576,-3.6855,-3.6841,-3.7022,-3.6996,-3.6457,-3.6351,-3.6209,-3.5554,-3.5515,-3.5547,-3.5695,-3.5794,-3.6095,-3.6745,-3.6504,-3.596,-3.9941,-3.9282,-3.8518,-3.8104,-3.7947,-3.8033,-3.8062,-3.8078,-3.8062,-3.8062,-3.8062,-3.8062,-3.8078,-3.8014,-3.7496,-3.7186,-3.7058,-3.6724,-3.6182,-3.5484,-3.5715,-3.553,-3.5005,-3.4873,-3.4905,-3.5009,-3.4877,-3.4875,-3.4987,-3.5065,-3.5152,-3.5102,-3.3779,-3.3103,0.0,0.0,0.0,0.0,-3.4706,-3.4796,-3.4762,-3.4062,-3.3405,-3.2812,-3.2659,0.0,-3.157,-3.1398,-3.1274,-3.1214,-3.1079,0.0,0.0,0.0,0.0,0.0,0.0,0.0,0.0,0.0,0.0,0.0,-3.0767,-3.0955,-3.1247,-3.1249,-3.1249,-3.1266,-3.1249,-3.1266,-3.1249,-3.1312,-3.1372,-3.1391,-3.1502,-3.1576,-3.1631,-3.1671,-3.1746,-3.1855,-3.2032,-3.2192,-3.2316,-3.2474,-3.2561,-3.2631,-3.258,-3.2686,-3.2984,-3.4318,-3.5321,-3.547,-3.5196,-3.5057,-3.5111,-3.4828,-3.4716,-3.4637,-3.4794,-3.5012,-3.519,-3.5287,-3.539,-3.5239,-3.5312,-3.5389,-3.528,-3.5281,-3.5376,-3.5496,-3.557,-3.5711,-3.5993,-3.5946,-3.5843,-3.8945,0.0,-3.7779,-3.745,0.0,-3.748,-3.748,-3.748,-3.7788,-3.7905,-3.7905,-3.7905,-3.7905,-3.7857,-3.7198,-3.6686,-3.6334,-3.5819,-3.5148,-3.4472,-3.4677,-3.4558,-3.4201,-3.4275,-3.4325,-3.4399,-3.4399,-3.4472,-3.4594,-3.4667,-3.4739,-3.4794,-3.3806,-3.3344,-3.3344,-3.3045,-3.3367,-3.4347,-3.433,-3.4369,-3.4336,-3.3624,-3.29,-3.2197,0.0,0.0,0.0,0.0,0.0,0.0,0.0,0.0,0.0,0.0,0.0,-3.0319,-3.0166,-3.0125,-3.0186,-3.0146,-3.0231,-3.0514,-3.0422,-3.0485,-3.072,-3.0814,-3.0818,-3.076,-3.0834,-3.0855,-3.0855,-3.0938,-3.1021,-3.1044,-3.1157,-3.1269,-3.1346,-3.1389,-3.1485,-3.1542,-3.1653,-3.1727,-3.1783,-3.1838,-3.1839,-3.1857,-3.193,-3.202,-3.2214,-3.3125,-3.393,-3.4129,-3.4078,-3.3984,-3.4069,-3.3967,-3.3847,-3.3965,-3.4105,-3.4257,-3.4427,-3.4528,-3.4636,-3.481,-3.4917,-3.4993,-3.5117,-3.5174,-3.5262,-3.5374,-3.5483,-3.5578,-3.5653,-3.573,-3.5802,-3.809,-3.7918,-3.7203,-3.6908,-3.6923,-3.6908,-3.6908,-3.6938,0.0,0.0,0.0,-3.773,-3.773,-3.7682,-3.6928,-3.6226,-3.5609,-3.4851,-3.4149,-3.3623,-3.372,-3.3797,-3.3822,-3.3949,-3.4,-3.4025,-3.4025,-3.4075,-3.4201,-3.4226,-3.4235,-3.417,-3.3727,-3.3479,-3.3479,-3.3613,-3.3836,-3.416,-3.4157,-3.4141,-3.4125,-3.3417,-3.2732,-3.213,-3.2018,-3.1629,-3.097,-3.0738,-3.0589,-3.0531,-3.0426,-3.0426,-3.0547,-3.0447,-3.0468,-3.0654,-3.0506,-3.0426,-3.0531,-3.0426,-3.0359,-3.029,-3.0038,-3.0017,-3.0187,-3.0342,-3.0326,-3.0208,-3.0305,-3.0384,-3.0422,-3.0526,-3.0634,-3.072,-3.0821,-3.0955,-3.1092,-3.1173,-3.1215,-3.1254,-3.1349,-3.1421,-3.146,-3.1502,-3.1523,-3.1542,-3.1673,-3.1803,-3.1893,-3.2249,-3.2683,-3.2913,-3.3106,-3.3155,-3.3289,-3.3455,-3.3577,-3.3726,-3.3855,-3.4023,-3.4197,-3.4323,-3.4461,-3.4676,-3.4728,-3.4849,-3.4983,-3.5046,-3.5124,-3.5239,-3.5357,-3.5455,-3.5502,-3.5623,-3.5696,-3.7296,-3.6755,-3.6631,-3.6554,-3.6569,-3.6554,-3.6554,-3.6616,-3.6969,-3.7121,-3.7121,-3.7121,-3.7121,-3.7058,-3.5788,-3.513,-3.4958,-3.3846,-3.3271,0.0,-3.3335,-3.345,-3.3555,-3.3581,-3.3658,-3.3745,-3.3745,-3.3787,-3.3813,-3.3899,-3.3668,-3.321,-3.3105,-3.308,-3.3088,-3.3088,-3.3437,-3.408,-3.395,-3.3846,-3.3846,-3.3149,-3.2702,-3.2586,-3.1973,-3.1505,-3.1161,-3.0586,-3.0151,-2.9941,-2.9919,-2.9919,-2.9919,-2.9919,-2.9919,-2.9946,-2.9919,-2.9903,-2.9941,-2.9919,-2.9892,-2.9792,-2.9653,-2.9643,-2.9853,-2.9881,-2.9897,-2.9859,-2.9881,-2.9957,-3.0044,-3.0189,-3.0316,-3.0443,-3.051,-3.063,-3.0753,-3.0794,-3.0875,-3.1015,-3.1055,-3.1114,-3.119,-3.123,-3.1232,-3.1252,-3.1351,-3.1466,-3.1673,-3.209,-3.2405,-3.2558,-3.2724,-3.2852,-3.2979,-3.3088,-3.3286,-3.3506,-3.3643,-3.382,-3.3998,-3.4136,-3.4276,-3.442,-3.4539,-3.4647,-3.4819,-3.4898,-3.4973,-3.51,-3.5237,-3.5339,-3.5381,-3.5432,-3.5273,-3.6501,-3.6241,-3.6226,-3.6226,-3.6241,-3.6241,-3.6226,-3.6226,-3.6398,-3.6554,-3.6708,-3.6724,-3.6724,-3.6584,-3.5253,-3.4692,-3.4747,-3.3419,-3.2893,-3.3005,-3.3058,-3.3123,-3.3176,-3.3176,-3.3203,-3.3256,-3.324,-3.3293,-3.3372,-3.3424,-3.3344,-3.3119,-3.3138,-3.3163,-3.3163,-3.3163,-3.3323,-3.3652,-3.3478,-3.3361,-3.3345,-3.2963,-3.2581,-3.2173,-3.1785,-3.1336,-3.0833,-3.0109,-2.9649,-2.9522,-2.947,-2.9432,-2.9538,-2.947,-2.9477,-2.9611,-2.9499,-2.9448,-2.9538,-2.947,-2.938,-2.9282,-2.9213,-2.9175,-2.9259,-2.9509,-2.9605,-2.9538,-2.9598,-2.9665,-2.9726,-2.9858,-2.9946,-3.0011,-3.0146,-3.0253,-3.0316,-3.0464,-3.0584,-3.0651,-3.0712,-3.0753,-3.0814,-3.0831,-3.0855,-3.0915,-3.1038,-3.1198,-3.1391,-3.1709,-3.2001,-3.2232,-3.2456,-3.2626,-3.2721,-3.2866,-3.3073,-3.3256,-3.3433,-3.3573,-3.3766,-3.3913,-3.4023,-3.4161,-3.4293,-3.4427,-3.4569,-3.4689,-3.4811,-3.4927,-3.5092,-3.5204,-3.5243,-3.4723,-3.4027,-3.5893,-3.5893,-3.5893,-3.5893,-3.5893,-3.5878,-3.5878,-3.5878,-3.5893,-3.6005,-3.6273,-3.6367,-3.6383,-3.626,-3.4925,-3.44,-3.4347,-3.3097,-3.2551,-3.2664,-3.2707,-3.2691,-3.2734,-3.2761,-3.2761,-3.2773,-3.2773,-3.2854,-3.2935,-3.2947,-3.3,-3.3049,-3.2966,-3.295,-3.3091,-3.3107,-3.3107,-3.3102,-3.2972,-3.2937,-3.3062,-3.2962,-3.2631,-3.2119,-3.1694,-3.123,-3.0624,-2.9704,-2.9198,-2.9167,-2.9091,-2.9075,-2.9167,-2.9091,-2.9137,-2.9305,-2.9144,-2.9068,-2.9167,-2.9091,-2.8982,-2.8873,-2.8873,-2.8858,-2.8842,-2.9107,-2.9291,-2.9229,-2.9291,-2.936,-2.9412,-2.9518,-2.9592,-2.9637,-2.9792,-2.9886,-2.9968,-3.0119,-3.0231,-3.0274,-3.0321,-3.0342,-3.0363,-3.038,-3.0464,-3.0609,-3.0773,-3.0955,-3.1137,-3.1274,-3.1504,-3.1819,-3.209,-3.2336,-3.2472,-3.2657,-3.282,-3.2979,-3.3165,-3.3331,-3.3473,-3.3629,-3.378,-3.3908,-3.4061,-3.4197,-3.4335,-3.4495,-3.4647,-3.4761,-3.4917,-3.4981,-3.4786,-3.387,-3.3037,-3.5554,-3.5537,-3.5569,-3.5522,-3.5554,-3.5569,-3.5554,-3.5569,-3.5569,-3.5569,-3.5666,-3.5925,-3.6037,-3.5854,-3.4638,-3.406,-3.3968,-3.2675,-3.2081,-3.2109,-3.2081,-3.215,-3.2274,-3.229,-3.233,-3.2425,-3.2468,-3.2468,-3.2496,-3.248,-3.2496,-3.2403,-3.1867,-3.1925,-3.2403,-3.248,-3.248,-3.248,-3.2458,-3.2741,-3.3224,-3.3251,-3.3219,-3.3156,-3.188,-3.1151,-3.0822,-2.9643,-2.8912,-2.885,-2.8818,-2.8818,-2.8842,-2.8818,-2.8842,-2.8865,-2.8842,-2.8842,-2.8842,-2.8842,-2.8818,-2.8818,-2.8818,-2.8794,-2.8794,-2.8818,-2.8865,-2.8865,-2.8865,-2.8967,-2.9114,-2.916,-2.9252,-2.945,-2.9518,-2.9586,-2.9681,-2.9748,-2.9792,-2.987,-2.9892,-2.9859,-2.9913,-3.0017,-3.0146,-3.0338,-3.0422,-3.0547,-3.0753,-3.0841,-3.0998,-3.1274,-3.1635,-3.1948,-3.2109,-3.2301,-3.2507,-3.2639,-3.2864,-3.3039,-3.3178,-3.3386,-3.3615,-3.3629,-3.386,-3.4023,-3.4117,-3.4281,-3.4473,-3.4594,-3.4663,-3.4661,-3.4077,-3.3345,-3.2909,-3.5489,-3.5489,-3.5489,-3.5489,-3.5489,-3.5489,-3.5489,-3.5489,-3.5489,-3.5489,-3.5489,-3.5651,-3.5701,-3.5625,-3.43,-3.3728,-3.3728,-3.2459,-3.1912,-3.2012,-3.2012,-3.2025,-3.2066,-3.2094,-3.2122,-3.2163,-3.2178,-3.2163,-3.2178,-3.2163,-3.2178,-3.2148,-3.186,-3.1891,-3.2148,-3.2163,-3.2178,-3.2178,-3.2178,-3.229,-3.2511,-3.2621,-3.2474,-3.2009,-3.1036,-3.0258,-2.9776,-2.8873,-2.8341,-2.8339,-2.8323,-2.8339,-2.8339,-2.8339,-2.8339,-2.8323,-2.8323,-2.8363,-2.8444,-2.8429,-2.8493,-2.8541,-2.8556,-2.8556,-2.8556,-2.858,-2.858,-2.858,-2.8715,-2.8842,-2.892,-2.892,-2.8967,-2.9099,-2.9176,-2.9298,-2.9344,-2.948,-2.9608,-2.9598,-2.9621,-2.9621,-2.9643,-2.9748,-2.9858,-2.9989,-3.0076,-3.021,-3.038,-3.0489,-3.0654,-3.0875,-3.112,-3.1411,-3.1728,-3.2037,-3.2214,-3.2318,-3.2555,-3.2786,-3.285,-3.3086,-3.3298,-3.3313,-3.3573,-3.378,-3.3842,-3.4036,-3.4209,-3.4386,-3.4588,-3.4583,-3.379,-3.3088,-3.2604,-3.5489,-3.5489,-3.5489,-3.5489,-3.5489,-3.5489,-3.5489,-3.5489,-3.5489,-3.5489,-3.5489,-3.5489,-3.5489,-3.534,-3.4277,-3.3741,-3.3502,-3.2509,-3.195,-3.187,-3.1855,-3.1883,-3.1855,-3.1855,-3.1883,-3.1883,-3.1868,-3.1855,-3.1855,-3.1855,-3.1855,-3.1883,-3.1883,-3.1855,-3.1883,-3.1855,-3.1855,-3.184,-3.1868,-3.1883,-3.1883,-3.1953,-3.1746,-3.1131,-3.0396,-2.9689,-2.9021,-2.8369,-2.798,-2.798,-2.798,-2.798,-2.798,-2.798,-2.798,-2.798,-2.798,-2.8029,-2.8152,-2.8137,-2.8186,-2.8275,-2.8275,-2.829,-2.829,-2.8275,-2.8275,-2.8299,-2.8493,-2.8652,-2.8747,-2.8732,-2.8747,-2.8794,-2.8944,-2.9021,-2.9045,-2.9199,-2.9307,-2.9291,-2.9291,-2.9337,-2.9344,-2.9434,-2.9525,-2.9614,-2.9748,-2.9908,-3.0055,-3.0167,-3.0316,-3.0526,-3.0654,-3.0922,-3.1389,-3.1727,-3.1911,-3.2073,-3.2284,-3.2489,-3.254,-3.282,-3.3008,-3.3086,-3.3313,-3.352,-3.3661,-3.382,-3.3972,-3.4197,-3.4413,-3.429,-3.3191,-3.2684,-3.2068,-3.5489,-3.5489,-3.5489,-3.5489,-3.5489,-3.5489,-3.5489,-3.5489,-3.5489,-3.5489,-3.5489,-3.5489,-3.5489,-3.5444,-3.4741,-3.4129,-3.3515,-3.2796,-3.2168,-3.1658,-3.1569,-3.1554,-3.1524,-3.1524,-3.1524,-3.1568,-3.1553,-3.1553,-3.1553,-3.1539,-3.1496,-3.1524,-3.1553,-3.1524,-3.1553,-3.1553,-3.1524,-3.1553,-3.1568,-3.1539,-3.1524,-3.1568,-3.1381,-3.0922,-3.0342,-2.9648,-2.8981,-2.8329,-2.798,-2.798,-2.798,-2.7995,-2.798,-2.798,-2.798,-2.7995,-2.798,-2.7995,-2.802,-2.802,-2.802,-2.8029,-2.8044,-2.8029,-2.8054,-2.8054,-2.8054,-2.8005,-2.8177,-2.8332,-2.8541,-2.8612,-2.8676,-2.8747,-2.8794,-2.8818,-2.8803,-2.885,-2.8842,-2.8865,-2.8889,-2.8944,-2.8943,-2.9036,-2.919,-2.9305,-2.9434,-2.9547,-2.9681,-2.9798,-2.9957,-3.0167,-3.0359,-3.0589,-3.1095,-3.137,-3.156,-3.1746,-3.1929,-3.2179,-3.2353,-3.2523,-3.269,-3.2834,-3.3008,-3.3226,-3.3433,-3.3619,-3.3748,-3.3972,-3.4221,-3.387,-3.2647,-3.2389,-3.176,-3.5489,-3.5489,-3.5489,-3.5489,-3.5489,-3.5489,-3.5489,-3.5489,-3.5489,-3.5489,-3.5489,-3.5489,-3.5489,-3.5489,-3.525,-3.4756,-3.4114,-3.344,-3.2796,-3.2183,-3.2168,-3.1914,-3.1511,-3.1496,-3.1496,-3.1496,-3.1496,-3.1496,-3.1496,-3.1496,-3.1496,-3.1496,-3.1496,-3.1496,-3.1496,-3.1496,-3.1496,-3.1496,-3.1496,-3.1496,-3.1496,-3.1496,-3.1059,-3.0177,-2.9862,-2.923,-2.8142,-2.7886,-2.7725,-2.775,-2.774,-2.774,-2.774,-2.7725,-2.7725,-2.7725,-2.774,-2.779,-2.7855,-2.7865,-2.7905,-2.798,-2.798,-2.798,-2.798,-2.798,-2.798,-2.798,-2.8044,-2.8128,-2.8226,-2.8372,-2.8508,-2.8541,-2.8612,-2.866,-2.8684,-2.8747,-2.881,-2.881,-2.881,-2.8818,-2.8803,-2.8873,-2.892,-2.9006,-2.9068,-2.9167,-2.9321,-2.9418,-2.9582,-2.982,-2.9973,-3.0151,-3.0485,-3.0858,-3.114,-3.1368,-3.1595,-3.1783,-3.1965,-3.2161,-3.2318,-3.254,-3.2722,-3.2882,-3.3117,-3.3448,-3.3569,-3.368,-3.3959,-3.3506,-3.2117,-3.2022,-3.1287,-3.5489,-3.5489,-3.5489,-3.5489,-3.5489,-3.5489,-3.5489,-3.5489,-3.5489,-3.5489,-3.5489,-3.5489,-3.5489,-3.5489,-3.5489,-3.528,-3.4771,-3.4144,-3.3469,-3.2841,-3.2617,-3.2273,-3.1854,-3.1615,-3.1496,-3.1496,-3.1496,-3.1496,-3.1496,-3.1496,-3.1496,-3.1496,-3.1496,-3.1496,-3.1496,-3.1496,-3.1496,-3.1496,-3.1496,-3.1496,-3.1496,-3.1496,-3.0911,-2.9804,-2.9621,-2.8963,-2.766,-2.7585,-2.7585,-2.7585,-2.7585,-2.7585,-2.7585,-2.7585,-2.7585,-2.7585,-2.7575,-2.759,-2.764,-2.764,-2.764,-2.7715,-2.7755,-2.7755,-2.7755,-2.7755,-2.773,-2.7755,-2.7781,-2.7806,-2.7855,-2.8005,-2.8177,-2.825,-2.8332,-2.842,-2.842,-2.8468,-2.8532,-2.8508,-2.8508,-2.8532,-2.8541,-2.8565,-2.8628,-2.866,-2.8748,-2.8865,-2.8998,-2.9098,-2.9259,-2.9457,-2.9582,-2.976,-3.0,-3.0305,-3.0703,-3.0982,-3.1157,-3.137,-3.1615,-3.1801,-3.2001,-3.2232,-3.2422,-3.2607,-3.2866,-3.3193,-3.3357,-3.343,-3.3547,-3.3353,-3.2404,-3.174,-3.0988,-3.5489,-3.5489,-3.5489,-3.5489,-3.5504,-3.5472,-3.5489,-3.5472,-3.5472,-3.5439,-3.5424,-3.5472,-3.5439,-3.5472,-3.5424,-3.5442,-3.523,-3.4709,-3.4097,-3.3499,-3.2946,-3.2602,-3.2378,-3.1854,-3.1555,-3.1496,-3.1496,-3.1496,-3.1496,-3.1496,-3.1496,-3.1496,-3.1496,-3.1496,-3.1496,-3.1496,-3.1496,-3.1496,-3.1496,-3.1496,-3.1496,-3.1496,-3.0941,-2.9831,-2.9609,-2.8981,-2.7705,-2.7615,-2.7585,-2.7585,-2.76,-2.76,-2.756,-2.7575,-2.7575,-2.7549,-2.7463,-2.7412,-2.7401,-2.731,-2.7284,-2.7269,-2.7233,-2.7269,-2.731,-2.7284,-2.7258,-2.7284,-2.731,-2.7401,-2.7401,-2.7499,-2.77,-2.797,-2.8005,-2.8005,-2.8005,-2.8005,-2.798,-2.8029,-2.8044,-2.8005,-2.8029,-2.8137,-2.8235,-2.8372,-2.8477,-2.8597,-2.8708,-2.8811,-2.892,-2.9075,-2.9213,-2.9357,-2.956,-2.9782,-3.0204,-3.058,-3.076,-3.0962,-3.1274,-3.1485,-3.1673,-3.1875,-3.2179,-3.237,-3.2522,-3.2832,-3.3021,-3.3126,-3.3201,-3.3149,-3.2363,-3.1574,-3.0882,-3.5489,-3.5489,-3.5489,-3.5489,-3.5472,-3.5374,-3.5294,-3.5294,-3.5148,-3.5082,-3.5082,-3.5082,-3.5082,-3.5082,-3.5082,-3.5115,-3.5052,-3.483,-3.453,-3.4171,-3.3933,-3.335,-3.2602,-3.2273,-3.1929,-3.157,-3.1496,-3.1496,-3.1496,-3.1496,-3.1496,-3.1496,-3.1496,-3.1496,-3.1467,-3.1496,-3.1496,-3.1496,-3.1496,-3.1496,-3.1496,-3.1496,-3.1062,-3.0283,-2.9722,-2.9039,-2.8219,-2.7803,-2.7615,-2.7585,-2.7514,-2.7412,-2.7361,-2.7321,-2.7321,-2.7335,-2.7284,-2.7258,-2.7258,-2.7192,-2.7167,-2.7192,-2.7167,-2.7192,-2.7181,-2.7093,-2.7041,-2.7041,-2.7,-2.6933,-2.6933,-2.6945,-2.7178,-2.7665,-2.77,-2.7715,-2.7715,-2.7715,-2.7725,-2.77,-2.774,-2.774,-2.774,-2.784,-2.794,-2.8005,-2.8103,-2.8226,-2.8356,-2.8429,-2.851,-2.8716,-2.8842,-2.8967,-2.9175,-2.9357,-2.9655,-3.0054,-3.0288,-3.0576,-3.0882,-3.11,-3.1295,-3.1543,-3.1839,-3.209,-3.2266,-3.2454,-3.267,-3.285,-3.2965,-3.2577,-3.1952,-3.1333,-3.0699,-3.5326,-3.5294,-3.5279,-3.5294,-3.5261,-3.5148,-3.5082,-3.5082,-3.4968,-3.4902,-3.4902,-3.4902,-3.4902,-3.4902,-3.4902,-3.4902,-3.4887,-3.4835,-3.4761,-3.4557,-3.4356,-3.3806,-3.3017,-3.2481,-3.1976,-3.147,-3.1366,-3.1336,-3.1336,-3.1336,-3.1336,-3.1366,-3.1366,-3.1336,-3.1336,-3.1351,-3.1336,-3.1366,-3.1366,-3.1351,-3.1322,-3.1336,-3.1053,-3.034,-2.9646,-2.8981,-2.8302,-2.7754,-2.7448,-2.7448,-2.7361,-2.7284,-2.7207,-2.7192,-2.7181,-2.7104,-2.7067,-2.7026,-2.6959,-2.6881,-2.687,-2.687,-2.687,-2.6855,-2.6829,-2.6779,-2.6753,-2.6727,-2.6566,-2.6472,-2.6472,-2.6472,-2.6657,-2.6971,-2.7244,-2.7372,-2.7423,-2.7397,-2.7372,-2.7361,-2.7361,-2.7372,-2.7412,-2.7488,-2.759,-2.764,-2.773,-2.7815,-2.7925,-2.7999,-2.8186,-2.8332,-2.8462,-2.859,-2.8756,-2.8943,-2.9106,-2.9454,-2.981,-3.0177,-3.0514,-3.0675,-3.0838,-3.1179,-3.1487,-3.171,-3.1894,-3.2197,-3.2438,-3.2573,-3.2636,-3.2297,-3.1808,-3.1275,-3.0653,-3.5067,-3.4902,-3.4887,-3.4902,-3.4902,-3.4868,-3.4835,-3.4835,-3.4802,-3.4769,-3.4802,-3.4735,-3.4802,-3.4802,-3.4735,-3.4735,-3.4802,-3.4664,-3.4582,-3.4445,-3.4178,-3.3865,-3.3606,-3.2545,-3.1735,-3.1294,-3.1161,-3.1117,-3.1146,-3.1132,-3.1087,-3.1146,-3.1132,-3.1117,-3.1146,-3.1102,-3.1146,-3.1146,-3.1132,-3.1102,-3.1102,-3.1087,-3.0822,-3.0189,-2.9528,-2.8853,-2.8221,-2.7501,-2.7115,-2.7181,-2.7141,-2.7104,-2.713,-2.7141,-2.7026,-2.691,-2.6846,-2.6686,-2.6513,-2.6433,-2.6326,-2.634,-2.634,-2.6286,-2.6313,-2.6313,-2.6272,-2.6286,-2.6152,-2.6056,-2.6071,-2.6071,-2.6084,-2.6165,-2.6633,-2.6974,-2.7104,-2.7015,-2.6963,-2.6977,-2.6977,-2.6951,-2.6937,-2.7052,-2.7181,-2.7284,-2.7335,-2.7412,-2.7539,-2.764,-2.7815,-2.7925,-2.8048,-2.8195,-2.8341,-2.8494,-2.8685,-2.8897,-2.9273,-2.9677,-3.0092,-3.0279,-3.0443,-3.0781,-3.1103,-3.1334,-3.156,-3.1803,-3.2002,-3.2109,-3.2091,-3.1996,-3.1714,-3.1222,-3.0632,-3.4968,-3.4902,-3.4783,-3.4765,-3.4716,-3.4481,-3.4332,-3.4298,-3.421,-3.4191,-3.4191,-3.4157,-3.4176,-3.4142,-3.4191,-3.4142,-3.4176,-3.4122,-3.402,-3.3902,-3.3759,-3.3614,-3.3351,-3.2353,-3.1698,-3.1509,-3.1234,-3.1087,-3.1087,-3.1058,-3.1058,-3.1087,-3.1058,-3.1058,-3.1087,-3.1058,-3.1087,-3.1087,-3.1073,-3.1087,-3.1058,-3.0925,-3.0792,-3.0602,-2.974,-2.9,-2.8277,-2.7169,-2.6659,-2.6884,-2.6736,-2.663,-2.658,-2.6566,-2.6539,-2.6474,-2.6447,-2.6353,-2.626,-2.6179,-2.6125,-2.6002,-2.6002,-2.6002,-2.6002,-2.5893,-2.5866,-2.5811,-2.5743,-2.5647,-2.5647,-2.5647,-2.5688,-2.5839,-2.6206,-2.6515,-2.6553,-2.6527,-2.6474,-2.6474,-2.6474,-2.6459,-2.6513,-2.6592,-2.6709,-2.6762,-2.6855,-2.6959,-2.7104,-2.7207,-2.731,-2.7488,-2.7615,-2.7765,-2.79,-2.8073,-2.8229,-2.8389,-2.8732,-2.9152,-2.9605,-3.0,-3.0167,-3.0384,-3.074,-3.0982,-3.114,-3.1336,-3.1468,-3.1654,-3.186,-3.19,-3.1687,-3.1274,-3.0672,-3.4534,-3.4467,-3.4395,-3.4327,-3.421,-3.3971,-3.3868,-3.377,-3.3681,-3.366,-3.366,-3.366,-3.366,-3.366,-3.366,-3.3646,-3.3612,-3.3556,-3.3486,-3.3333,-3.3178,-3.3022,-3.2792,-3.2234,-3.1939,-3.1639,-3.1263,-3.1062,-3.0975,-3.0802,-3.0701,-3.0657,-3.0687,-3.0657,-3.0657,-3.0687,-3.0687,-3.0671,-3.0687,-3.0687,-3.0657,-3.0567,-3.0462,-3.0271,-2.9588,-2.8798,-2.7769,-2.6861,-2.6477,-2.648,-2.6379,-2.6272,-2.6138,-2.6152,-2.6111,-2.6056,-2.6029,-2.5975,-2.5894,-2.5839,-2.5798,-2.5743,-2.5716,-2.5716,-2.5716,-2.5661,-2.5605,-2.5605,-2.5425,-2.53,-2.5285,-2.5285,-2.5355,-2.5481,-2.5771,-2.6003,-2.6125,-2.6084,-2.6029,-2.6029,-2.6056,-2.6056,-2.6056,-2.6177,-2.6258,-2.6338,-2.6418,-2.6539,-2.6674,-2.6753,-2.6817,-2.7,-2.7181,-2.7335,-2.7488,-2.765,-2.785,-2.7999,-2.8244,-2.8653,-2.9106,-2.9582,-2.9782,-2.9979,-3.0326,-3.0597,-3.0699,-3.0845,-3.1064,-3.1315,-3.1635,-3.1733,-3.1513,-3.1185,-3.0603,-3.3985,-3.3848,-3.3813,-3.3709,-3.357,-3.3501,-3.3333,-3.3234,-3.3129,-3.3129,-3.3129,-3.3164,-3.3094,-3.3164,-3.3094,-3.3164,-3.3129,-3.2988,-3.2931,-3.2753,-3.2547,-3.2321,-3.2271,-3.232,-3.2102,-3.1763,-3.1279,-3.1002,-3.0851,-3.0423,-3.0135,-3.0109,-3.008,-3.008,-3.0111,-3.008,-3.005,-3.008,-3.0111,-3.0111,-3.0111,-3.005,-2.9929,-2.9737,-2.9106,-2.8254,-2.7323,-2.6649,-2.6371,-2.6047,-2.6059,-2.5962,-2.5866,-2.5839,-2.5784,-2.566,-2.5647,-2.5605,-2.5467,-2.5411,-2.5411,-2.5369,-2.5383,-2.5411,-2.5369,-2.5341,-2.5313,-2.5313,-2.5131,-2.5005,-2.499,-2.4948,-2.5005,-2.5118,-2.53,-2.5495,-2.5674,-2.5716,-2.5688,-2.5674,-2.5702,-2.5674,-2.5702,-2.5784,-2.5893,-2.5975,-2.6029,-2.6125,-2.6233,-2.6313,-2.6406,-2.6498,-2.6724,-2.6937,-2.7078,-2.7233,-2.7437,-2.764,-2.7865,-2.822,-2.8637,-2.9059,-2.9289,-2.9566,-2.9859,-3.0049,-3.0151,-3.0347,-3.0642,-3.0865,-3.1123,-3.1295,-3.1346,-3.0934,-3.0422,-3.3591,-3.3423,-3.3248,-3.3178,-3.3058,-3.2824,-3.2632,-3.2596,-3.2417,-3.2381,-3.2381,-3.2345,-3.2381,-3.2381,-3.2381,-3.2345,-3.2381,-3.2309,-3.225,-3.2132,-3.1913,-3.1763,-3.1784,-3.1899,-3.1965,-3.1844,-3.1555,-3.1101,-3.0693,-3.0435,-3.0129,-2.9749,-2.9662,-2.9696,-2.9665,-2.9665,-2.9696,-2.9696,-2.9696,-2.9696,-2.9634,-2.9557,-2.9435,-2.9317,-2.8598,-2.7982,-2.739,-2.6537,-2.5976,-2.5745,-2.5686,-2.5633,-2.5564,-2.5536,-2.5481,-2.5342,-2.5286,-2.5202,-2.5005,-2.4962,-2.4905,-2.4848,-2.489,-2.4791,-2.4791,-2.482,-2.482,-2.4791,-2.4734,-2.4692,-2.4677,-2.4664,-2.4721,-2.4778,-2.482,-2.4848,-2.4934,-2.5272,-2.5481,-2.5508,-2.5508,-2.5536,-2.5508,-2.5508,-2.5564,-2.5619,-2.5674,-2.5702,-2.5812,-2.5907,-2.6002,-2.6138,-2.6272,-2.6474,-2.6592,-2.6762,-2.6997,-2.7218,-2.7448,-2.7715,-2.8131,-2.847,-2.8716,-2.902,-2.9387,-2.9538,-2.9649,-2.9995,-3.0321,-3.0472,-3.0621,-3.0825,-3.0873,-3.0562,-3.0169,-3.2966,-3.2846,-3.2668,-3.2525,-3.2467,-3.225,-3.2119,-3.2009,-3.19,-3.1863,-3.1863,-3.1877,-3.1877,-3.1877,-3.1863,-3.1813,-3.1703,-3.1593,-3.1495,-3.136,-3.1224,-3.1187,-3.1161,-3.1316,-3.1501,-3.1848,-3.1523,-3.1109,-3.0812,-3.0259,-2.9757,-2.9486,-2.9283,-2.9113,-2.9131,-2.9131,-2.9099,-2.9099,-2.9131,-2.9131,-2.9099,-2.9022,-2.8899,-2.8821,-2.8266,-2.7845,-2.7346,-2.6889,-2.6183,-2.5687,-2.5457,-2.5318,-2.5116,-2.5089,-2.5018,-2.4948,-2.492,-2.4863,-2.4763,-2.4692,-2.4677,-2.4578,-2.4591,-2.4591,-2.4591,-2.4591,-2.4591,-2.4591,-2.452,-2.4421,-2.4361,-2.4434,-2.4463,-2.4492,-2.4563,-2.4591,-2.4649,-2.4905,-2.5089,-2.5089,-2.5047,-2.5047,-2.5089,-2.5145,-2.5229,-2.5244,-2.53,-2.5355,-2.5578,-2.5674,-2.5702,-2.5798,-2.5866,-2.6002,-2.6123,-2.6324,-2.659,-2.6774,-2.6971,-2.7244,-2.756,-2.786,-2.8107,-2.8518,-2.8928,-2.909,-2.925,-2.9627,-2.9886,-2.9979,-3.0118,-3.0372,-3.0534,-3.047,-2.9924,-3.2322,-3.2273,-3.2105,-3.1936,-3.1817,-3.1767,-3.1633,-3.1485,-3.141,-3.136,-3.141,-3.141,-3.1373,-3.1373,-3.136,-3.1272,-3.1161,-3.1011,-3.0874,-3.0761,-3.0736,-3.0723,-3.071,-3.0784,-3.1007,-3.1603,-3.1352,-3.1114,-3.0732,-3.0098,-2.9653,-2.9315,-2.8895,-2.8717,-2.8576,-2.8522,-2.8554,-2.8587,-2.8522,-2.8522,-2.849,-2.8444,-2.8314,-2.8157,-2.7999,-2.7682,-2.7241,-2.6897,-2.6519,-2.558,-2.5342,-2.5014,-2.4713,-2.4605,-2.4563,-2.4578,-2.4578,-2.4563,-2.4505,-2.4505,-2.4505,-2.452,-2.4505,-2.4505,-2.4492,-2.4476,-2.4476,-2.4447,-2.4347,-2.4261,-2.4128,-2.4216,-2.4276,-2.4305,-2.4434,-2.4505,-2.4534,-2.4534,-2.4563,-2.4649,-2.4734,-2.4791,-2.4734,-2.4763,-2.482,-2.4863,-2.492,-2.5005,-2.5257,-2.5383,-2.5341,-2.5383,-2.5453,-2.5633,-2.5784,-2.5934,-2.619,-2.6324,-2.6498,-2.6736,-2.7011,-2.7203,-2.7519,-2.8097,-2.8446,-2.8614,-2.8826,-2.9129,-2.9335,-2.9448,-2.9694,-2.9984,-3.0194,-3.0363,-2.9632,-3.189,-3.1743,-3.1706,-3.1582,-3.1397,-3.1211,-3.1061,-3.0849,-3.071,-3.0596,-3.0647,-3.0596,-3.0685,-3.0634,-3.0596,-3.0596,-3.0583,-3.052,-3.0495,-3.0406,-3.0419,-3.0419,-3.0406,-3.0419,-3.0558,-3.0697,-3.0777,-3.0813,-3.0629,-3.0285,-2.9706,-2.9131,-2.8812,-2.8605,-2.8305,-2.8177,-2.8112,-2.8066,-2.8,-2.7934,-2.7921,-2.7789,-2.7689,-2.7556,-2.7503,-2.7338,-2.7015,-2.6561,-2.6168,-2.5923,-2.5055,-2.4648,-2.449,-2.4537,-2.4485,-2.4334,-2.4305,-2.4261,-2.4187,-2.4171,-2.4171,-2.4171,-2.4187,-2.42,-2.42,-2.42,-2.4216,-2.4229,-2.42,-2.4141,-2.4112,-2.4141,-2.4141,-2.4171,-2.42,-2.4229,-2.4229,-2.4229,-2.4303,-2.4447,-2.4534,-2.4563,-2.4505,-2.4476,-2.4534,-2.4591,-2.462,-2.4664,-2.4806,-2.4877,-2.4877,-2.4934,-2.5005,-2.5272,-2.5508,-2.5647,-2.5797,-2.5879,-2.6042,-2.6231,-2.6445,-2.6578,-2.693,-2.7469,-2.791,-2.818,-2.8422,-2.8685,-2.885,-2.899,-2.9289,-2.9621,-2.9716,-2.9745,-2.9261,-3.1323,-3.1112,-3.1037,-3.0936,-3.081,-3.0748,-3.0634,-3.0533,-3.0444,-3.0406,-3.0406,-3.0406,-3.0406,-3.0406,-3.0406,-3.033,-3.0267,-3.0113,-3.0075,-3.0075,-3.0075,-3.0075,-3.0113,-3.0113,-3.0075,-3.0152,-3.0292,-3.0455,-3.0357,-3.0045,-2.9702,-2.9207,-2.8682,-2.8195,-2.7921,-2.7659,-2.7589,-2.7529,-2.7449,-2.7403,-2.7403,-2.7268,-2.7201,-2.7146,-2.7146,-2.7092,-2.6994,-2.6806,-2.6401,-2.6056,-2.5582,-2.5,-2.462,-2.4425,-2.4341,-2.4073,-2.3969,-2.3927,-2.3865,-2.3835,-2.3835,-2.3848,-2.3835,-2.3907,-2.3966,-2.3995,-2.4008,-2.4096,-2.4125,-2.4125,-2.4125,-2.4083,-2.4125,-2.4125,-2.4083,-2.4083,-2.4096,-2.4037,-2.4112,-2.4258,-2.4258,-2.4258,-2.4287,-2.4287,-2.4274,-2.4303,-2.4345,-2.4361,-2.4392,-2.4463,-2.4505,-2.462,-2.4734,-2.4863,-2.5103,-2.5272,-2.5397,-2.5481,-2.5591,-2.5784,-2.5934,-2.6082,-2.6377,-2.6785,-2.7214,-2.7585,-2.7999,-2.8229,-2.8374,-2.8542,-2.8826,-2.9082,-2.9152,-2.9012,-2.8628,-3.0798,-3.0609,-3.0495,-3.0368,-3.0368,-3.033,-3.033,-3.0305,-3.0267,-3.0254,-3.0267,-3.0267,-3.0254,-3.0267,-3.0254,-3.0177,-3.0011,-2.9856,-2.9818,-2.983,-2.983,-2.9818,-2.9779,-2.9779,-2.9818,-2.9856,-2.9908,-2.9972,-3.0177,-2.9971,-2.9652,-2.9303,-2.8485,-2.8049,-2.7969,-2.7614,-2.7233,-2.7118,-2.6969,-2.6956,-2.6922,-2.6922,-2.6888,-2.6888,-2.6922,-2.6875,-2.6875,-2.6824,-2.6587,-2.6281,-2.5937,-2.5555,-2.4817,-2.4537,-2.4269,-2.3917,-2.3722,-2.3611,-2.3586,-2.3616,-2.3645,-2.3658,-2.3616,-2.37,-2.3789,-2.3848,-2.3861,-2.3966,-2.3995,-2.3966,-2.3936,-2.3995,-2.3995,-2.3966,-2.3966,-2.3995,-2.3936,-2.3878,-2.3789,-2.3878,-2.392,-2.3962,-2.3975,-2.3995,-2.3953,-2.3953,-2.3982,-2.4011,-2.4057,-2.4173,-2.4245,-2.4361,-2.4447,-2.452,-2.4692,-2.4877,-2.5005,-2.5061,-2.5202,-2.537,-2.5508,-2.566,-2.5947,-2.6244,-2.6472,-2.6867,-2.7331,-2.775,-2.7885,-2.8082,-2.835,-2.8542,-2.8598,-2.8607,-2.8383,-3.0444,-3.0457,-3.0406,-3.0292,-3.0152,-3.0152,-3.0037,-2.9895,-2.9895,-2.9856,-2.9934,-2.9895,-2.9895,-2.9895,-2.9895,-2.9869,-2.983,-2.983,-2.9779,-2.9779,-2.9779,-2.9779,-2.9779,-2.9779,-2.9779,-2.9779,-2.9779,-2.9895,-3.005,-2.9999,-2.9808,-2.9475,-2.9245,-2.9038,-2.8416,-2.7905,-2.7741,-2.757,-2.7096,-2.6717,-2.6602,-2.6589,-2.6589,-2.6602,-2.6568,-2.6602,-2.6636,-2.6624,-2.6501,-2.6438,-2.5963,-2.564,-2.5368,-2.4978,-2.4789,-2.4469,-2.4093,-2.3599,-2.3633,-2.3552,-2.3526,-2.3526,-2.3556,-2.3599,-2.3654,-2.3735,-2.3761,-2.3658,-2.3765,-2.3884,-2.3936,-2.379,-2.3739,-2.3816,-2.3974,-2.3893,-2.3812,-2.3999,-2.3887,-2.3763,-2.389,-2.3752,-2.3654,-2.365,-2.3628,-2.3658,-2.3658,-2.3658,-2.3704,-2.3763,-2.3894,-2.3982,-2.407,-2.4157,-2.429,-2.4476,-2.4563,-2.4677,-2.4806,-2.4962,-2.509,-2.5216,-2.5453,-2.5688,-2.5921,-2.6231,-2.6747,-2.7111,-2.7357,-2.761,-2.7845,-2.7984,-2.8082,-2.8047,-2.8069,-3.0037,-3.0037,-3.0049,-3.0011,-2.9934,-2.9934,-2.9908,-2.983,-2.9779,-2.9779,-2.9779,-2.9779,-2.9779,-2.9779,-2.9779,-2.9779,-2.9779,-2.9779,-2.9779,-2.9779,-2.9779,-2.9779,-2.9779,-2.9779,-2.9779,-2.9779,-2.9779,-2.9818,-2.9934,-2.9921,-2.9795,-2.9644,-2.9365,-2.9024,-2.877,-2.825,-2.8035,-2.7797,-2.7372,-2.6883,-2.6609,-2.6487,-2.6487,-2.6487,-2.6487,-2.6487,-2.6487,-2.6487,-2.6487,-2.6449,-2.6197,-2.5946,-2.5649,-2.5347,-2.5159,-2.477,-2.4513,-2.4178,-2.3862,-2.3533,-2.3432,-2.3356,-2.3373,-2.3348,-2.3501,-2.3846,-2.4042,-2.4085,-2.441,-2.4494,-2.4494,-2.4577,-2.4564,-2.452,-2.4213,-2.4233,-2.4184,-2.4129,-2.4148,-2.3979,-2.3797,-2.3598,-2.3405,-2.3304,-2.3253,-2.318,-2.318,-2.318,-2.3241,-2.333,-2.345,-2.3611,-2.3658,-2.3747,-2.3894,-2.4041,-2.4112,-2.4229,-2.4421,-2.4536,-2.465,-2.4793,-2.5005,-2.5174,-2.537,-2.5729,-2.6176,-2.6496,-2.68,-2.706,-2.7331,-2.7433,-2.756,-2.771,-2.7507,-2.9779,-2.9779,-2.9779,-2.9779,-2.9779,-2.9779,-2.9779,-2.9779,-2.9779,-2.9779,-2.9779,-2.9779,-2.9779,-2.9779,-2.9779,-2.9779,-2.9779,-2.9779,-2.9779,-2.9779,-2.9779,-2.9779,-2.9779,-2.9779,-2.9779,-2.9779,-2.9779,-2.9779,-2.9779,-2.9779,-2.9805,-2.9767,-2.9479,-2.9227,-2.9013,-2.8624,-2.8234,-2.7744,-2.7442,-2.7002,-2.66,-2.6487,-2.6487,-2.6487,-2.6487,-2.6487,-2.6487,-2.6487,-2.6487,-2.6474,-2.6461,-2.6235,-2.5925,-2.5871,-2.5686,-2.5385,-2.5129,-2.484,-2.4437,-2.4073,-2.3597,-2.3521,-2.3521,-2.3789,-2.3869,-2.4271,-2.4493,-2.4474,-2.4684,-2.4957,-2.5058,-2.4976,-2.4792,-2.4702,-2.4676,-2.4757,-2.4711,-2.4429,-2.4091,-2.3782,-2.3591,-2.3474,-2.3252,-2.3033,-2.2891,-2.2764,-2.2739,-2.2751,-2.2787,-2.2848,-2.2969,-2.309,-2.3241,-2.33,-2.342,-2.3569,-2.3654,-2.376,-2.3927,-2.4089,-2.416,-2.4319,-2.452,-2.4692,-2.4835,-2.5034,-2.537,-2.5797,-2.6244,-2.6537,-2.6788,-2.6919,-2.706,-2.7206,-2.6962,-2.9779,-2.9779,-2.9779,-2.9779,-2.9779,-2.9779,-2.9779,-2.9779,-2.9779,-2.9779,-2.9779,-2.9779,-2.9779,-2.9779,-2.9779,-2.9779,-2.9779,-2.9779,-2.9779,-2.9779,-2.9779,-2.9779,-2.9779,-2.9779,-2.9779,-2.9779,-2.9779,-2.9779,-2.9779,-2.9779,-2.9779,-2.9754,-2.9628,-2.9691,-2.9541,-2.9101,-2.8423,-2.7896,-2.753,-2.7153,-2.6725,-2.6524,-2.6487,-2.6487,-2.6487,-2.6487,-2.6487,-2.6487,-2.6487,-2.6487,-2.6487,-2.6487,-2.6298,-2.6285,-2.6172,-2.6059,-2.5749,-2.5511,-2.5259,-2.4833,-2.4682,-2.4637,-2.4575,-2.4437,-2.4418,-2.4632,-2.4757,-2.4782,-2.4931,-2.4833,-2.4673,-2.4463,-2.4686,-2.4682,-2.4748,-2.4669,-2.4569,-2.4362,-2.4008,-2.3606,-2.3451,-2.3435,-2.3182,-2.2968,-2.2772,-2.2647,-2.2402,-2.2421,-2.2302,-2.2359,-2.242,-2.2574,-2.2787,-2.2878,-2.2939,-2.303,-2.312,-2.321,-2.3365,-2.3514,-2.3645,-2.3835,-2.3998,-2.4173,-2.4319,-2.4408,-2.4609,-2.5105,-2.5591,-2.5988,-2.6258,-2.6418,-2.6457,-2.6502,-2.6201,-2.9779,-2.9779,-2.9779,-2.9779,-2.9779,-2.9779,-2.9779,-2.9779,-2.9779,-2.9779,-2.9779,-2.9779,-2.9779,-2.9779,-2.9779,-2.9779,-2.9779,-2.9779,-2.9779,-2.9779,-2.9779,-2.9779,-2.9779,-2.9779,-2.9779,-2.9792,-2.9792,-2.9779,-2.9779,-2.974,-2.9779,-2.9779,-2.974,-2.9779,-2.9654,-2.9515,-2.8976,-2.8398,-2.7908,-2.7519,-2.7052,-2.6625,-2.6487,-2.6487,-2.6487,-2.6487,-2.6487,-2.6487,-2.6487,-2.6487,-2.6452,-2.6452,-2.6452,-2.6452,-2.6452,-2.6452,-2.6176,-2.6101,-2.5925,-2.5385,-2.4858,-2.48,-2.4775,-2.4793,-2.4796,-2.4912,-2.5021,-2.5066,-2.5185,-2.5145,-2.5144,-2.5135,-2.5127,-2.4929,-2.4719,-2.4602,-2.4417,-2.422,-2.4093,-2.3781,-2.363,-2.357,-2.3245,-2.2947,-2.2707,-2.2515,-2.2274,-2.2074,-2.202,-2.1938,-2.2056,-2.209,-2.2283,-2.2359,-2.242,-2.2482,-2.2561,-2.2684,-2.2793,-2.2957,-2.3108,-2.3288,-2.3467,-2.3616,-2.3793,-2.3897,-2.416,-2.4523,-2.4978,-2.5425,-2.5701,-2.5892,-2.5895,-2.5888,-2.5614,-2.9779,-2.9779,-2.9779,-2.9779,-2.9779,-2.9779,-2.9779,-2.9779,-2.9779,-2.9779,-2.9779,-2.9779,-2.9779,-2.9779,-2.9779,-2.9779,-2.9779,-2.9779,-2.9779,-2.9779,-2.9779,-2.9779,-2.9779,-2.9779,-2.974,-2.9702,-2.9663,-2.965,-2.9534,-2.9585,-2.9546,-2.9585,-2.9663,-2.9689,-2.9779,-2.9754,-2.9503,-2.8913,-2.8574,-2.7934,-2.7366,-2.6977,-2.6543,-2.6493,-2.6396,-2.6327,-2.6292,-2.6245,-2.6292,-2.628,-2.6292,-2.6327,-2.6327,-2.6314,-2.6327,-2.6314,-2.6314,-2.6314,-2.609,-2.5841,-2.5289,-2.5361,-2.5323,-2.5199,-2.5066,-2.5246,-2.541,-2.5276,-2.5526,-2.5641,-2.543,-2.5239,-2.505,-2.4778,-2.472,-2.4578,-2.4389,-2.4188,-2.415,-2.3994,-2.3811,-2.3587,-2.3304,-2.2974,-2.2667,-2.2457,-2.224,-2.2065,-2.1983,-2.1874,-2.1771,-2.1774,-2.1772,-2.184,-2.1862,-2.1944,-2.1994,-2.2099,-2.2211,-2.2408,-2.2561,-2.2744,-2.2866,-2.3017,-2.3198,-2.339,-2.3616,-2.3897,-2.4379,-2.4893,-2.5175,-2.5453,-2.5563,-2.557,-2.5434,-2.9779,-2.9779,-2.9779,-2.9779,-2.9779,-2.9779,-2.9779,-2.9779,-2.9779,-2.9779,-2.9779,-2.9779,-2.9779,-2.9779,-2.9779,-2.9779,-2.9779,-2.9779,-2.9779,-2.9779,-2.9779,-2.9779,-2.9753,-2.974,-2.9611,-2.9457,-2.9392,-2.9365,-2.9209,-2.926,-2.9221,-2.9248,-2.9365,-2.956,-2.974,-2.9779,-2.9478,-2.8976,-2.89,-2.826,-2.7634,-2.7283,-2.6824,-2.6472,-2.6226,-2.6166,-2.6084,-2.5968,-2.5968,-2.5968,-2.5933,-2.5898,-2.5898,-2.5898,-2.591,-2.591,-2.591,-2.591,-2.5908,-2.6217,-2.6093,-2.5903,-2.5779,-2.575,-2.5773,-2.5802,-2.5624,-2.5307,-2.5346,-2.5206,-2.5076,-2.4873,-2.4694,-2.455,-2.4478,-2.4358,-2.4141,-2.3922,-2.3787,-2.3677,-2.3604,-2.3508,-2.3276,-2.3022,-2.2653,-2.2362,-2.2168,-2.2024,-2.1947,-2.1879,-2.1807,-2.1712,-2.1661,-2.1521,-2.158,-2.1426,-2.1463,-2.1526,-2.1632,-2.1819,-2.1987,-2.2142,-2.2297,-2.242,-2.2604,-2.2775,-2.3,-2.321,-2.3691,-2.4205,-2.4736,-2.5048,-2.5189,-2.5259,-2.5162,-2.9779,-2.9779,-2.9779,-2.9779,-2.9779,-2.9779,-2.9779,-2.9779,-2.9779,-2.9779,-2.9779,-2.9779,-2.9779,-2.9779,-2.9779,-2.9779,-2.9779,-2.9779,-2.9779,-2.9792,-2.974,-2.965,-2.9611,-2.9521,-2.9404,-2.9236,-2.9209,-2.917,-2.9143,-2.9025,-2.9064,-2.9131,-2.9131,-2.9417,-2.9702,-2.9779,-2.9641,-2.9453,-2.9126,-2.8625,-2.8113,-2.7515,-2.6946,-2.6558,-2.6214,-2.5959,-2.5842,-2.5749,-2.5653,-2.5618,-2.5583,-2.55,-2.5512,-2.55,-2.55,-2.55,-2.55,-2.55,-2.5535,-2.5652,-2.5781,-2.5863,-2.5933,-2.5793,-2.5571,-2.55,-2.5324,-2.5123,-2.4909,-2.4718,-2.4514,-2.4334,-2.4152,-2.397,-2.3861,-2.3861,-2.3703,-2.3446,-2.3224,-2.3113,-2.3038,-2.2927,-2.2767,-2.2804,-2.2552,-2.2451,-2.23,-2.2101,-2.1972,-2.2012,-2.197,-2.1857,-2.1721,-2.1484,-2.1325,-2.1333,-2.1225,-2.1241,-2.1215,-2.1253,-2.1411,-2.158,-2.1726,-2.1901,-2.2037,-2.2204,-2.2451,-2.2726,-2.3047,-2.3484,-2.4002,-2.4478,-2.4694,-2.4865,-2.498,-2.9779,-2.9779,-2.9779,-2.9779,-2.9779,-2.9779,-2.9779,-2.9779,-2.9779,-2.9779,-2.9779,-2.9779,-2.9779,-2.9779,-2.9779,-2.9779,-2.9779,-2.9689,-2.965,-2.9663,-2.9573,-2.9443,-2.9314,-2.9275,-2.9131,-2.8973,-2.8855,-2.8816,-2.863,-2.8669,-2.8669,-2.8736,-2.8828,-2.9013,-2.93,-2.9456,-2.9495,-2.9358,-2.9071,-2.881,-2.8324,-2.7792,-2.7176,-2.67,-2.6238,-2.5815,-2.5683,-2.5504,-2.53,-2.5277,-2.5194,-2.5123,-2.5123,-2.5111,-2.5076,-2.5028,-2.4957,-2.4921,-2.4933,-2.4897,-2.5052,-2.5182,-2.543,-2.543,-2.5182,-2.504,-2.4873,-2.467,-2.4418,-2.4236,-2.4007,-2.3824,-2.3677,-2.3482,-2.3409,-2.3372,-2.315,-2.2889,-2.2815,-2.2703,-2.2628,-2.2478,-2.2365,-2.2429,-2.2408,-2.2445,-2.2433,-2.2223,-2.1993,-2.205,-2.2057,-2.1924,-2.1749,-2.146,-2.1363,-2.1364,-2.1229,-2.1003,-2.1023,-2.1067,-2.0946,-2.1138,-2.1285,-2.138,-2.1498,-2.1667,-2.1956,-2.2254,-2.2519,-2.2854,-2.3233,-2.3679,-2.4089,-2.4334,-2.4549,-2.9779,-2.9779,-2.9779,-2.9779,-2.9779,-2.9779,-2.9779,-2.9779,-2.9779,-2.9779,-2.9779,-2.9779,-2.9779,-2.9779,-2.9779,-2.9779,-2.9689,-2.9509,-2.9431,-2.9353,-2.9248,-2.9131,-2.9052,-2.9013,-2.8776,-2.8578,-2.8419,-2.8259,-2.7962,-2.799,-2.8059,-2.8139,-2.8219,-2.8407,-2.8685,-2.8855,-2.9025,-2.9121,-2.9071,-2.8774,-2.8352,-2.8005,-2.74,-2.6812,-2.6244,-2.5714,-2.5427,-2.513,-2.4871,-2.4777,-2.4718,-2.4718,-2.4754,-2.4754,-2.4634,-2.4454,-2.4261,-2.4213,-2.4141,-2.4152,-2.4152,-2.4286,-2.4587,-2.4707,-2.4766,-2.4586,-2.4406,-2.4189,-2.397,-2.3787,-2.3593,-2.3446,-2.3298,-2.315,-2.3001,-2.2852,-2.2601,-2.2488,-2.244,-2.2402,-2.2365,-2.2289,-2.2252,-2.2289,-2.2252,-2.2209,-2.2221,-2.2216,-2.2029,-2.199,-2.2002,-2.1973,-2.1736,-2.1434,-2.1387,-2.1396,-2.1314,-2.1084,-2.1163,-2.123,-2.1006,-2.0903,-2.1246,-2.1345,-2.1105,-2.1163,-2.1498,-2.1757,-2.1975,-2.2316,-2.261,-2.3035,-2.3514,-2.3734,-2.3953,-2.9779,-2.9779,-2.9779,-2.9779,-2.9779,-2.9779,-2.9779,-2.9779,-2.9779,-2.9779,-2.9779,-2.9779,-2.9779,-2.9779,-2.9779,-2.9702,-2.956,-2.9431,-2.9314,-2.9157,-2.8934,-2.8816,-2.8657,-2.8538,-2.8311,-2.807,-2.7857,-2.7736,-2.7615,-2.7482,-2.74,-2.7482,-2.7644,-2.7805,-2.7966,-2.8139,-2.8538,-2.8855,-2.8843,-2.8603,-2.8279,-2.7843,-2.732,-2.6764,-2.6162,-2.566,-2.52,-2.4794,-2.4542,-2.4244,-2.403,-2.397,-2.3934,-2.3934,-2.3861,-2.3666,-2.3556,-2.3508,-2.3372,-2.3335,-2.3372,-2.3409,-2.3582,-2.3801,-2.3959,-2.4043,-2.3922,-2.3703,-2.3482,-2.3261,-2.315,-2.3001,-2.2889,-2.274,-2.2628,-2.2515,-2.2289,-2.2225,-2.2176,-2.2176,-2.2138,-2.2101,-2.2063,-2.2025,-2.1997,-2.1997,-2.1997,-2.2035,-2.2031,-2.2003,-2.1983,-2.1946,-2.1871,-2.1624,-2.1442,-2.1446,-2.1347,-2.1222,-2.1339,-2.1399,-2.1292,-2.125,-2.1418,-2.1419,-2.1252,-2.1113,-2.1053,-2.1331,-2.1681,-2.1698,-2.1987,-2.2439,-2.2866,-2.312,-2.333,-2.9779,-2.9779,-2.9779,-2.9779,-2.9779,-2.9779,-2.9779,-2.9779,-2.9779,-2.9779,-2.9779,-2.9779,-2.974,-2.9611,-2.9599,-2.9482,-2.9275,-2.904,-2.8934,-2.8816,-2.8578,-2.8299,-2.8099,-2.7978,-2.7736,-2.7545,-2.733,-2.7208,-2.7115,-2.7033,-2.6992,-2.7003,-2.7115,-2.7156,-2.729,-2.7452,-2.7777,-2.8087,-2.8247,-2.8219,-2.7917,-2.754,-2.7087,-2.6662,-2.6102,-2.5547,-2.5079,-2.4679,-2.4111,-2.3787,-2.356,-2.3372,-2.3335,-2.3298,-2.3224,-2.3065,-2.2953,-2.2916,-2.2815,-2.2804,-2.2777,-2.2777,-2.274,-2.2953,-2.3176,-2.3298,-2.3261,-2.3187,-2.2964,-2.274,-2.2665,-2.2563,-2.244,-2.2289,-2.2289,-2.2252,-2.2138,-2.2025,-2.1987,-2.1987,-2.1911,-2.1845,-2.1807,-2.1807,-2.1807,-2.1845,-2.1845,-2.1883,-2.1921,-2.1935,-2.192,-2.1916,-2.1924,-2.1866,-2.1707,-2.1549,-2.1556,-2.1514,-2.151,-2.1517,-2.1501,-2.1396,-2.1346,-2.1408,-2.1469,-2.1319,-2.1207,-2.1223,-2.1419,-2.1477,-2.1522,-2.1765,-2.2147,-2.2439,-2.2684,-2.9779,-2.9779,-2.9779,-2.9779,-2.9779,-2.9779,-2.9779,-2.9779,-2.974,-2.974,-2.974,-2.9753,-2.9611,-2.9431,-2.9341,-2.9209,-2.8973,-2.8736,-2.8498,-2.8391,-2.8059,-2.7736,-2.7574,-2.7441,-2.7208,-2.6962,-2.6757,-2.6622,-2.6498,-2.6373,-2.6332,-2.652,-2.6509,-2.655,-2.6674,-2.6757,-2.6962,-2.7115,-2.7267,-2.7267,-2.7319,-2.7062,-2.6798,-2.6573,-2.6013,-2.5426,-2.5102,-2.4482,-2.3721,-2.3487,-2.3232,-2.2961,-2.2815,-2.274,-2.2628,-2.2515,-2.2402,-2.2289,-2.2214,-2.2214,-2.2214,-2.2252,-2.2289,-2.2289,-2.2365,-2.274,-2.2815,-2.2815,-2.259,-2.2478,-2.2402,-2.23,-2.2187,-2.2101,-2.2063,-2.2025,-2.1949,-2.1873,-2.1883,-2.1883,-2.1845,-2.1807,-2.1807,-2.1807,-2.1807,-2.1807,-2.1807,-2.1807,-2.1807,-2.1845,-2.1845,-2.1883,-2.1903,-2.1895,-2.1922,-2.1834,-2.1893,-2.185,-2.1749,-2.1726,-2.1739,-2.1535,-2.1229,-2.1385,-2.1561,-2.1546,-2.1501,-2.1384,-2.1342,-2.1464,-2.1427,-2.1217,-2.1423,-2.1859,-2.2116,-2.9779,-2.9779,-2.9779,-2.9779,-2.9779,-2.9779,-2.9779,-2.9779,-2.956,-2.9509,-2.9509,-2.947,-2.9353,-2.9157,-2.9028,-2.8855,-2.8578,-2.8299,-2.8059,-2.7805,-2.7482,-2.7208,-2.7003,-2.6839,-2.6633,-2.6415,-2.6166,-2.5968,-2.5748,-2.5611,-2.558,-2.558,-2.5706,-2.5915,-2.5957,-2.6052,-2.6218,-2.629,-2.6196,-2.6362,-2.6528,-2.6434,-2.6227,-2.5924,-2.5458,-2.515,-2.48,-2.4339,-2.361,-2.3126,-2.2741,-2.2419,-2.2105,-2.2046,-2.1959,-2.1845,-2.1807,-2.1731,-2.1655,-2.1655,-2.1627,-2.1589,-2.155,-2.1512,-2.1655,-2.2176,-2.244,-2.2375,-2.2338,-2.2214,-2.2138,-2.2035,-2.1959,-2.1911,-2.1873,-2.1835,-2.1797,-2.1797,-2.1807,-2.1807,-2.1807,-2.1807,-2.1807,-2.1807,-2.1807,-2.1807,-2.1807,-2.1769,-2.1769,-2.1769,-2.1731,-2.1769,-2.1807,-2.1842,-2.1921,-2.1939,-2.1927,-2.1991,-2.1876,-2.1924,-2.1983,-2.1808,-2.1602,-2.1594,-2.1628,-2.1661,-2.1582,-2.1304,-2.1315,-2.149,-2.1416,-2.1252,-2.1241,-2.1593,-2.1696,-2.9779,-2.9779,-2.9779,-2.9779,-2.9779,-2.9702,-2.9611,-2.9573,-2.9353,-2.9157,-2.904,-2.9157,-2.9079,-2.8855,-2.8697,-2.8367,-2.8087,-2.7846,-2.7574,-2.7237,-2.6899,-2.6663,-2.6467,-2.626,-2.5999,-2.5748,-2.5675,-2.5464,-2.52,-2.5242,-2.5285,-2.52,-2.5285,-2.5316,-2.5369,-2.5506,-2.5549,-2.5601,-2.5327,-2.5401,-2.5737,-2.5642,-2.5558,-2.5327,-2.5062,-2.4756,-2.442,-2.4002,-2.3464,-2.2918,-2.25,-2.1959,-2.1663,-2.154,-2.1512,-2.1436,-2.1397,-2.132,-2.1254,-2.1177,-2.1177,-2.1177,-2.1215,-2.1282,-2.132,-2.1731,-2.1769,-2.1731,-2.1845,-2.1769,-2.1845,-2.1769,-2.1845,-2.1845,-2.1845,-2.1807,-2.1807,-2.1807,-2.1807,-2.1807,-2.1807,-2.1807,-2.1807,-2.1807,-2.1807,-2.1807,-2.1807,-2.1693,-2.1703,-2.1665,-2.1617,-2.1578,-2.1617,-2.1731,-2.1845,-2.1845,-2.1852,-2.1901,-2.1911,-2.1914,-2.1847,-2.2006,-2.2023,-2.1839,-2.1787,-2.1908,-2.1754,-2.142,-2.14,-2.1571,-2.1482,-2.1279,-2.1332,-2.1326,-2.1342,-2.9792,-2.9753,-2.974,-2.9702,-2.9663,-2.9482,-2.938,-2.9302,-2.9131,-2.8828,-2.859,-2.8776,-2.8669,-2.8471,-2.8311,-2.7898,-2.7522,-2.7185,-2.6951,-2.6674,-2.6332,-2.6082,-2.5874,-2.5622,-2.5454,-2.5242,-2.5115,-2.5073,-2.4946,-2.4903,-2.4861,-2.4988,-2.5031,-2.4988,-2.5031,-2.4988,-2.4956,-2.4903,-2.4733,-2.4605,-2.469,-2.4818,-2.4861,-2.4733,-2.4519,-2.4325,-2.4021,-2.3687,-2.3307,-2.2783,-2.2251,-2.1629,-2.1268,-2.1118,-2.1128,-2.1089,-2.1079,-2.1079,-2.1089,-2.1051,-2.1051,-2.1089,-2.1128,-2.1128,-2.1128,-2.1128,-2.1167,-2.1244,-2.1349,-2.1474,-2.154,-2.1578,-2.1655,-2.1693,-2.1693,-2.1731,-2.1731,-2.1693,-2.1693,-2.1693,-2.1693,-2.1693,-2.1693,-2.1693,-2.1731,-2.1731,-2.1693,-2.1589,-2.1512,-2.1436,-2.1387,-2.1349,-2.1339,-2.1502,-2.1655,-2.1655,-2.1617,-2.1617,-2.1655,-2.1693,-2.1731,-2.1721,-2.1759,-2.1863,-2.1855,-2.1782,-2.1805,-2.1548,-2.1602,-2.1633,-2.1606,-2.1477,-2.1403,-2.1358,-2.1107,-2.965,-2.947,-2.947,-2.9392,-2.926,-2.917,-2.917,-2.9091,-2.8764,-2.8538,-2.8339,-2.7926,-2.7725,-2.7684,-2.751,-2.7237,-2.6962,-2.6622,-2.629,-2.6063,-2.579,-2.5538,-2.5369,-2.52,-2.5115,-2.4903,-2.4615,-2.4411,-2.4487,-2.4262,-2.409,-2.4186,-2.4143,-2.4143,-2.41,-2.4143,-2.4229,-2.4219,-2.4176,-2.4057,-2.4057,-2.4143,-2.4186,-2.41,-2.397,-2.3927,-2.38,-2.3597,-2.3262,-2.2752,-2.2004,-2.1342,-2.0977,-2.0839,-2.0809,-2.0809,-2.0799,-2.0809,-2.0809,-2.0809,-2.0809,-2.0809,-2.0809,-2.0809,-2.0809,-2.077,-2.0809,-2.0886,-2.1002,-2.1205,-2.1282,-2.132,-2.1397,-2.1397,-2.1397,-2.1474,-2.1502,-2.1436,-2.1397,-2.1397,-2.1397,-2.1397,-2.1397,-2.1397,-2.1397,-2.1397,-2.1387,-2.1272,-2.1233,-2.1205,-2.1118,-2.1041,-2.0954,-2.1156,-2.1272,-2.1272,-2.1272,-2.132,-2.131,-2.1349,-2.1349,-2.131,-2.1387,-2.154,-2.1512,-2.1423,-2.141,-2.1539,-2.1566,-2.1576,-2.1707,-2.1705,-2.1555,-2.139,-2.1138]},{"header":{"parameterUnit":"m.s-1","parameterCategory":1,"la1":31.0,"la2":29.5877,"lo1":-88.7671,"lo2":-86.6584,"dy":0.0162,"dx":0.0185,"nx":115,"ny":88,"refTime":"2023-04-15T12:00:00:Z","depth":0,"parameterNumber":3,"parameterNumberName":"V-component_of_WINDS"},"data":[0.0,0.0,0.0,0.0,0.0,0.0,0.0,0.0,0.0,0.0,0.0,0.0,0.0,0.0,0.0,0.0,0.0,0.0,0.0,0.0,0.0,0.0,0.0,0.0,0.0,0.0,0.0,0.0,0.0,0.0,0.0,0.0,0.0,0.0,0.0,0.0,0.0,0.0,0.0,0.0,0.0,0.0,0.0,0.0,0.0,0.0,0.0,0.0,0.0,0.0,0.0,0.0,0.0,0.0,0.0,0.0,0.0,0.0,0.0,0.0,0.0,0.0,0.0,0.0,0.0,0.0,0.0,0.0,0.0,0.0,0.0,0.0,0.0,0.0,0.0,0.0,0.0,0.0,0.0,0.0,0.0,0.0,0.0,0.0,0.0,0.0,0.0,0.0,0.0,0.0,0.0,0.0,0.0,0.0,0.0,0.0,0.0,0.0,0.0,0.0,0.0,0.0,0.0,0.0,0.0,0.0,0.0,0.0,0.0,0.0,0.0,0.0,0.0,0.0,0.0,0.0,0.0,0.0,0.0,0.0,0.0,0.0,0.0,0.0,0.0,0.0,0.0,0.0,0.0,0.0,0.0,0.0,0.0,0.0,0.0,0.0,0.0,0.0,0.0,0.0,0.0,0.0,0.0,0.0,0.0,0.0,0.0,0.0,0.0,0.0,0.0,0.0,0.0,0.0,0.0,0.0,0.0,0.0,0.0,0.0,0.0,0.0,0.0,0.0,0.0,0.0,0.0,0.0,0.0,0.0,0.0,0.0,0.0,0.0,0.0,0.0,0.0,0.0,0.0,0.0,0.0,0.0,0.0,0.0,0.0,0.0,0.0,0.0,0.0,0.0,0.0,0.0,0.0,0.0,0.0,0.0,0.0,0.0,0.0,0.0,0.0,0.0,0.0,0.0,0.0,0.0,0.0,0.0,0.0,0.0,0.0,0.0,0.0,0.0,0.0,0.0,0.0,0.0,0.0,0.0,0.0,0.0,0.0,0.0,0.0,0.0,0.0,0.0,0.0,0.0,0.0,0.0,0.0,0.0,0.0,0.0,0.0,0.0,0.0,0.0,0.0,0.0,0.0,0.0,0.0,0.0,0.0,0.0,0.0,0.0,0.0,0.0,0.0,0.0,0.0,0.0,0.0,0.0,0.0,0.0,0.0,0.0,0.0,0.0,0.0,0.0,0.0,0.0,0.0,0.0,0.0,0.0,0.0,0.0,0.0,0.0,0.0,0.0,0.0,0.0,0.0,0.0,0.0,0.0,0.0,0.0,0.0,0.0,0.0,0.0,0.0,0.0,0.0,0.0,0.0,0.0,0.0,0.0,0.0,0.0,0.0,0.0,0.0,0.0,0.0,0.0,0.0,0.0,0.0,0.0,0.0,0.0,0.0,0.0,0.0,0.0,0.0,0.0,0.0,0.0,0.0,0.0,0.0,0.0,0.0,0.0,0.0,0.0,0.0,0.0,0.0,0.0,0.0,0.0,0.0,0.0,0.0,0.0,0.0,0.0,0.0,0.0,0.0,0.0,0.0,0.0,0.0,0.0,0.0,0.0,0.0,0.0,0.0,0.0,0.0,0.0,0.0,0.0,0.0,0.0,0.0,0.0,0.0,0.0,0.0,0.0,0.0,0.0,0.0,0.0,0.0,0.0,0.0,0.0,0.0,0.0,0.0,0.0,0.0,0.0,0.0,0.0,0.0,0.0,0.0,0.0,0.0,0.0,0.0,0.0,0.0,0.0,0.0,0.0,0.0,0.0,0.0,0.0,0.0,0.0,0.0,0.0,0.0,0.0,0.0,0.0,0.0,0.0,0.0,0.0,0.0,0.0,0.0,0.0,0.0,0.0,0.0,0.0,0.0,0.0,0.0,0.0,0.0,0.0,0.0,0.0,0.0,0.0,0.0,0.0,0.0,0.0,0.0,0.0,0.0,0.0,0.0,0.0,0.0,0.0,0.0,0.0,0.0,0.0,0.0,0.0,0.0,0.0,0.0,0.0,0.0,0.0,0.0,0.0,0.0,0.0,0.0,0.0,0.0,0.0,0.0,0.0,0.0,0.0,0.0,0.0,0.0,0.0,0.0,0.0,0.0,0.0,0.0,0.0,0.0,0.0,0.0,0.0,0.0,0.0,0.0,0.0,0.0,0.0,0.0,0.0,0.0,0.0,0.0,0.0,0.0,0.0,0.0,0.0,0.0,0.0,0.0,0.0,0.0,0.0,0.0,0.0,0.0,0.0,0.0,0.0,0.0,0.0,0.0,0.0,0.0,0.0,0.0,0.0,0.0,0.0,0.0,0.0,0.0,0.0,0.0,0.0,0.0,0.0,0.0,0.0,0.0,0.0,0.0,0.0,0.0,0.0,0.0,0.0,0.0,0.0,0.0,0.0,0.0,0.0,0.0,0.0,0.0,0.0,0.0,0.0,0.0,0.0,0.0,0.0,0.0,0.0,0.0,0.0,0.0,0.0,0.0,0.0,0.0,0.0,0.0,0.0,0.0,0.0,0.0,0.0,0.0,0.0,0.0,0.0,0.0,0.0,0.0,0.0,0.0,0.0,0.0,0.0,0.0,0.0,0.0,0.0,0.0,0.0,0.0,0.0,0.0,0.0,0.0,0.0,0.0,0.0,0.0,0.0,0.0,0.0,0.0,0.0,0.0,0.0,0.0,0.0,0.0,0.0,0.0,0.0,0.0,0.0,0.0,0.0,0.0,0.0,0.0,0.0,0.0,0.0,0.0,0.0,0.0,0.0,0.0,0.0,0.0,0.0,0.0,0.0,0.0,0.0,0.0,0.0,0.0,0.0,0.0,0.0,0.0,0.0,0.0,0.0,0.0,0.0,0.0,0.0,0.0,0.0,0.0,0.0,0.0,0.0,0.0,0.0,0.0,0.0,0.0,0.0,0.0,0.0,0.0,0.0,0.0,0.0,0.0,0.0,0.0,0.0,0.0,0.0,0.0,0.0,0.0,0.0,0.0,0.0,0.0,0.0,0.0,0.0,0.0,0.0,0.0,0.0,0.0,0.0,0.0,0.0,0.0,0.0,0.0,0.0,0.0,0.0,0.0,0.0,0.0,0.0,0.0,0.0,0.0,0.0,0.0,0.0,0.0,0.0,0.0,0.0,0.0,0.0,0.0,0.0,0.0,0.0,0.0,0.0,0.0,0.0,0.0,0.0,0.0,0.0,0.0,0.0,0.0,0.0,0.0,0.0,0.0,0.0,0.0,0.0,0.0,0.0,0.0,0.0,0.0,0.0,0.0,0.0,0.0,0.0,0.0,0.0,0.0,0.0,0.0,0.0,0.0,0.0,0.0,0.0,0.0,0.0,0.0,0.0,0.0,0.0,0.0,0.0,0.0,0.0,0.0,0.0,0.0,0.0,0.0,0.0,0.0,0.0,0.0,0.0,0.0,0.0,0.0,0.0,0.0,0.0,0.0,0.0,0.0,0.0,0.0,0.0,0.0,0.0,0.0,0.0,0.0,0.0,0.0,0.0,0.0,0.0,0.0,0.0,0.0,0.0,0.0,0.0,0.0,0.0,0.0,0.0,0.0,0.0,0.0,0.0,0.0,0.0,0.0,0.0,0.0,0.0,0.0,0.0,0.0,0.0,0.0,0.0,0.0,0.0,0.0,0.0,0.0,0.0,0.0,0.0,0.0,0.0,0.0,0.0,0.0,0.0,0.0,0.0,0.0,0.0,0.0,0.0,0.0,0.0,0.0,0.0,0.0,0.0,0.0,0.0,0.0,0.0,0.0,0.0,0.0,0.0,0.0,0.0,0.0,0.0,0.0,0.0,0.0,0.0,0.0,0.0,0.0,0.0,0.0,0.0,0.0,0.0,0.0,0.0,0.0,0.0,0.0,0.0,0.0,0.0,0.0,0.0,0.0,0.0,0.0,0.0,0.0,0.0,0.0,0.0,0.0,0.0,0.0,0.0,0.0,0.0,0.0,0.0,0.0,0.0,0.0,0.0,0.0,0.0,0.0,0.0,0.0,0.0,0.0,0.0,0.0,0.0,0.0,0.0,0.0,0.0,0.0,0.0,0.0,0.0,0.0,0.0,0.0,0.0,0.0,0.0,0.0,0.0,0.0,0.0,0.0,0.0,0.0,0.0,0.0,0.0,0.0,0.0,0.0,0.0,0.0,0.0,0.0,0.0,0.0,0.0,0.0,0.0,0.0,0.0,0.0,0.0,0.0,0.0,0.0,0.0,0.0,0.0,0.0,0.0,0.0,0.0,0.0,0.0,0.0,0.0,0.0,0.0,0.0,0.0,0.0,0.0,-0.1122,0.0,0.0,0.0,0.0,0.0,0.0,0.0,0.0,0.0,0.0,0.0,0.0,0.0,0.0,0.0,0.0,0.0,0.0,0.0,0.0,0.0,0.0,0.0,0.0,0.0,0.0,0.0,0.0,0.0,0.0,0.0,0.0,0.0,0.0,0.0,0.0,0.0,0.0,0.0,0.0,0.0,0.0,0.0,0.0,0.0,0.0,0.0,0.0,0.0,0.0,0.0,0.0,0.0,0.0,0.0,0.0,0.0,0.0,0.0,0.0,0.0,0.0,0.0,0.0,0.0,0.0,0.0,0.0,0.0,0.0,0.0,0.0,0.0,0.0,0.0,0.0,0.0,0.0,0.0,0.0,0.0,0.0,0.0,0.0,0.0,0.0,0.0,0.0,0.0,0.0,0.0,0.0,0.0,0.0,0.0,0.0,0.0,0.0,0.0,0.0,0.0,0.0,0.0,0.0,0.0,0.0,0.0,0.0,0.0,0.0,0.0,0.0,-0.0092,-0.0365,-0.0729,0.0,0.0,0.0,0.0,0.0,0.0,0.0,0.0,0.0,0.0,0.0,0.0,0.0,0.0,0.0,0.0,0.0,0.0,0.0,0.0,0.0,0.0,0.0,0.0,0.0,0.0,0.0,0.0,0.0,0.0,0.0,0.0,0.0,0.0,0.0,0.0,0.0,0.0,0.0,0.0,0.0,0.0,0.0,0.0,0.0,0.0,0.0,0.0,0.0,0.0,0.0,0.0,0.0,0.0,0.0,0.0,0.0,0.0,0.0,0.0,0.0,0.0,0.0,0.0,0.0,0.0,0.0,0.0,0.0,0.0,0.0,0.0,0.0,0.0,0.0,0.0,0.0,0.0,0.0,0.0,0.0,0.0,0.0,0.0,0.0,0.0,0.0,0.0,0.0,0.0,0.0,0.0,0.0,0.0,0.0,0.0,0.0,0.0,0.0,0.0,0.0,0.0,0.0,0.0,0.0,0.0,0.0,0.0,0.0,0.0,0.0,0.0,0.0,-0.0138,-0.0413,0.0,0.0,0.0,0.0,0.0,0.0,0.0,0.0,0.0,0.0,0.0,0.0,0.0,0.0,0.0,0.0,0.0,0.0,0.0,0.0,0.0,0.0,0.0,0.0,0.0,0.0,0.0,0.0,0.0,0.0,0.0,0.0,0.0,0.0,0.0,0.0,0.0,0.0,0.0,0.0,0.0,0.0,0.0,0.0,0.0,0.0,0.0,0.0,0.0,0.0,0.0,0.0,0.0,0.0,0.0,0.0,0.0,0.0,0.0,0.0,0.0,0.0,0.0,0.0,0.0,0.0,0.0,0.0,0.0,0.0,0.0,0.0,0.0,0.0,0.0,0.0,0.0,0.0,0.0,0.0,0.0,0.0,0.0,0.0,0.0,0.0,0.0,0.0,0.0,0.0,0.0,0.0,0.0,0.0,0.0,0.0,0.0,0.0,0.0,0.0,0.0,0.0,0.0,0.0,0.0,0.0,0.0,0.0,0.0,0.0,0.0,0.0,0.0,0.0,-0.0405,0.0,0.0,0.0,0.0,0.0,0.0,0.0,0.0,0.0,0.0,0.0,0.0,0.0,0.0,0.0,0.0,0.0,0.0,0.0,0.0,0.0,0.0,0.0,0.0,0.0,0.0,0.0,0.0,0.0,0.0,0.0,0.0,0.0,0.0,0.0,0.0,0.0,0.0,0.0,0.0,0.0,0.0,0.0,0.0,0.0,0.0,0.0,0.0,0.0,0.0,0.0,0.0,0.0,0.0,0.0,0.0,0.0,0.0,0.0,0.0,0.0,0.0,0.0,0.0,0.0,0.0,0.0,0.0,0.0,0.0,0.0,0.0,0.0,0.0,0.0,0.0,0.0,0.0,0.0,0.0,0.0,0.0,0.0,0.0,0.0,0.0,0.0,0.0,0.0,0.0,0.0,0.0,0.0,0.0,0.0,0.0,0.0,0.0,0.0,0.0,0.0,0.0,0.0,0.0,0.0,0.0,0.0,0.0,0.0,0.0,0.0,0.0,0.0,-0.0046,0.0,0.0,0.0,0.0,0.0,0.0,0.0,0.0,0.0,0.0,0.0,0.0,0.0,0.0,0.0,0.0,0.0,0.0,0.0,0.0,0.0,0.0,0.0,0.0,0.0,0.0,0.0,0.0,0.0,0.0,0.0,0.0,0.0,0.0,0.0,0.0,0.0,0.0,0.0,0.0,0.0,0.0,0.0,0.0,0.0,0.0,0.0,0.0,0.0,0.0,0.0,0.0,0.0,0.0,0.0,0.0,0.0,0.0,0.0,0.0,0.0,0.0,0.0,0.0,0.0,0.0,0.0,0.0,0.0,0.0,0.0,0.0,0.0,0.0,0.0,0.0,0.0,0.0,0.0,0.0,0.0,0.0,0.0,0.0,0.0,0.0,0.0,0.0,0.0,0.0,0.0,0.0,0.0,0.0,0.0,0.0,0.0,0.0,0.0,0.0,0.0,0.0,0.0,0.0,0.0,0.0,0.0,0.0,0.0,0.0,0.0291,0.0,0.0,0.0,0.0,0.0,0.0,0.0,0.0,0.0,0.0,0.0,0.0,0.0,0.0,0.0,0.0,0.0,0.0,0.0,0.0,0.0,0.0,0.0,0.0,0.0,0.0,0.0,0.0,0.0,0.0,0.0,0.0,0.0,0.0,0.0,0.0,0.0,0.0,0.0,0.0,0.0,0.0,0.0,0.0,0.0,0.0,0.0,0.0,0.0,0.0,0.0,0.0,0.0,0.0,0.0,0.0,0.0,0.0,0.0,0.0,0.0,0.0,0.0,0.0,0.0,0.0,0.0,0.0,0.0,0.0,0.0,0.0,0.0,0.0,0.0,0.0,0.0,0.0,0.0,0.0,0.0,0.0,0.0,0.0,0.0,0.0,0.0,0.0,0.0,0.0,0.0,0.0,0.0,0.0,0.0,0.0,0.0,0.0,0.0,0.0,0.0,0.0,0.0,0.0,0.0,0.0,0.0,0.0,0.0,0.0,0.0,0.0,0.0,0.1113,0.0385,0.0,0.0,0.0,0.0,0.0,0.0,0.0,0.0,0.0,0.0,0.0,0.0,0.0,0.0,0.0,0.0,0.0,0.0,0.0,0.0,0.0,0.0,0.0,0.0,0.0,0.0,0.0,0.0,0.0,0.0,0.0,0.0,0.0,0.0,0.0,0.0,0.0,0.0,0.0,0.0,0.0,0.0,0.0,0.0,0.0,0.0,0.0,0.0,0.0,0.0,0.0,0.0,0.0,0.0,0.0,0.0,0.0,0.0,0.0,0.0,0.0,0.0,0.0,0.0,0.0,0.0,0.0,0.0,0.0,0.0,0.0,0.0,0.0,0.0,0.0,0.0,0.0,0.0,0.0,0.0,0.0,0.0,0.0,0.0,0.0,0.0,0.0,0.0,0.0,0.0,0.0,0.0,0.0,0.0,0.0,0.0,0.0,0.0,0.0,0.0,0.0,0.0,0.0,0.0,0.0,0.0,0.0,0.0,0.0,0.0,0.0,0.0,0.0,0.1297,0.0433,0.0,0.0,0.0,0.0,0.0,0.0,0.0,0.0,0.0,0.0,0.0,0.0,0.0,0.0,0.0,0.0,0.0,0.0,0.0,0.0,0.0,0.0,0.0,0.0,0.0,0.0,0.0,0.0,0.0,0.0,0.0,0.0,0.0,0.0,0.0,0.0,0.0,0.0,0.0,0.0,0.0,0.0,0.0,0.0,0.0,0.0,0.0,0.0,0.0,0.0,0.0,0.0,0.0,0.0,0.0,0.0,0.0,0.0,0.0,0.0,0.0,0.0,0.0,0.0,0.0,0.0,0.0,0.0,0.0,0.0,0.0,0.0,0.0,0.0,0.0,0.0,0.0,0.0,0.0,0.0,0.0,0.0,0.0,0.0,0.0,0.0,0.0,0.0,0.0,0.0,0.0,0.0,0.0,0.0,0.0,0.0,0.0,0.0,0.0,0.0,0.0,0.0,0.0,0.0,0.0,0.0,0.0,0.0,0.0,0.0,0.0,0.0,0.0,0.1215,0.0,0.0097,0.0,0.0,0.0,0.0,0.0,0.0,0.0,0.0,0.0,0.0,0.0,0.0,0.0,0.0,0.0,0.0,0.0,0.0,0.0,0.0,0.0,0.0,0.0,0.0,0.0,0.0,0.0,0.0,0.0,0.0,0.0,0.0,0.0,0.0,0.0,0.0,0.0,0.0,0.0,0.0,0.0,0.0,0.0,0.0,0.0,0.0,0.0,0.0,0.0,0.0,0.0,0.0,0.0,0.0,0.0,0.0,0.0,0.0,0.0,0.0,0.0,0.0,0.0,0.0,0.0,0.0,0.0,0.0,0.0,0.0,0.0,0.0,0.0,0.0,0.0,0.0,0.0,0.0,0.0,0.0,0.0,0.0,0.0,0.0,0.0,0.0,0.0,0.0,0.0,0.0,0.0,0.0,0.0,0.0,0.0,0.0,0.0,0.0,0.0,0.0,0.0,0.0,0.0,0.0,0.0,0.0,0.0,0.0,0.0,0.0,0.0,0.265,0.0808,0.0525,0.0289,0.0,0.0,0.0,0.0,0.0,0.0,0.0,0.0,0.0,0.0,0.0,0.0,0.0,0.0,0.0,0.0,0.0,0.0,0.0,0.0,0.0,0.0,0.0,0.0,0.0,0.0,0.0,0.0,0.0,0.0,0.0,0.0,0.0,0.0,0.0,0.0,0.0,0.0,0.0,0.0,0.0,0.0,0.0,0.0,0.0,0.0,0.0,0.0,0.0,0.0,0.0,0.0,0.0,0.0,0.0,0.0,0.0,0.0,0.0,0.0,0.0,0.0,0.0,0.0,0.0,0.0,0.0,0.0,0.0,0.0,0.0,0.0,0.0,0.0,0.0,0.0,0.0,0.0,0.0,0.0,0.0,0.0,0.0,0.0,0.0,0.0,0.0,0.0,0.0,0.0,0.0,0.0,0.0,0.0,0.0,0.0,0.0,0.0,0.0,0.0,0.0,0.0,0.0,0.0,0.0,0.0,0.0,0.0,0.0,0.0,0.0,0.0,0.1286,0.0676,0.0342,0.0245,0.0096,0.0,0.0,0.0,0.0,0.0,0.0,0.0,0.0,0.0,0.0,0.0,0.0,0.0,0.0,0.0,0.0,0.0,0.0,0.0,0.0,0.0,0.0,0.0,0.0,0.0,0.0,0.0,0.0,0.0,0.0,0.0,0.0,0.0,0.0,0.0,0.0,0.0,0.0,0.0,0.0,0.0,0.0,0.0,0.0,0.0,0.0,0.0,0.0,0.0,0.0,0.0,0.0,0.0,0.0,0.0,0.0,0.0,0.0,0.0,0.0,0.0,0.0,0.0,0.0,0.0,0.0,0.0,0.0,0.0,0.0,0.0,0.0,0.0,0.0,0.0,0.0,0.0,0.0,0.0,0.0,0.0,0.0,0.0,0.0,0.0,0.0,0.0,0.0,0.0,0.0,0.0,0.0,0.0,0.0,0.0,0.0,0.0,0.0,0.0,0.0,0.0,0.0,0.0,0.0,0.0,0.0,0.0,0.0,0.0,0.0,0.2335,0.1331,0.0747,0.0602,0.0391,0.0237,0.0182,0.0,0.0,0.0,0.0,0.0,0.0,0.0,0.0,0.0,0.0,0.0,0.0,0.0,0.0,0.0,0.0,0.0,0.0,0.0,0.0,0.0,0.0,0.0,0.0,0.0,0.0,0.0,0.0,0.0,0.0,0.0,0.0,0.0,0.0,0.0,0.0,0.0,0.0,0.0,0.0,0.0,0.0,0.0,0.0,0.0,0.0,0.0,0.0,0.0,0.0,0.0,0.0,0.0,0.0,0.0,0.0,0.0,0.0,0.0,0.0,0.0,0.0,0.0,0.0,0.0,0.0,0.0,0.0,0.0,0.0,0.0,0.0,0.0,0.0,0.0,0.0,0.0,0.0,0.0,0.0,0.0,0.0,0.0,0.0,0.0,0.0,0.0,0.0,0.0,0.0,0.0,0.0,0.0,0.0,0.0,0.0,0.0,0.0,0.0,0.0,0.0,0.0,0.0,0.0,0.0,0.0,0.0,0.0,0.3681,0.2431,0.1483,0.0985,0.0851,0.0723,0.0,0.0,0.0,0.0,0.0,0.0,0.0,0.0,0.0,0.0,0.0,0.0,0.0,0.0,0.0,0.0,0.0,0.0,0.0,0.0,0.0,0.0,0.0,0.0,0.0,0.0,0.0,0.0,0.0,0.0,0.0,0.0,0.0,0.0,0.0,0.0,0.0,0.0,0.0,0.0,0.0,0.0,0.0,0.0,0.0,0.0,0.0,0.0,0.0,0.0,0.0,0.0,0.0,0.0,0.0,0.0,0.0,0.0,0.0,0.0,0.0,0.0,0.0,0.0,0.0,0.0,0.0,0.0,0.0,0.0,0.0,0.0,0.0,0.0,0.0,0.0,0.0,0.0,0.0,0.0,0.0,0.0,0.0,0.0,0.0,0.0,0.0,0.0,0.0,0.0,0.0,0.0,0.0,0.0,0.0,0.0,0.0,0.0,0.0,0.0,0.0,0.0,0.0,0.0,0.0,0.0,0.0,0.0,0.0,0.4314,0.3851,0.2967,0.1557,0.1252,0.102,0.0,0.0,0.0,0.0,0.0,0.0,0.0,0.0,0.0,0.0,0.0,0.0,0.0,0.0,0.0,0.0,0.0,0.0,0.0,0.0,0.0,0.0,0.0,0.0,0.0,0.0,0.0,0.0,0.0,0.0,0.0,0.0,0.0,0.0,0.0,0.0,0.0,0.0,0.0,0.0,0.0,0.0,0.0,0.0,0.0,0.0,0.0,0.0,0.0,0.0,0.0,0.0,0.0,0.0,0.0,0.0,0.0,0.0,0.0,0.0,0.0,0.0,0.0,0.0,0.0,0.0,0.0,0.0,0.0,0.0,0.0,0.0,0.0,0.0,0.0,0.0,0.0,0.0,0.0,0.0,0.0,0.0,0.0,0.0,0.0,0.0,0.0,0.0,0.0,0.0,0.0,0.0,0.0,0.0,0.0,0.0,0.0,0.0,0.0,0.0,0.0,0.0,0.0,0.0,0.0,0.0,0.0,0.0,0.5752,0.5279,0.5056,0.4325,0.3074,0.2407,0.173,0.0,0.0,0.0,0.0,0.0,0.0,0.0,0.0,0.0,0.0,0.0,0.0,0.0,0.0,0.0,0.0,0.0,0.0,0.0,0.0,0.0,0.0,0.0,0.0,0.0,0.0,0.0,0.0,0.0,0.0,0.0,0.0,0.0,0.0,0.0,0.0,0.0,0.0,0.0,0.0,0.0,0.0,0.0,0.0,0.0,0.0,0.0,0.0,0.0,0.0,0.0,0.0,0.0,0.0,0.0,0.0,0.0,0.0,0.0,0.0,0.0,0.0,0.0,0.0,0.0,0.0,0.0,0.0,0.0,0.0,0.0,0.0,0.0,0.0,0.0,0.0,0.0,0.0,0.0,0.0,0.0,0.0,0.0,0.0,0.0,0.0,0.0,0.0,0.0,0.0,0.0,0.0,0.0,0.0,0.0,0.0,0.0,0.0,0.0,0.0,0.0,0.0,0.0,0.0,0.0,0.0,0.0,0.0,0.635,0.6363,0.6063,0.5626,0.5005,0.3799,0.2732,0.0,0.0,0.0,0.0,0.0,0.0,0.0,0.0,0.0,0.0,0.0,0.0,0.0,0.0,0.0,0.0,0.0,0.0,0.0,0.0,0.0,0.0,0.0,0.0,0.0,0.0,0.0,0.0,0.0,0.0,0.0,0.0,0.0,0.0,0.0,0.0,0.0,0.0,0.0,0.0,0.0,0.0,0.0,0.0,0.0,0.0,0.0,0.0,0.0,0.0,0.0,0.0,0.0,0.0,0.0,0.0,0.0,0.0,0.0,0.0,0.0,0.0,0.0,0.0,0.0,0.0,0.0,0.0,0.0,0.0,0.0,0.0,0.0,0.0,0.0,0.0,0.0,0.0,0.0,0.0,0.0,0.0,0.0,0.0,0.0,0.0,0.0,0.0,0.0,0.0,0.0,0.0,0.0,0.0,0.0,0.0,0.0,0.0,0.0,0.0,0.0,0.0,0.0,0.0,0.0,0.0,0.0,0.0,0.7241,0.7001,0.7119,0.6759,0.5778,0.4613,0.3762,0.0,0.0,0.0,0.0,0.0,0.0,0.0,0.0,0.0,0.0,0.0,0.0,0.0,0.0,0.0,0.0,0.0,0.0,0.0,0.0,0.0,0.0,0.0,0.0,0.0,0.0,0.0,0.0,0.0,0.0,0.0,0.0,0.0,0.0,0.0,0.0,0.0,0.0,0.0,0.0,0.0,0.0,0.0,0.0,0.0,0.0,0.0,0.0,0.0196,0.0,0.0,0.0,0.0,0.0,0.0,0.0,0.0,0.0,0.0,0.0,0.0,0.0,0.0,0.0,0.0,0.0,0.0,0.0,0.0,0.0,0.0,0.0,0.0,0.0,0.0,0.0,0.0,0.0,0.0,0.0,0.0,0.0,0.0,0.0,0.0,0.0,0.0,0.0,0.0,0.0,0.0,0.0,0.0,0.0,0.0,0.0,0.0,0.0,0.0,0.0,0.0,0.0,0.0,0.0,0.0,0.0,0.0,0.0,0.751,0.758,0.7627,0.7445,0.6829,0.6031,0.5017,0.0,0.0,0.0,0.0,0.0,0.0,0.0,0.0,0.0,0.0,0.0,0.0,0.0,0.0,0.0,0.0,0.0,0.0,0.0,0.0,0.0,0.0,0.0,0.0,0.0,0.0,0.0,0.0,0.0,0.0,0.0,0.0,0.0,0.0,0.0,0.0,0.0,0.0,0.0,0.0,0.0,0.0,0.0,0.0,0.0,0.0,0.0,0.0,0.0,0.0,0.0,0.0,0.0,0.0,0.0,0.0,0.0,0.0,0.0,0.0,0.0,0.0,0.0,0.0,0.0,0.0,0.0,0.0,0.0,0.0,0.0,0.0,0.0,0.0,0.0,0.0,0.0,0.0,0.0,0.0,0.0,0.0,0.0,0.0,0.0,0.0,0.0,0.0,0.0,0.0,0.0,0.0,0.0,0.0,0.0,0.0,0.0,0.0,0.0,0.0,0.0,0.0,0.0,0.0,0.0,0.0,0.0,0.7538,0.7624,0.8017,0.7955,0.7908,0.7826,0.7327,0.6321,0.4651,0.0,0.0,0.0,0.0,0.0,0.0,0.0,0.0,0.0,0.0,0.0,0.0,0.0,0.0,0.0,0.0,0.0,0.0,0.0,0.0,0.0,0.0,0.0,0.0,0.0,0.0,0.0,0.0,0.0,0.0,0.0,0.0,0.0,0.0,0.0,0.0,0.0,0.0,0.5607,0.5488,0.0,0.0,0.0,0.0,0.0,0.0,0.0,0.0,0.0902,0.0,0.0,0.0,0.0,0.0,0.0,0.0,0.0,0.0,0.0,0.0,0.0,0.0,0.0,0.0,0.0,0.0,0.0,0.0,0.0,0.0,0.0,0.0,0.0,0.0,0.0,0.0,0.0,0.0,0.0,0.0,0.0,0.0,0.0,0.0,0.0,0.0,0.0,0.0,0.0,0.0,0.0,0.0,0.0,0.0,0.0,0.0,0.0,0.0,0.0,0.0,0.0,0.0,0.0,0.0,0.0,0.7675,0.7723,0.7921,0.8244,0.8337,0.8249,0.792,0.7611,0.7085,0.6224,0.0,0.0,0.0,0.0,0.0,0.0,0.0,0.0,0.0,0.0,0.0,0.0,0.0,0.0,0.0,0.0,0.0,0.0,0.0,0.0,0.0,0.0,0.0,0.0,0.0,0.0,0.0,0.0,0.0,0.0,0.0,0.0,0.0,0.0,0.0,0.0,0.0,0.0,0.0,0.5808,0.5727,0.0,0.0,0.0,0.0,0.0,0.0,0.0,0.0,0.0902,0.0,0.0,0.0,0.0,0.0,0.0,0.0,0.0,0.0,0.0,0.0,0.0,0.0,0.0,0.0,0.0,0.0,0.0,0.0,0.0,0.0,0.0,0.0,0.0,0.0,0.0,0.0,0.0,0.0,0.0,0.0,0.0,0.0,0.0,0.0,0.0,0.0,0.0,0.0,0.0,0.0,0.0,0.0,0.0,0.0,0.0,0.0,0.0,0.0,0.0,0.0,0.0,0.0,0.0,0.0,0.7905,0.8005,0.8223,0.8507,0.8591,0.8491,0.8313,0.8048,0.7705,0.0,0.0,0.0,0.0,0.0,0.0,0.0,0.0,0.0,0.0,0.0,0.0,0.0,0.0,0.0,0.0,0.0,0.0,0.0,0.0,0.0,0.0,0.0,0.0,0.0,0.0,0.0,0.0,0.0,0.0,0.0,0.0,0.0,0.0,0.0,0.0,0.0,0.0,0.0,0.0,0.5925,0.5858,0.5769,0.0,0.0,0.0,0.0,0.0,0.0,0.2536,0.1758,0.0,0.0,0.0,0.0,0.0,0.0,0.0,0.0,0.0,0.0,0.0,0.0,0.0,0.0,0.0,0.0,0.0,0.0,0.0,0.0,0.0,0.0,0.0,0.0,0.0,0.0,0.0,0.0,0.0,0.0,0.0,0.0,0.0,0.0,0.0,0.0,0.0,0.0,0.0,0.0,0.0,0.0,0.0,0.0,0.0,0.0,0.0,0.0,0.0,0.0,0.0,0.0,0.0,0.0,0.0,0.8268,0.8332,0.8512,0.8755,0.8729,0.8726,0.8722,0.8423,0.8103,0.0,0.0,0.0,0.0,0.0,0.0,0.0,0.0,0.0,0.0,0.0,0.0,0.0,0.0,0.0,0.0,0.0,0.0,0.0,0.0,0.0,0.0,0.0,0.0,0.0,0.0,0.0,0.0,0.0,0.0,0.0,0.0,0.0,0.0,0.0,0.0,0.0,0.0,0.0,0.0,0.0,0.5947,0.5901,0.5687,0.0,0.0,0.0,0.0,0.4036,0.3407,0.0,0.0,0.0,0.0,0.0,0.0,0.0,0.0,0.0,0.0,0.0,0.0,0.0,0.0,0.0,0.0,0.0,0.0,0.0,0.0,0.0,0.0,0.0,0.0,0.0,0.0,0.0,0.0,0.0,0.0,0.0,0.0,0.0,0.0,0.0,0.0,0.0,0.0,0.0,0.0,0.0,0.0,0.0,0.0,0.0,0.0,0.0,0.0,0.0,0.0,0.0,0.0,0.0,0.0,0.0,0.0,0.8805,0.8688,0.8842,0.9095,0.8908,0.8805,0.8798,0.8442,0.8168,0.0,0.0,0.0,0.0,0.0,0.0,0.0,0.0,0.0,0.0,0.0,0.0,0.0,0.0,0.0,0.0,0.0,0.0,0.0,0.0,0.0,0.0,0.0,0.0,0.0,0.0,0.0,0.0,0.0,0.0,0.0,0.0,0.0,0.0,0.0,0.0,0.0,0.0,0.0,0.0,0.0,0.609,0.5947,0.5845,0.5758,0.0,0.0,0.0,0.4631,0.4128,0.0,0.0,0.0,0.0,0.0,0.0,0.0,0.0,0.0,0.0,0.0,0.0,0.0,0.0,0.0,0.0,0.0,0.0,0.0,0.0,0.0,0.0,0.0,0.0,0.0,0.0,0.0,0.0,0.0,0.0,0.0,0.0,0.0,0.0,0.0,0.0,0.0,0.0,0.0,0.0,0.0,0.0,0.0,0.0,0.0,0.0,0.0,0.0,0.0,0.0,0.0,0.0,0.0,0.0,0.0,0.9076,0.9471,0.9672,0.9828,0.9854,0.9772,0.9567,0.9316,0.9029,0.8736,0.0,0.0,0.0,0.0,0.0,0.0,0.0,0.0,0.0,0.0,0.0,0.0,0.0,0.0,0.0,0.0,0.0,0.0,0.0,0.0,0.0,0.0,0.0,0.0,0.0,0.0,0.0,0.0,0.0,0.0,0.0,0.0,0.0,0.0,0.0,0.0,0.0,0.0,0.0,0.0,0.0,0.0,0.6647,0.6488,0.0,0.0,0.0,0.5607,0.533,0.0,0.0,0.0,0.0,0.0,0.0,0.0,0.0,0.0,0.0,0.0,0.0,0.0,0.0,0.0,0.0,0.0,0.0,0.0,0.0,0.0,0.0,0.0,0.0,0.0,0.0,0.0,0.0,0.0,0.0,0.0,0.0,0.0,0.0,0.0,0.0,0.0,0.0,0.0,0.0,0.0,0.0,0.0,0.0,0.0,0.0,0.0,0.0,0.0,0.0,0.0,0.0,0.0,0.0,0.0,0.0,0.0,1.0246,1.0674,1.0867,1.093,1.0806,1.0608,1.0214,0.9929,0.0,0.0,0.0,0.0,0.0,0.0,0.0,0.0,0.0,0.0,0.0,0.0,0.0,0.0,0.0,0.0,0.0,0.0,0.0,0.0,0.0,0.0,0.0,0.0,0.0,0.0,0.0,1.0779,0.0,0.0,0.0,0.0,0.0,0.0,0.0,0.0,0.0,0.0,0.0,0.0,0.0,0.0,0.7144,0.7323,0.7045,0.6762,0.0,0.0,0.6155,0.5808,0.5313,0.4761,0.0,0.0,0.0,0.0,0.0,0.0,0.0,0.0,0.0,0.0,0.0,0.0,0.0,0.0,0.0,0.0,0.0,0.0,0.0,0.0,0.0,0.0,0.0,0.0,0.0,0.0,0.0,0.0,0.0,0.0,0.0,0.0,0.0,0.0,0.0,0.0,0.0,0.0,0.0,0.0,0.0,0.0,0.0,0.0,0.0,0.0,0.0,0.0,0.0,0.0,0.0,0.0,0.0,0.0,0.0,1.1192,1.1481,1.1854,1.2247,1.2029,1.1768,1.149,1.1094,1.0546,0.0,0.0,0.0,0.0,0.0,0.0,0.0,0.0,0.0,0.0,0.0,0.0,0.0,0.0,0.0,0.0,0.0,0.0,0.0,0.0,0.0,0.0,0.0,0.0,0.0,0.0,0.0,0.0,0.0,0.0,0.0,0.0,0.0,0.0,0.0,0.0,0.0,0.0,0.0,0.0,0.0,0.753,0.7748,0.7416,0.7086,0.0,0.0,0.646,0.5947,0.5761,0.5399,0.4735,0.0,0.0,0.0,0.0,0.0,0.0,0.0,0.0,0.0,0.0,0.0,0.0,0.0,0.0,0.0,0.0,0.0,0.0,0.0,0.0,0.0,0.0,0.0,0.0,0.0,0.0,0.0,0.0,0.0,0.0,0.0,0.0,0.0,0.0,0.0,0.0,0.0,0.0,0.0,0.0,0.0,0.0,0.0,0.0,0.0,0.0,0.0,0.0,0.0,0.0,0.0,0.0,0.0,1.1648,1.1912,1.2487,1.2905,1.3093,1.3154,1.2899,1.2322,1.2045,1.1462,0.0,0.0,0.0,0.0,0.0,0.0,0.0,0.0,0.0,0.0,0.0,0.0,0.0,0.0,0.0,0.0,0.0,0.0,0.0,0.0,0.0,0.0,0.0,0.0,0.0,0.0,0.0,0.0,1.1117,1.0999,1.0781,0.0,0.0,0.0,0.0,0.0,0.0,0.0,0.0,0.0,0.0,0.8406,0.8583,0.8182,0.0,0.0,0.7073,0.6644,0.626,0.5895,0.5456,0.4935,0.4575,0.0,0.0,0.0,0.0,0.0,0.0,0.0,0.0,0.0,0.0,0.0,0.0,0.0,0.0,0.0,0.0,0.0,0.0,0.0,0.0,0.0,0.0,0.0,0.0,0.0,0.0,0.0,0.0,0.0,0.0,0.0,0.0,0.0,0.0,0.0,0.0,0.0,0.0,0.0,0.0,0.0,0.0,0.0,0.0,0.0,0.0,0.0,0.0,0.0,0.0,0.0,0.0,1.2249,1.2601,1.333,1.3783,1.394,1.4081,1.3813,1.3247,1.2881,1.2342,0.0,0.0,0.0,0.0,0.0,0.0,0.0,0.0,0.0,0.0,0.0,0.0,0.0,0.0,0.0,0.0,0.0,0.0,0.0,0.0,0.0,0.0,0.0,0.0,0.0,0.0,0.0,0.0,1.1117,1.0962,1.0625,0.0,0.0,0.0,0.0,0.0,0.0,0.0,0.0,0.0,0.0,0.9271,0.9392,0.8922,0.8459,0.8142,0.7543,0.6967,0.6546,0.6069,0.5594,0.5061,0.0,0.0,0.0,0.0,0.0,0.0,0.0,0.0,0.0,0.0,0.0,0.0,0.0,0.0,0.0,0.0,0.0,0.0,0.0,0.0,0.0,0.0,0.0,0.0,0.0,0.0,0.0,0.0,0.0,0.0,0.0,0.0,0.0,0.0,0.0,0.0,0.0,0.0,0.0,0.0,0.0,0.0,0.0,0.0,0.0,0.0,0.0,0.0,0.0,0.0,0.0,0.0,0.0,0.0,1.3259,1.3838,1.4352,1.4929,1.471,1.4431,1.4173,1.3736,1.325,1.2643,0.0,0.0,0.0,0.0,0.0,0.0,0.0,0.0,0.0,0.0,0.0,0.0,0.0,0.0,0.0,0.0,0.0,0.0,0.0,0.0,0.0,0.0,0.0,0.0,0.0,0.0,1.1111,1.1117,1.1037,0.0,0.0,0.0,0.0,0.0,0.0,0.0,0.0,0.0,0.0,1.0098,1.0009,1.0161,0.9768,0.9237,0.8664,0.8185,0.7583,0.6743,0.6304,0.5868,0.0,0.0,0.0,0.0,0.0,0.0,0.0,0.0,0.0,0.0,0.0,0.0,0.0,0.0,0.0,0.0,0.0,0.0,0.0,0.0,0.0,0.0,0.0,0.0,0.0,0.0,0.0,0.0,1.7123,0.0,0.0,0.0,0.0,0.0,0.0,0.0,0.0,0.0,0.0,0.0,1.7539,1.7582,0.0,0.0,0.0,0.0,0.0,0.0,0.0,0.0,0.0,0.0,0.0,0.0,1.3223,1.3666,1.4404,1.4952,1.5106,1.5221,1.5129,1.4882,1.4556,1.3874,1.2879,0.0,0.0,0.0,0.0,0.0,0.0,0.0,0.0,0.0,0.0,0.0,0.0,0.0,0.0,0.0,0.0,0.0,0.0,0.0,0.0,0.0,0.0,0.0,0.0,0.0,1.1446,0.0,0.0,0.0,0.0,0.0,0.0,0.0,0.0,0.0,0.0,0.0,1.0626,1.0733,1.0726,1.0636,1.0537,1.0226,0.9807,0.0,0.0,0.0,0.0,0.0,0.0,0.0,0.0,0.0,0.0,0.0,0.0,0.0,0.0,0.3003,0.2167,0.133,0.0539,-0.0206,0.0,0.0,0.0,0.0,0.0,0.0,0.0,0.0,0.0,0.0,0.0,0.0,0.0,0.0,0.0,0.0,1.7763,0.0,0.0,0.0,0.0,0.0,0.0,0.0,0.0,1.8012,1.8489,1.8743,1.8911,1.8704,0.0,1.773,1.6839,0.0,0.0,0.0,0.0,0.0,0.0,0.0,0.0,1.3656,1.4059,1.4912,1.5426,1.5548,1.5566,1.5493,1.5289,1.4955,1.4315,1.3393,1.2988,1.2619,0.0,0.0,0.0,0.0,0.0,0.0,0.0,0.0,0.0,0.0,0.0,0.0,0.0,0.0,0.0,0.0,0.0,0.0,0.0,0.0,0.0,0.0,0.0,1.1929,0.0,0.0,0.0,0.0,0.0,0.0,0.0,0.0,0.0,1.1272,1.1294,1.1392,1.1474,1.1472,1.133,1.0961,0.0,0.0,0.0,0.0,0.0,0.0,0.0,0.686,0.6208,0.59,0.5546,0.4962,0.4688,0.4437,0.4116,0.0,0.0,0.2734,0.2041,0.1357,0.0673,0.0084,-0.042,-0.0756,-0.1121,-0.1394,0.0,0.0,0.0,0.0,0.0,0.0,0.0,0.0,1.9842,1.9833,0.0,1.9261,0.0,0.0,0.0,0.0,0.0,0.0,0.0,0.0,1.8904,1.9314,1.9648,1.9665,1.9472,1.9029,1.8787,1.8275,1.7466,1.5834,0.0,0.0,0.0,0.0,0.0,0.0,1.4059,1.4513,1.5323,1.5856,1.6154,1.5748,1.554,1.5483,1.5022,1.4594,1.4333,1.3978,1.367,1.3445,1.3098,0.0,0.0,0.0,0.0,0.0,0.0,0.0,0.0,0.0,0.0,0.0,0.0,0.0,0.0,0.0,0.0,0.0,0.0,0.0,0.0,1.2753,0.0,0.0,0.0,0.0,0.0,0.0,0.0,0.0,0.0,0.0,1.2113,1.2157,1.2317,1.243,0.0,0.0,0.0,0.0,1.1106,1.0404,0.9941,0.9462,0.9008,0.8268,0.7614,0.714,0.0,0.0,0.5251,0.5012,0.4822,0.4563,0.4416,0.4007,0.3057,0.2654,0.2248,0.1567,0.1098,0.0674,0.0211,-0.0421,-0.0959,2.2266,0.0,0.0,0.0,0.0,2.0442,2.0786,2.1215,2.0992,2.1114,2.1419,2.088,0.0,0.0,0.0,0.0,0.0,0.0,1.9819,1.9802,2.0661,2.1122,2.1243,2.12,2.0784,2.0147,1.9765,1.9164,1.8364,1.742,1.648,1.5548,0.0,0.0,0.0,0.0,1.4562,1.4963,1.5615,1.6042,1.6099,1.6023,1.594,1.594,1.5585,1.5296,1.5028,1.45,1.4181,1.4043,1.3726,0.0,0.0,0.0,0.0,0.0,0.0,0.0,0.0,0.0,0.0,0.0,0.0,0.0,0.0,0.0,0.0,0.0,0.0,0.0,1.3905,1.376,1.355,0.0,0.0,0.0,0.0,0.0,0.0,0.0,0.0,0.0,1.392,1.3672,1.3444,0.0,0.0,1.2881,1.2192,1.21,1.1787,1.0937,0.0,0.0,0.0,0.9112,0.8692,0.8162,0.7389,0.662,0.6098,0.5733,0.5409,0.5188,0.4947,0.4601,0.4003,0.3375,0.2834,0.2291,0.1804,0.1365,0.0879,0.0215,-0.0336,2.3887,2.2446,2.1759,2.1451,2.1504,2.1793,2.2159,2.2519,2.2376,2.2448,2.2682,2.2149,2.1777,2.1443,2.13,0.0,0.0,0.0,2.1125,2.1224,2.1951,2.2322,2.2347,2.216,2.1693,2.0973,2.0479,1.9876,1.917,1.8587,1.7917,1.7101,0.0,0.0,1.5065,1.5301,1.5569,1.5935,1.6525,1.6861,1.6861,1.6779,1.6689,1.6607,1.6468,1.6293,1.6123,1.5505,1.515,1.5092,1.4631,1.4438,0.0,0.0,0.0,0.0,0.0,0.0,0.0,0.0,0.0,0.0,0.0,1.5947,0.0,0.0,0.0,0.0,1.5294,1.5152,1.4911,1.4661,0.0,0.0,0.0,0.0,0.0,0.0,0.0,1.3586,1.4238,1.4828,1.5196,1.527,1.501,1.4441,1.4097,1.3682,1.2997,0.0,1.2523,1.1694,1.1454,1.115,1.0406,1.0034,0.9598,0.8942,0.8109,0.7448,0.701,0.652,0.6062,0.5758,0.5434,0.5068,0.4676,0.4059,0.3473,0.29,0.2449,0.2039,0.1461,0.0819,0.021,2.5345,2.4515,2.3428,2.2916,2.2969,2.3363,2.358,2.3624,2.3841,2.3797,2.3637,2.3238,2.3028,2.2894,2.2487,0.0,0.0,2.2154,2.2247,2.2591,2.2842,2.2975,2.3061,2.2679,2.2133,2.1438,2.091,2.0389,1.9902,1.9409,1.9126,1.9079,1.7224,1.6289,1.6207,1.6517,1.6835,1.7203,1.7738,1.8072,1.804,1.7861,1.7683,1.7431,1.7439,1.7414,1.7364,1.6724,1.635,1.6363,1.5685,1.5409,1.5587,0.0,0.0,0.0,0.0,0.0,0.0,0.0,0.0,0.0,0.0,0.0,0.0,0.0,0.0,0.0,1.5982,0.0,1.5868,1.5515,0.0,0.0,0.0,1.4374,1.4238,1.4201,1.4238,1.4374,0.0,0.0,0.0,0.0,1.6635,1.561,1.5115,1.4559,1.3915,1.3639,1.3258,1.2601,1.2272,1.196,1.138,1.0861,1.0244,0.9477,0.8725,0.8186,0.788,0.7271,0.6746,0.6374,0.5921,0.5462,0.5134,0.4671,0.4164,0.3447,0.3028,0.2602,0.1947,0.1318,0.0749,2.5735,2.5513,2.472,2.4186,2.3894,2.4153,2.4358,2.4562,2.4775,2.4861,2.4797,2.4692,2.4451,2.4054,2.3613,2.3465,2.3496,2.3618,2.3526,2.3278,2.3328,2.3181,2.2866,2.26,2.2065,2.1317,2.1129,2.0659,1.9912,1.9769,1.9561,1.925,1.8462,1.7715,1.7045,1.7179,1.7342,1.7439,1.8153,1.8545,1.8545,1.8465,1.8276,1.7861,1.7852,1.7722,1.7397,1.6919,1.6741,1.6887,1.651,1.6359,1.6542,1.61,0.0,0.0,0.0,0.0,0.0,0.0,0.0,0.0,0.0,1.676,1.6769,0.0,1.6691,0.0,1.6508,1.6429,1.6394,1.6193,0.0,0.0,1.5586,1.5444,1.5374,1.5133,1.4991,1.5177,1.5491,1.5732,1.577,1.6171,1.6372,1.61,1.5913,1.5582,1.5061,1.4643,1.4146,1.3529,1.319,1.2759,1.1967,1.1114,1.0445,0.9856,0.9188,0.8684,0.8438,0.7731,0.7129,0.701,0.6499,0.6062,0.574,0.5366,0.4834,0.4168,0.3481,0.2837,0.2457,0.1749,0.1106,2.6549,2.6296,2.5817,2.5434,2.5084,2.4914,2.4914,2.5031,2.5158,2.52,2.52,2.52,2.5062,2.4796,2.453,2.4337,2.4198,2.429,2.407,2.3649,2.3514,2.3289,2.292,2.2524,2.205,2.1481,2.1283,2.0958,2.0508,2.0498,2.0382,2.0138,1.9432,1.886,1.8315,1.7944,1.7962,1.8291,1.8951,1.9222,1.9253,1.9049,1.8809,1.859,1.8417,1.8226,1.7998,1.7597,1.7405,1.7522,1.718,1.7097,1.7235,1.6876,1.6614,0.0,0.0,0.0,0.0,0.0,0.0,0.0,0.0,0.0,0.0,0.0,1.7151,0.0,1.7072,0.0,1.7003,1.683,1.6621,1.6482,1.6263,1.6114,1.6061,1.5842,1.5709,1.585,1.6069,1.6255,1.6235,1.6529,1.6683,1.6683,1.6493,1.607,1.5453,1.505,1.4565,1.3818,1.362,1.3218,1.2359,1.1532,1.0875,1.0511,0.9938,0.9404,0.9082,0.8386,0.7794,0.7519,0.7045,0.6529,0.6155,0.5733,0.5243,0.4718,0.407,0.3394,0.2726,0.2197,0.1723,2.7363,2.6942,2.6725,2.6436,2.6196,2.5611,2.5369,2.5359,2.5369,2.5369,2.5369,2.5369,2.5369,2.5359,2.5305,2.5069,2.4653,2.4548,2.423,2.3783,2.3532,2.3301,2.2967,2.2476,2.2094,2.1827,2.1464,2.131,2.1282,2.1244,2.1244,2.1165,2.0152,1.964,1.9594,1.8715,1.8602,1.9355,1.9715,1.9905,1.9895,1.9506,1.9269,1.9203,1.8871,1.8689,1.8623,1.8307,1.8142,1.8123,1.7798,1.7691,1.7808,1.747,1.7323,0.0,1.7076,0.0,0.0,0.0,0.0,0.0,0.0,0.0,0.0,1.7573,1.7573,1.7573,1.7573,1.7573,1.7573,1.7382,1.7176,1.7038,1.6821,1.6647,1.6491,1.6447,1.6412,1.6377,1.667,1.6874,1.6793,1.6956,1.7083,1.7011,1.673,1.6229,1.5524,1.5227,1.4838,1.3999,1.3729,1.3343,1.2693,1.1982,1.1425,1.1198,1.0618,1.0134,0.9657,0.9102,0.8541,0.7999,0.7561,0.7079,0.6549,0.6103,0.567,0.5215,0.4792,0.4112,0.3094,0.2673,0.2318,2.7644,2.7188,2.6783,2.6557,2.6509,2.6385,2.6343,2.6354,2.6343,2.6343,2.6343,2.6343,2.6354,2.631,2.5891,2.5617,2.5529,2.477,2.4176,2.3709,2.336,2.2963,2.2516,2.2431,2.2237,2.2036,2.1953,2.1845,2.1703,2.154,2.1436,2.1405,2.0347,1.9841,0.0,0.0,0.0,0.0,1.9886,1.9887,1.9868,1.9517,1.9093,1.8753,1.8666,0.0,1.8365,1.8311,1.833,1.8432,1.8353,0.0,0.0,0.0,0.0,0.0,0.0,0.0,0.0,0.0,0.0,0.0,1.8533,1.8371,1.7949,1.7906,1.7906,1.7915,1.7906,1.7915,1.7906,1.7716,1.7569,1.7535,1.7417,1.7323,1.7263,1.7107,1.6968,1.6804,1.6719,1.658,1.651,1.6457,1.6501,1.6537,1.6422,1.6208,1.5777,1.5595,1.5358,1.5011,1.4086,1.3369,1.3171,1.2291,1.1658,1.1338,1.0845,1.0329,0.9925,0.9496,0.9029,0.8582,0.8193,0.7765,0.7338,0.6938,0.6437,0.586,0.5395,0.482,0.3783,0.3263,0.286,2.7972,0.0,2.7385,2.7272,0.0,2.7231,2.7231,2.7231,2.6768,2.6603,2.6603,2.6603,2.6603,2.6569,2.6046,2.5688,2.5441,2.4675,2.41,2.3636,2.3335,2.3091,2.2852,2.274,2.2665,2.2553,2.2553,2.244,2.2252,2.2138,2.2025,2.1901,2.1124,2.0684,2.0684,2.035,2.0198,2.0232,2.0222,2.0195,2.0175,1.9806,1.938,1.8918,0.0,0.0,0.0,0.0,0.0,0.0,0.0,0.0,0.0,0.0,0.0,1.8217,1.8395,1.8461,1.8362,1.8428,1.8662,1.9021,1.9241,1.9142,1.8687,1.8607,1.8563,1.862,1.8573,1.8539,1.8539,1.8361,1.8182,1.8104,1.7988,1.7872,1.7735,1.7579,1.7407,1.7304,1.7141,1.7003,1.6899,1.6795,1.6751,1.6716,1.6577,1.6403,1.6193,1.5889,1.5552,1.5062,1.429,1.3644,1.3377,1.2827,1.2194,1.1861,1.1453,1.0925,1.0443,1.0105,0.9728,0.9165,0.8827,0.8522,0.7906,0.7557,0.7134,0.6556,0.6057,0.5595,0.4813,0.4031,0.3329,2.8314,2.825,2.8098,2.8002,2.8014,2.8002,2.8002,2.7962,0.0,0.0,0.0,2.685,2.685,2.6816,2.6158,2.5662,2.5283,2.463,2.4134,2.3762,2.3556,2.3446,2.3409,2.3224,2.315,2.3113,2.3113,2.3038,2.2852,2.2815,2.266,2.2403,2.1903,2.1638,2.1638,2.1466,2.1297,2.1036,2.0778,2.0616,2.0606,2.0228,1.9813,1.9449,1.9333,1.9146,1.8839,1.8882,1.8975,1.9031,1.9198,1.9198,1.9042,1.9164,1.9131,1.8831,1.9108,1.9198,1.9031,1.9198,1.9341,1.9483,1.9835,1.9868,1.9464,1.933,1.932,1.9431,1.9353,1.9264,1.9241,1.9075,1.8865,1.8687,1.8519,1.8371,1.8178,1.7998,1.7886,1.7818,1.7691,1.7642,1.7573,1.7417,1.7339,1.7304,1.7063,1.6777,1.6647,1.6167,1.5589,1.4956,1.4524,1.4116,1.3746,1.339,1.2973,1.2526,1.2114,1.1632,1.1111,1.0781,1.0331,0.9657,0.9468,0.9094,0.8479,0.8131,0.7787,0.7249,0.6753,0.6331,0.5822,0.4888,0.3988,2.8812,2.8458,2.8427,2.8431,2.8443,2.8431,2.8431,2.8351,2.7921,2.7719,2.7719,2.7719,2.7719,2.7672,2.6663,2.6173,2.6045,2.4987,2.4451,0.0,2.4164,2.397,2.3824,2.3787,2.3677,2.3519,2.3519,2.3494,2.3457,2.3298,2.2978,2.2506,2.2277,2.2208,2.2161,2.2161,2.2342,2.261,2.1628,2.1098,2.1098,2.0664,2.0385,2.0312,1.993,1.983,2.0043,1.9674,1.9627,1.9911,1.9944,1.9944,1.9944,1.9944,1.9944,1.9868,1.9944,1.9933,1.9911,1.9944,2.002,2.0237,2.0475,2.0421,2.0042,1.9966,1.9977,1.9998,1.9966,1.9922,1.9791,1.9605,1.9407,1.9208,1.9065,1.8908,1.8707,1.864,1.8506,1.8269,1.8202,1.81,1.8008,1.794,1.7896,1.7862,1.7647,1.7442,1.7063,1.6351,1.5761,1.5399,1.5043,1.4713,1.4425,1.4173,1.3702,1.3156,1.2746,1.2268,1.1706,1.1298,1.0931,1.04,1.0067,0.969,0.9208,0.8822,0.8437,0.7983,0.745,0.6949,0.6518,0.577,0.4997,2.9034,2.8828,2.8816,2.8816,2.8828,2.8828,2.8816,2.8816,2.863,2.8431,2.8231,2.8243,2.8243,2.8136,2.7112,2.656,2.6422,2.5297,2.473,2.4646,2.4574,2.4454,2.4381,2.4381,2.4345,2.4273,2.4261,2.4189,2.408,2.4007,2.3784,2.346,2.3365,2.3329,2.3329,2.3329,2.3441,2.3618,2.2422,2.182,2.181,2.1715,2.1514,2.1245,2.1088,2.0987,2.0895,2.0501,2.0377,2.0528,2.0635,2.0656,2.0539,2.0635,2.0592,2.0399,2.056,2.0667,2.0539,2.0635,2.0764,2.0935,2.1031,2.1051,2.0967,2.0614,2.0442,2.0539,2.0485,2.0388,2.0335,2.014,2.0009,1.9911,1.9671,1.9506,1.9407,1.9175,1.9019,1.8875,1.8774,1.8707,1.8607,1.8617,1.8539,1.8438,1.8192,1.7876,1.7535,1.7038,1.6482,1.6026,1.5611,1.53,1.4955,1.4633,1.4209,1.3775,1.3339,1.2929,1.2415,1.2009,1.1632,1.1223,1.0812,1.0443,1.0035,0.9539,0.9084,0.8627,0.8102,0.7603,0.713,0.6318,0.5275,2.926,2.926,2.926,2.926,2.926,2.9248,2.9248,2.9248,2.926,2.9091,2.8788,2.8669,2.8618,2.8521,2.7533,2.6937,2.6655,2.5685,2.5147,2.5064,2.504,2.5028,2.5004,2.4969,2.4969,2.4921,2.4921,2.4814,2.4706,2.4658,2.4586,2.4455,2.4338,2.4326,2.4431,2.4442,2.4442,2.4383,2.3464,2.2903,2.2723,2.2867,2.2795,2.2437,2.2295,2.2071,2.1744,2.1285,2.1019,2.1094,2.1233,2.1221,2.1094,2.1233,2.1169,2.0903,2.1126,2.1265,2.1094,2.1233,2.1348,2.1463,2.1463,2.1549,2.1635,2.1244,2.099,2.1042,2.099,2.0894,2.0786,2.0669,2.0529,2.0464,2.0237,2.0064,1.9976,1.9747,1.9539,1.9473,1.9363,1.933,1.9297,1.9308,1.9175,1.8942,1.8674,1.8371,1.8022,1.7784,1.7373,1.683,1.6307,1.5859,1.5488,1.5141,1.4784,1.4425,1.3992,1.3593,1.3185,1.2783,1.2378,1.1966,1.1521,1.1111,1.0743,1.0218,0.969,0.9273,0.8746,0.8237,0.7593,0.6622,0.5528,2.9702,2.9753,2.9714,2.974,2.9702,2.9714,2.9702,2.9714,2.9714,2.9714,2.9598,2.9221,2.9052,2.8905,2.7924,2.7397,2.7323,2.6283,2.5805,2.577,2.5805,2.5688,2.55,2.5512,2.543,2.5276,2.5253,2.5253,2.5218,2.5206,2.5218,2.5146,2.4785,2.4775,2.5146,2.5206,2.5206,2.5206,2.5075,2.4672,2.4084,2.4047,2.4024,2.3979,2.3109,2.2684,2.2703,2.1835,2.1443,2.1592,2.1667,2.1667,2.1635,2.1667,2.1635,2.1604,2.1635,2.1635,2.1635,2.1635,2.1667,2.1667,2.1667,2.1698,2.1698,2.1667,2.1604,2.1604,2.1604,2.1434,2.1201,2.1138,2.101,2.0765,2.0669,2.0572,2.0399,2.0302,2.0237,2.0053,2.002,1.9998,1.9987,1.9868,1.9671,1.9374,1.9241,1.9042,1.8707,1.8486,1.8259,1.7784,1.7132,1.6542,1.6228,1.5929,1.5505,1.5133,1.4589,1.4238,1.3912,1.3404,1.282,1.2783,1.2157,1.1632,1.1292,1.085,1.0293,0.9879,0.941,0.8883,0.7985,0.705,0.6137,2.9779,2.9779,2.9779,2.9779,2.9779,2.9779,2.9779,2.9779,2.9779,2.9779,2.9779,2.9585,2.9495,2.9433,2.8338,2.7804,2.7619,2.6579,2.6015,2.5923,2.5923,2.5875,2.5793,2.5758,2.5723,2.5641,2.5653,2.5641,2.5653,2.5641,2.5653,2.5629,2.5456,2.5481,2.5629,2.5641,2.5653,2.5653,2.5653,2.5512,2.523,2.5087,2.4862,2.4506,2.3977,2.3481,2.3211,2.2558,2.2192,2.229,2.2278,2.229,2.229,2.229,2.229,2.2278,2.2278,2.2259,2.2123,2.2111,2.2061,2.1999,2.2011,2.2011,2.2011,2.198,2.198,2.198,2.1835,2.1635,2.1498,2.1498,2.1434,2.1288,2.1149,2.0946,2.0882,2.069,2.054,2.0485,2.0453,2.0453,2.0421,2.0302,2.014,1.9944,1.9813,1.9572,1.9308,1.9098,1.8831,1.8506,1.8012,1.7501,1.6959,1.6412,1.6061,1.5806,1.5267,1.4812,1.4669,1.4129,1.3622,1.3586,1.2929,1.2378,1.215,1.1595,1.1074,1.0513,0.9755,0.9105,0.8582,0.7753,0.6967,2.9779,2.9779,2.9779,2.9779,2.9779,2.9779,2.9779,2.9779,2.9779,2.9779,2.9779,2.9779,2.9779,2.9654,2.8762,2.8186,2.7801,2.6918,2.6338,2.6097,2.6084,2.605,2.6084,2.6084,2.605,2.605,2.6037,2.6084,2.6084,2.6084,2.6084,2.605,2.605,2.6084,2.605,2.6084,2.6084,2.6072,2.6037,2.605,2.605,2.5933,2.5536,2.493,2.4504,2.4042,2.3501,2.2973,2.2708,2.2708,2.2708,2.2708,2.2708,2.2708,2.2708,2.2708,2.2708,2.2647,2.2494,2.2482,2.242,2.234,2.234,2.2352,2.2352,2.234,2.234,2.2309,2.2061,2.1886,2.1761,2.1749,2.1761,2.1698,2.1466,2.1328,2.1296,2.1117,2.1001,2.099,2.099,2.0926,2.0882,2.0754,2.0625,2.0496,2.0302,2.0031,1.9846,1.9638,1.9407,1.9075,1.8831,1.8351,1.7579,1.7003,1.6656,1.6342,1.5921,1.5497,1.539,1.4784,1.431,1.4129,1.3586,1.3119,1.2753,1.2268,1.1781,1.1111,1.0357,0.959,0.9166,0.8415,0.7736,2.9779,2.9779,2.9779,2.9779,2.9779,2.9779,2.9779,2.9779,2.9779,2.9779,2.9779,2.9779,2.9779,2.9741,2.9151,2.8574,2.806,2.7519,2.6992,2.6506,2.649,2.6477,2.6452,2.6452,2.6452,2.643,2.6418,2.6418,2.6418,2.6465,2.6487,2.6452,2.6418,2.6452,2.6418,2.6418,2.6452,2.6418,2.643,2.6465,2.6452,2.643,2.5984,2.5096,2.457,2.4062,2.352,2.2991,2.2708,2.2708,2.2708,2.272,2.2708,2.2708,2.2708,2.272,2.2708,2.272,2.269,2.269,2.269,2.2647,2.2659,2.2647,2.2616,2.2616,2.2616,2.2678,2.2463,2.2235,2.1999,2.1906,2.1855,2.1761,2.1698,2.1667,2.1655,2.1592,2.1635,2.1604,2.1572,2.1466,2.1368,2.1242,2.1063,2.0903,2.0754,2.0593,2.0399,2.0194,1.9922,1.9638,1.9341,1.8975,1.8134,1.7613,1.727,1.6968,1.6621,1.6132,1.578,1.5426,1.507,1.4705,1.431,1.3848,1.3339,1.2863,1.2409,1.1781,1.1037,1.0396,0.9787,0.9135,0.8399,2.9779,2.9779,2.9779,2.9779,2.9779,2.9779,2.9779,2.9779,2.9779,2.9779,2.9779,2.9779,2.9779,2.9779,2.9578,2.9164,2.8562,2.8059,2.7519,2.7065,2.6992,2.6839,2.6499,2.6487,2.6487,2.6487,2.6487,2.6487,2.6487,2.6487,2.6487,2.6487,2.6487,2.6487,2.6487,2.6487,2.6487,2.6487,2.6487,2.6487,2.6487,2.6487,2.6004,2.4987,2.4726,2.4202,2.325,2.3039,2.2957,2.2927,2.2969,2.2969,2.2969,2.2957,2.2957,2.2957,2.2969,2.2909,2.286,2.2818,2.28,2.2708,2.2708,2.2708,2.2708,2.2708,2.2708,2.2708,2.2659,2.2525,2.2402,2.2216,2.2073,2.1999,2.1906,2.1843,2.1812,2.1761,2.171,2.171,2.171,2.1667,2.1655,2.1561,2.1498,2.1414,2.1265,2.1094,2.0914,2.0743,2.0474,2.0161,1.9933,1.9627,1.9142,1.8496,1.7978,1.7657,1.7289,1.6899,1.6551,1.6167,1.5806,1.539,1.4999,1.4597,1.4057,1.3302,1.2886,1.2592,1.1818,1.1089,1.0435,0.9828,0.9008,2.9779,2.9779,2.9779,2.9779,2.9779,2.9779,2.9779,2.9779,2.9779,2.9779,2.9779,2.9779,2.9779,2.9779,2.9779,2.9603,2.9176,2.8587,2.8084,2.7557,2.7369,2.708,2.6788,2.6587,2.6487,2.6487,2.6487,2.6487,2.6487,2.6487,2.6487,2.6487,2.6487,2.6487,2.6487,2.6487,2.6487,2.6487,2.6487,2.6487,2.6487,2.6487,2.5937,2.5008,2.48,2.4249,2.3158,2.3095,2.3095,2.3095,2.3095,2.3095,2.3095,2.3095,2.3095,2.3095,2.3138,2.315,2.309,2.309,2.309,2.3,2.2982,2.2982,2.2982,2.2982,2.3012,2.2982,2.2951,2.2921,2.286,2.2678,2.2463,2.2371,2.2235,2.2154,2.2154,2.2092,2.2042,2.2073,2.2073,2.2042,2.1999,2.1968,2.1917,2.1843,2.1663,2.1506,2.136,2.119,2.0967,2.0722,2.0474,2.0215,1.9857,1.9353,1.8677,1.825,1.7988,1.7613,1.721,1.6864,1.6482,1.607,1.5682,1.5248,1.4633,1.3876,1.3477,1.3295,1.2668,1.1893,1.1237,1.0581,0.9733,2.9779,2.9779,2.9779,2.9779,2.9792,2.983,2.9779,2.983,2.983,2.9869,2.9856,2.983,2.9869,2.983,2.9856,2.9805,2.9693,2.9189,2.8674,2.8109,2.7645,2.7356,2.7228,2.6788,2.6537,2.6487,2.6487,2.6487,2.6487,2.6487,2.6487,2.6487,2.6487,2.6487,2.6487,2.6487,2.6487,2.6487,2.6487,2.6487,2.6487,2.6487,2.5963,2.4976,2.4845,2.4318,2.3195,2.312,2.3095,2.3095,2.3108,2.3108,2.3125,2.3138,2.3138,2.3168,2.33,2.336,2.3403,2.348,2.3509,2.3497,2.3569,2.3497,2.348,2.3509,2.3539,2.3509,2.348,2.3403,2.3403,2.3228,2.2987,2.2751,2.2678,2.2678,2.2678,2.2678,2.2708,2.2647,2.2659,2.2678,2.2647,2.2482,2.2359,2.2216,2.2049,2.1894,2.1781,2.1612,2.14,2.1221,2.1031,2.0796,2.0506,2.0183,1.9474,1.8877,1.862,1.8283,1.7784,1.7407,1.7063,1.6682,1.6175,1.5744,1.5382,1.4661,1.423,1.3934,1.3288,1.2725,1.21,1.1414,1.0558,2.9779,2.9779,2.9779,2.9779,2.983,2.9946,3.0011,3.0011,3.0152,3.0228,3.0228,3.0228,3.0228,3.0228,3.0228,3.019,3.0203,3.0012,2.9491,2.8737,2.8473,2.7984,2.7417,2.714,2.6851,2.6549,2.6487,2.6487,2.6487,2.6487,2.6487,2.6487,2.6487,2.6487,2.6521,2.6487,2.6487,2.6487,2.6487,2.6487,2.6487,2.6487,2.6122,2.541,2.5106,2.4583,2.3889,2.3382,2.312,2.3095,2.3241,2.336,2.342,2.3437,2.3437,2.345,2.3509,2.3539,2.3539,2.3586,2.3616,2.3586,2.3616,2.3586,2.3628,2.376,2.3819,2.3819,2.3835,2.3881,2.3881,2.3839,2.3573,2.306,2.2987,2.3,2.3,2.3,2.2957,2.2987,2.2969,2.2969,2.2969,2.2848,2.2726,2.2678,2.2555,2.2402,2.2204,2.2111,2.1975,2.1737,2.1537,2.1336,2.1051,2.0796,2.0334,1.9704,1.9342,1.8921,1.8418,1.8046,1.7706,1.726,1.6751,1.6307,1.5912,1.548,1.5018,1.4669,1.4163,1.3577,1.2991,1.2224,1.1363,2.9972,3.0011,2.9998,3.0011,3.0049,3.0152,3.0228,3.0228,3.033,3.0406,3.0406,3.0406,3.0406,3.0406,3.0406,3.0406,3.0394,3.0482,3.0151,2.958,2.9214,2.8746,2.8075,2.768,2.7249,2.6759,2.6671,2.6705,2.6705,2.6705,2.6705,2.6671,2.6671,2.6705,2.6705,2.6658,2.6705,2.6671,2.6671,2.6658,2.6692,2.6705,2.6405,2.5856,2.5376,2.4861,2.4333,2.3652,2.3288,2.3288,2.342,2.3509,2.3599,2.3586,2.3628,2.3717,2.3789,2.3806,2.3852,2.394,2.3982,2.3982,2.3982,2.3969,2.3998,2.4112,2.4141,2.4171,2.429,2.4363,2.4363,2.4363,2.416,2.3809,2.3526,2.3378,2.3318,2.3348,2.3378,2.342,2.342,2.3378,2.336,2.3271,2.315,2.309,2.3012,2.2878,2.2714,2.2622,2.242,2.2235,2.2037,2.1839,2.162,2.1368,2.1146,2.0624,2.0107,1.9551,1.9021,1.8798,1.8529,1.791,1.7364,1.6994,1.6603,1.6053,1.5559,1.5275,1.5046,1.4422,1.3789,1.2995,1.2191,3.0216,3.0406,3.0394,3.0406,3.0406,3.0444,3.0482,3.0482,3.052,3.0558,3.052,3.0596,3.052,3.052,3.0596,3.0596,3.052,3.0736,3.0798,3.0541,3.0106,2.9634,2.9277,2.8354,2.7648,2.7203,2.7028,2.699,2.6956,2.6943,2.7024,2.6956,2.6943,2.699,2.6956,2.6977,2.6956,2.6956,2.6943,2.6977,2.6977,2.7024,2.6793,2.6301,2.5781,2.5248,2.4695,2.4064,2.3675,2.3628,2.3645,2.3717,2.3688,2.3645,2.3806,2.3966,2.4067,2.4187,2.4347,2.4434,2.4549,2.4563,2.4563,2.462,2.4591,2.4591,2.4607,2.462,2.4763,2.4835,2.4848,2.4848,2.4806,2.4721,2.4245,2.3865,2.3717,2.3848,2.3907,2.392,2.392,2.3949,2.3936,2.3776,2.3628,2.3509,2.345,2.336,2.321,2.309,2.2878,2.2714,2.2561,2.2377,2.2192,2.1963,2.1714,2.1431,2.088,2.0302,1.9682,1.9429,1.9208,1.8586,1.8003,1.7638,1.727,1.6777,1.6438,1.6228,1.5826,1.5261,1.462,1.386,1.3161,3.033,3.0406,3.0571,3.0622,3.0647,3.0911,3.1048,3.1086,3.1211,3.1261,3.1261,3.1299,3.1248,3.1286,3.1261,3.1286,3.1248,3.1336,3.1447,3.1545,3.1412,3.0734,2.9832,2.875,2.8105,2.7877,2.7391,2.7024,2.7024,2.7058,2.7058,2.7024,2.7058,2.7058,2.7024,2.7058,2.7024,2.7024,2.7011,2.7024,2.7058,2.718,2.7183,2.7015,2.6661,2.617,2.5572,2.4787,2.4216,2.3995,2.4073,2.4189,2.4303,2.429,2.4319,2.4419,2.4447,2.452,2.4649,2.4734,2.4791,2.4892,2.4892,2.4892,2.4892,2.5005,2.5033,2.509,2.5188,2.5313,2.5313,2.5313,2.5244,2.5061,2.4706,2.4403,2.4332,2.4361,2.4419,2.4419,2.4419,2.4405,2.4347,2.4261,2.4102,2.4044,2.3969,2.3852,2.3717,2.3599,2.348,2.3271,2.312,2.2939,2.2744,2.2531,2.2304,2.213,2.1651,2.1083,2.0442,1.9857,1.9638,1.9264,1.8654,1.825,1.7978,1.7594,1.7398,1.7097,1.6541,1.5948,1.5541,1.4959,1.4221,3.0823,3.0898,3.1037,3.1112,3.1211,3.1471,3.1582,3.1629,3.1753,3.1803,3.1803,3.1803,3.1803,3.1803,3.1803,3.179,3.1827,3.1913,3.1986,3.2119,3.225,3.1681,3.0646,2.9667,2.9267,2.8929,2.8211,2.7907,2.7829,2.7613,2.7462,2.7482,2.7449,2.7482,2.7482,2.7449,2.7449,2.7496,2.7449,2.7449,2.7482,2.7583,2.7669,2.7617,2.7351,2.6796,2.6008,2.5491,2.5016,2.4585,2.4492,2.4607,2.475,2.4763,2.4778,2.4835,2.4863,2.492,2.506,2.5117,2.5131,2.5188,2.5216,2.5216,2.5216,2.5272,2.5328,2.5328,2.5536,2.5633,2.5674,2.5674,2.5578,2.5425,2.5159,2.4947,2.4791,2.4806,2.4863,2.4863,2.4835,2.4835,2.4835,2.4679,2.4593,2.4507,2.4421,2.4319,2.4229,2.4141,2.4041,2.3835,2.3628,2.345,2.3271,2.3047,2.2805,2.2622,2.2316,2.1788,2.1146,2.0474,2.0183,1.9889,1.932,1.8888,1.8721,1.8442,1.807,1.7672,1.7132,1.6784,1.6405,1.5847,1.5133,3.1485,3.1633,3.1669,3.178,3.1927,3.2,3.2119,3.2164,3.2273,3.2273,3.2273,3.2237,3.2309,3.2237,3.2309,3.2237,3.2273,3.2417,3.2503,3.2682,3.2832,3.2533,3.1781,3.1143,3.0664,3.0142,2.9489,2.91,2.8832,2.8432,2.8225,2.8139,2.8112,2.8112,2.8079,2.8112,2.8145,2.8112,2.8079,2.8079,2.8079,2.8145,2.8216,2.822,2.7863,2.7284,2.6617,2.6188,2.5858,2.5099,2.4946,2.4962,2.5033,2.5061,2.5118,2.5216,2.5258,2.5328,2.5522,2.5578,2.5578,2.5592,2.5605,2.5578,2.5592,2.5619,2.5647,2.5647,2.5798,2.5893,2.5935,2.5948,2.5893,2.5784,2.5633,2.5439,2.523,2.5216,2.5244,2.523,2.5202,2.523,2.5202,2.5118,2.5005,2.492,2.4863,2.4791,2.4677,2.4591,2.4463,2.4334,2.4115,2.3936,2.3747,2.3569,2.333,2.309,2.2818,2.2347,2.1776,2.121,2.0892,2.0463,1.9998,1.9748,1.9627,1.9287,1.8777,1.8408,1.7969,1.7706,1.7375,1.6622,1.5879,3.1877,3.1996,3.2178,3.225,3.2345,3.261,3.2775,3.281,3.2988,3.3023,3.3023,3.3058,3.3023,3.3023,3.3023,3.3058,3.3023,3.3094,3.3178,3.3347,3.3556,3.3618,3.3058,3.2319,3.1618,3.1157,3.0473,2.9903,2.951,2.9327,2.8969,2.8603,2.8582,2.849,2.8522,2.8522,2.849,2.849,2.849,2.849,2.8554,2.8605,2.8675,2.8684,2.8412,2.8227,2.7933,2.7182,2.6665,2.6428,2.5855,2.5466,2.5397,2.5425,2.5481,2.5564,2.5619,2.5702,2.5893,2.5962,2.6016,2.6071,2.6058,2.6125,2.6125,2.6098,2.6098,2.6125,2.6179,2.6192,2.6233,2.6218,2.6165,2.6111,2.6098,2.6071,2.5989,2.5661,2.5481,2.5453,2.5453,2.5425,2.5453,2.5453,2.5397,2.5341,2.5285,2.5257,2.5145,2.5018,2.4892,2.475,2.4607,2.4419,2.4261,2.4044,2.378,2.3556,2.3288,2.3,2.2427,2.1994,2.1639,2.123,2.072,2.0539,2.0377,1.99,1.9363,1.9088,1.8811,1.8476,1.8049,1.7335,1.668,3.2467,3.2561,3.2739,3.2881,3.2966,3.3178,3.3333,3.3437,3.3542,3.3577,3.3577,3.3591,3.3591,3.3591,3.3577,3.3597,3.3701,3.3805,3.3922,3.4074,3.4225,3.4259,3.423,3.3582,3.2978,3.2479,3.173,3.1177,3.0812,3.0259,2.9822,2.9486,2.9219,2.9113,2.9067,2.9067,2.9099,2.9099,2.9067,2.9067,2.9099,2.9149,2.9216,2.9265,2.9206,2.9151,2.8817,2.8335,2.7712,2.7187,2.6651,2.6161,2.5895,2.5867,2.5907,2.5948,2.5975,2.6029,2.6152,2.6192,2.6233,2.6299,2.6313,2.6313,2.6313,2.6313,2.6313,2.6313,2.6353,2.6418,2.6527,2.6433,2.6406,2.6379,2.634,2.6313,2.626,2.6016,2.5867,2.5867,2.588,2.588,2.5867,2.5812,2.573,2.5688,2.5633,2.5578,2.5411,2.5285,2.5257,2.5131,2.5033,2.4892,2.4736,2.4494,2.4205,2.4002,2.3809,2.3526,2.3125,2.2763,2.2457,2.1932,2.1356,2.1135,2.0912,2.041,2.0064,1.9889,1.9606,1.921,1.8803,1.8308,1.7582,3.3108,3.3129,3.3318,3.3507,3.3675,3.3695,3.3848,3.3985,3.4054,3.4074,3.4054,3.4054,3.4088,3.4088,3.4074,3.4128,3.423,3.4366,3.4515,3.4616,3.4664,3.465,3.4635,3.4491,3.4211,3.3742,3.3038,3.2645,3.2173,3.1509,3.0908,3.0556,3.0119,2.9802,2.9721,2.9665,2.9634,2.9602,2.9665,2.9665,2.9696,2.9713,2.9837,2.9931,3.0025,2.9947,2.9663,2.9289,2.8814,2.7794,2.7535,2.712,2.6734,2.6328,2.634,2.6299,2.6299,2.634,2.6394,2.6394,2.6394,2.6353,2.6394,2.6394,2.6379,2.642,2.642,2.6447,2.6513,2.6592,2.6738,2.6659,2.6551,2.6525,2.6433,2.6394,2.6367,2.6367,2.634,2.626,2.6179,2.6125,2.6179,2.6152,2.6098,2.6029,2.5975,2.5893,2.5702,2.5605,2.5619,2.555,2.5453,2.53,2.5118,2.4935,2.4637,2.4494,2.4334,2.4073,2.3793,2.3543,2.3143,2.25,2.2025,2.1808,2.1526,2.1115,2.0828,2.0667,2.0313,1.9846,1.9561,1.9297,1.8516,3.3605,3.3744,3.3779,3.3868,3.404,3.421,3.4346,3.4563,3.4635,3.4735,3.4716,3.4735,3.4683,3.4702,3.4735,3.4735,3.4721,3.4802,3.485,3.4902,3.4916,3.4916,3.4902,3.4916,3.4769,3.462,3.4182,3.3701,3.3207,3.2834,3.2065,3.124,3.0897,3.0608,3.0221,3.0019,3.008,3.0097,3.0158,3.0219,3.0205,3.0326,3.0417,3.0538,3.0612,3.0629,3.0602,3.0221,2.9839,2.956,2.8632,2.8106,2.762,2.6895,2.6545,2.6498,2.6525,2.6592,2.6686,2.6727,2.6727,2.6727,2.6686,2.67,2.67,2.67,2.6659,2.6674,2.67,2.6753,2.6779,2.6753,2.6753,2.6727,2.67,2.6674,2.6674,2.6674,2.658,2.6447,2.6367,2.634,2.6394,2.642,2.6367,2.6313,2.6286,2.6218,2.6084,2.6043,2.6043,2.5989,2.5893,2.5661,2.5453,2.5258,2.5076,2.4991,2.4821,2.4622,2.4392,2.4247,2.3826,2.3203,2.2702,2.2365,2.2056,2.1714,2.1494,2.1305,2.0892,2.0453,2.028,2.0063,1.9276,3.4108,3.4327,3.4395,3.4433,3.452,3.4601,3.4702,3.4817,3.4868,3.4902,3.4902,3.4902,3.4902,3.4902,3.4902,3.4968,3.5049,3.518,3.5213,3.5213,3.5213,3.5213,3.518,3.518,3.5213,3.5148,3.5001,3.4651,3.4086,3.3736,3.3205,3.2652,3.1995,3.1382,3.1077,3.0786,3.064,3.0641,3.0687,3.0702,3.0702,3.0821,3.0881,3.0955,3.0955,3.1028,3.0984,3.0837,3.0438,3.004,2.9494,2.8887,2.826,2.773,2.7152,2.6972,2.6855,2.6867,2.6974,2.7,2.7,2.7015,2.7,2.6963,2.691,2.6884,2.6899,2.682,2.6794,2.6794,2.6794,2.6806,2.6794,2.6794,2.6806,2.6806,2.682,2.6873,2.6779,2.6647,2.6647,2.6647,2.6621,2.6621,2.6606,2.658,2.6568,2.6527,2.6445,2.6406,2.6394,2.6286,2.6179,2.6029,2.5825,2.5661,2.5508,2.5425,2.5314,2.5118,2.4935,2.4751,2.4436,2.3959,2.3501,2.3095,2.2622,2.2304,2.2118,2.1901,2.1526,2.1178,2.1083,2.0742,1.9999,3.4582,3.475,3.485,3.4935,3.4935,3.4968,3.4968,3.5016,3.5049,3.5034,3.5049,3.5049,3.5034,3.5049,3.5034,3.51,3.5294,3.5424,3.5457,3.5472,3.5472,3.5457,3.5489,3.5489,3.5457,3.5424,3.5407,3.5326,3.4868,3.4478,3.4186,3.3635,3.2768,3.2267,3.2104,3.1557,3.1397,3.1264,3.1161,3.1146,3.1176,3.1176,3.1205,3.1205,3.1176,3.119,3.119,3.1131,3.0923,3.0568,3.0168,2.9724,2.8865,2.8539,2.8228,2.7758,2.741,2.7222,2.7192,2.7167,2.7141,2.7155,2.7167,2.7144,2.7067,2.7015,2.7029,2.691,2.6884,2.691,2.6937,2.6884,2.6884,2.691,2.691,2.6884,2.6937,2.6989,2.7067,2.6989,2.6977,2.6966,2.698,2.6884,2.6896,2.6896,2.687,2.6843,2.6777,2.6671,2.6633,2.6527,2.6447,2.6353,2.6192,2.6043,2.5893,2.5839,2.5702,2.5536,2.5397,2.5216,2.4893,2.458,2.4363,2.3927,2.3395,2.2927,2.2732,2.2488,2.2149,2.1901,2.1796,2.146,2.0811,3.4868,3.4883,3.4902,3.5001,3.5148,3.5148,3.5246,3.5392,3.5392,3.5424,3.5359,3.5392,3.5392,3.5392,3.5392,3.5439,3.5472,3.5472,3.5489,3.5489,3.5489,3.5489,3.5489,3.5489,3.5489,3.5489,3.5489,3.5392,3.5184,3.5047,3.467,3.4132,3.3866,3.3478,3.2905,3.2314,3.1913,3.1855,3.1516,3.1351,3.1424,3.1409,3.1409,3.1424,3.1453,3.1424,3.1395,3.138,3.1304,3.123,3.0736,3.0421,3.0165,2.9702,2.9478,2.8904,2.8147,2.7207,2.7307,2.7273,2.7244,2.7244,2.7218,2.7207,2.7211,2.7244,2.7273,2.7155,2.7218,2.7295,2.7354,2.7247,2.7189,2.7277,2.7398,2.7365,2.7332,2.7791,2.7784,2.7762,2.791,2.7565,2.7391,2.7266,2.7181,2.7155,2.7155,2.7155,2.7089,2.7037,2.6948,2.687,2.6791,2.6712,2.6566,2.642,2.634,2.6233,2.6084,2.5962,2.5811,2.566,2.5453,2.5188,2.4977,2.4622,2.4031,2.3619,2.3365,2.3065,2.275,2.261,2.2488,2.2061,2.1587,3.5246,3.5246,3.5261,3.5294,3.5359,3.5359,3.5407,3.5472,3.5489,3.5489,3.5489,3.5489,3.5489,3.5489,3.5489,3.5489,3.5489,3.5489,3.5489,3.5489,3.5489,3.5489,3.5489,3.5489,3.5489,3.5489,3.5489,3.5457,3.5359,3.5344,3.5118,3.4862,3.4458,3.4133,3.3759,3.315,3.2897,3.269,3.2333,3.1826,3.1571,3.1496,3.1496,3.1496,3.1496,3.1496,3.1496,3.1496,3.1496,3.1451,3.1152,3.0853,3.0567,3.0208,2.9983,2.952,2.9021,2.8434,2.8062,2.7675,2.7556,2.7467,2.7427,2.7397,2.7395,2.7613,2.7779,2.7768,2.808,2.824,2.824,2.8272,2.8257,2.8269,2.8225,2.8311,2.8378,2.8629,2.8843,2.8832,2.8804,2.8564,2.8267,2.8021,2.7835,2.7564,2.7564,2.7564,2.7514,2.7437,2.7335,2.7222,2.7155,2.7078,2.6948,2.6817,2.6779,2.6674,2.6418,2.6312,2.6204,2.6069,2.5893,2.5729,2.5536,2.5118,2.4624,2.4279,2.3972,2.3679,2.3395,2.3275,2.3125,2.2792,2.2175,3.5489,3.5489,3.5489,3.5489,3.5489,3.5489,3.5489,3.5489,3.5489,3.5489,3.5489,3.5489,3.5489,3.5489,3.5489,3.5489,3.5489,3.5489,3.5489,3.5489,3.5489,3.5489,3.5489,3.5489,3.5489,3.5489,3.5489,3.5489,3.5489,3.5489,3.5442,3.5474,3.4976,3.4754,3.4577,3.4037,3.3573,3.299,3.2632,3.2108,3.163,3.1496,3.1496,3.1496,3.1496,3.1496,3.1496,3.1496,3.1496,3.1481,3.1466,3.1197,3.0896,3.0763,3.0612,3.0253,2.9881,2.9537,2.9059,2.8626,2.8184,2.8094,2.8094,2.8226,2.8133,2.8355,2.8551,2.8592,2.8901,2.9156,2.9275,2.9243,2.922,2.9244,2.9343,2.9505,2.9645,2.9701,2.975,2.9698,2.9725,2.9843,2.9495,2.9021,2.8585,2.8111,2.7955,2.797,2.789,2.784,2.774,2.764,2.7514,2.7463,2.7361,2.7233,2.7211,2.7093,2.6867,2.6695,2.6657,2.6539,2.6353,2.6192,2.6056,2.5811,2.5425,2.5021,2.458,2.4263,2.4015,2.3868,2.3679,2.3391,2.2774,3.5489,3.5489,3.5489,3.5489,3.5489,3.5489,3.5489,3.5489,3.5489,3.5489,3.5489,3.5489,3.5489,3.5489,3.5489,3.5489,3.5489,3.5489,3.5489,3.5489,3.5489,3.5489,3.5489,3.5489,3.5489,3.5489,3.5489,3.5489,3.5489,3.5489,3.5489,3.5459,3.531,3.5385,3.5205,3.4681,3.3873,3.3245,3.2736,3.2288,3.178,3.154,3.1496,3.1496,3.1496,3.1496,3.1496,3.1496,3.1496,3.1496,3.1496,3.1496,3.1271,3.1256,3.1122,3.0987,3.0687,3.0402,3.0103,2.9594,2.9415,2.9427,2.9352,2.9187,2.9101,2.9355,2.9505,2.9535,2.9843,2.9925,2.9931,2.9875,3.0147,3.0277,3.0425,3.0463,3.0544,3.0559,3.0591,3.0557,3.0701,3.0958,3.0904,3.0479,2.9745,2.9249,2.8673,2.8633,2.8354,2.8235,2.8186,2.8063,2.789,2.7815,2.7765,2.769,2.7615,2.7539,2.7357,2.7229,2.7141,2.7,2.6829,2.6671,2.6539,2.6404,2.6217,2.5715,2.5258,2.4878,2.4593,2.4421,2.4032,2.3602,2.3028,3.5489,3.5489,3.5489,3.5489,3.5489,3.5489,3.5489,3.5489,3.5489,3.5489,3.5489,3.5489,3.5489,3.5489,3.5489,3.5489,3.5489,3.5489,3.5489,3.5489,3.5489,3.5489,3.5489,3.5489,3.5489,3.5504,3.5504,3.5489,3.5489,3.5522,3.5489,3.5489,3.5522,3.5489,3.534,3.5175,3.4532,3.3844,3.326,3.2796,3.2168,3.166,3.1496,3.1496,3.1496,3.1496,3.1496,3.1496,3.1496,3.1496,3.1524,3.1524,3.1524,3.1524,3.1524,3.1524,3.1195,3.1106,3.0896,3.0253,2.9624,2.9621,2.9592,2.9678,2.988,3.0087,3.0353,3.0543,3.0824,3.0982,3.1259,3.1317,3.1448,3.1481,3.1497,3.149,3.1535,3.1564,3.1685,3.1774,3.208,3.2367,3.2216,3.1949,3.1182,3.0427,2.9828,2.9294,2.909,2.8784,2.8743,2.8594,2.8394,2.8235,2.8186,2.8137,2.8048,2.7949,2.7835,2.7725,2.76,2.7448,2.7295,2.7167,2.7011,2.6893,2.6657,2.6297,2.5865,2.5425,2.5147,2.495,2.4466,2.393,2.342,3.5489,3.5489,3.5489,3.5489,3.5489,3.5489,3.5489,3.5489,3.5489,3.5489,3.5489,3.5489,3.5489,3.5489,3.5489,3.5489,3.5489,3.5489,3.5489,3.5489,3.5489,3.5489,3.5489,3.5489,3.5522,3.5554,3.5587,3.5572,3.5668,3.5651,3.5683,3.5651,3.5587,3.5539,3.5489,3.5459,3.516,3.4533,3.4053,3.329,3.2542,3.2079,3.1703,3.1643,3.1597,3.1655,3.1683,3.1697,3.1683,3.1668,3.1683,3.1655,3.1655,3.164,3.1655,3.164,3.164,3.164,3.1369,3.0864,3.0205,3.0426,3.0381,3.0433,3.0543,3.09,3.117,3.1353,3.1805,3.2163,3.233,3.2232,3.228,3.2292,3.2361,3.2395,3.2587,3.2688,3.2861,3.3024,3.3228,3.322,3.3205,3.2887,3.2148,3.1411,3.0822,3.037,3.0188,2.9832,2.9422,2.9226,2.8959,2.8786,2.8621,2.8534,2.847,2.8414,2.8301,2.8171,2.8048,2.79,2.78,2.7675,2.7524,2.7386,2.7167,2.6893,2.6431,2.5947,2.5674,2.5398,2.5176,2.4693,2.4242,3.5489,3.5489,3.5489,3.5489,3.5489,3.5489,3.5489,3.5489,3.5489,3.5489,3.5489,3.5489,3.5489,3.5489,3.5489,3.5489,3.5489,3.5489,3.5489,3.5489,3.5489,3.5489,3.5537,3.5522,3.5604,3.5655,3.5735,3.5782,3.591,3.5893,3.5925,3.5878,3.5782,3.5621,3.5522,3.5489,3.513,3.4608,3.4518,3.3679,3.3006,3.2587,3.2181,3.2042,3.1814,3.1813,3.1855,3.1925,3.1925,3.1925,3.1953,3.1981,3.1981,3.1981,3.1996,3.1996,3.1996,3.1996,3.1923,3.1593,3.1443,3.1423,3.1272,3.1447,3.1756,3.1934,3.1926,3.2029,3.2296,3.248,3.2605,3.2784,3.292,3.3027,3.3081,3.3145,3.3303,3.3461,3.3581,3.3658,3.371,3.3729,3.3866,3.3733,3.3038,3.2385,3.1807,3.1454,3.1198,3.0816,3.0291,3.0022,2.9746,2.9485,2.9297,2.9022,2.8873,2.8826,2.8771,2.8629,2.8525,2.8405,2.8284,2.8186,2.8039,2.7875,2.7715,2.7539,2.7074,2.659,2.6123,2.5825,2.5632,2.5425,2.4998,3.5489,3.5489,3.5489,3.5489,3.5489,3.5489,3.5489,3.5489,3.5489,3.5489,3.5489,3.5489,3.5489,3.5489,3.5489,3.5489,3.5489,3.5489,3.5489,3.5504,3.5522,3.5572,3.5604,3.5653,3.575,3.5863,3.591,3.5941,3.5988,3.6084,3.6052,3.5973,3.5973,3.5765,3.5554,3.5489,3.5325,3.51,3.4788,3.4265,3.3878,3.3156,3.2688,3.2578,3.2228,3.2057,3.2127,3.2226,3.2178,3.2206,3.2234,3.2274,3.229,3.2274,3.2274,3.2274,3.2274,3.2274,3.2247,3.2104,3.2051,3.201,3.1953,3.2066,3.2219,3.2274,3.2413,3.2594,3.2757,3.2877,3.3054,3.3187,3.3319,3.345,3.3529,3.3529,3.3617,3.3797,3.3949,3.4025,3.4075,3.4151,3.4234,3.4209,3.3673,3.3364,3.283,3.2233,3.1895,3.1582,3.1158,3.0927,3.0664,3.0329,3.0035,2.9838,2.9483,2.9303,2.92,2.9052,2.8936,2.8834,2.87,2.8542,2.8462,2.8356,2.8162,2.794,2.765,2.7255,2.6774,2.6365,2.6136,2.5974,2.5755,3.5489,3.5489,3.5489,3.5489,3.5489,3.5489,3.5489,3.5489,3.5489,3.5489,3.5489,3.5489,3.5489,3.5489,3.5489,3.5489,3.5489,3.5539,3.5572,3.5587,3.5636,3.5718,3.5799,3.5831,3.5973,3.61,3.6195,3.6226,3.6398,3.6367,3.6367,3.6289,3.6241,3.6068,3.5861,3.5733,3.5701,3.5535,3.5266,3.4949,3.459,3.4091,3.3635,3.3417,3.306,3.2673,3.2652,3.257,3.2456,3.2499,3.2539,3.2594,3.2594,3.2578,3.2605,3.2617,3.2672,3.2699,3.2715,3.2742,3.2648,3.2523,3.233,3.233,3.2523,3.2633,3.2784,3.2962,3.315,3.3282,3.3424,3.3555,3.3658,3.3771,3.3822,3.3848,3.4,3.4176,3.4226,3.43,3.4349,3.4448,3.4521,3.4456,3.426,3.4072,3.3893,3.3259,3.2683,3.2385,3.2168,3.1975,3.1645,3.1298,3.101,3.0796,3.0389,2.9856,2.9747,2.974,2.9298,2.916,2.9029,2.8959,2.892,2.8818,2.8549,2.8293,2.8057,2.7785,2.7444,2.706,2.6695,2.6498,2.6326,3.5489,3.5489,3.5489,3.5489,3.5489,3.5489,3.5489,3.5489,3.5489,3.5489,3.5489,3.5489,3.5489,3.5489,3.5489,3.5489,3.5539,3.5638,3.5703,3.5767,3.5878,3.5973,3.6037,3.6068,3.6258,3.6414,3.6538,3.6662,3.6938,3.6892,3.6816,3.6754,3.6693,3.6523,3.6305,3.6195,3.6084,3.5881,3.582,3.5533,3.5247,3.5049,3.4756,3.4472,3.4048,3.374,3.359,3.3349,3.308,3.2955,3.2951,3.2951,3.2924,3.2924,3.2989,3.3123,3.324,3.3251,3.3303,3.3319,3.3319,3.3198,3.2926,3.2861,3.2866,3.3,3.3134,3.3293,3.345,3.3581,3.3694,3.3797,3.3899,3.4,3.4101,3.4201,3.439,3.4464,3.4472,3.4497,3.4521,3.457,3.4594,3.457,3.4594,3.4529,3.4382,3.4292,3.3761,3.346,3.3241,3.312,3.2762,3.2306,3.2008,3.172,3.1304,3.0822,3.0721,3.0603,3.0069,2.9783,2.9924,2.9925,2.952,2.9262,2.892,2.8677,2.851,2.8244,2.7984,2.7635,2.7229,2.7063,2.6896,3.5489,3.5489,3.5489,3.5489,3.5489,3.5489,3.5489,3.5489,3.5489,3.5489,3.5489,3.5489,3.5489,3.5489,3.5489,3.5554,3.5621,3.5703,3.5799,3.5926,3.6132,3.6226,3.6352,3.6445,3.6647,3.6831,3.6968,3.7059,3.715,3.7224,3.7284,3.7224,3.7104,3.6983,3.6861,3.6754,3.6445,3.6195,3.6179,3.612,3.5953,3.5798,3.5684,3.5517,3.5115,3.4757,3.4368,3.4205,3.3857,3.3446,3.3456,3.345,3.3477,3.3477,3.3529,3.3642,3.372,3.3729,3.3848,3.3873,3.3848,3.3822,3.3678,3.3523,3.3435,3.3398,3.3461,3.3617,3.3771,3.3924,3.4,3.4101,3.4176,3.4275,3.4349,3.4423,3.457,3.4635,3.4643,3.4643,3.4667,3.4691,3.4715,3.4739,3.478,3.478,3.478,3.4756,3.4666,3.429,3.4094,3.3955,3.3678,3.3139,3.2861,3.2555,3.2176,3.1837,3.1711,3.1577,3.1271,3.1064,3.1091,3.0876,3.0493,2.9874,2.9245,2.9092,2.91,2.8794,2.8525,2.8146,2.78,2.7615,2.7437,3.5489,3.5489,3.5489,3.5489,3.5489,3.5489,3.5489,3.5489,3.5489,3.5489,3.5489,3.5489,3.5522,3.5604,3.5589,3.5686,3.5831,3.6022,3.6132,3.6226,3.6414,3.6631,3.6785,3.6877,3.7059,3.7225,3.7359,3.7449,3.7492,3.7551,3.7581,3.7596,3.7492,3.7462,3.7389,3.727,3.7029,3.6769,3.6646,3.6693,3.6629,3.6547,3.669,3.6614,3.6175,3.5733,3.5322,3.5246,3.4595,3.413,3.4121,3.3848,3.3873,3.3899,3.3949,3.4034,3.4109,3.4134,3.4226,3.4209,3.425,3.425,3.4275,3.4109,3.3958,3.3899,3.3924,3.3975,3.4126,3.4275,3.4325,3.4415,3.4472,3.457,3.457,3.4594,3.4667,3.4739,3.4763,3.4763,3.4811,3.4875,3.4899,3.4899,3.4899,3.4875,3.4875,3.4851,3.4828,3.4681,3.4574,3.4484,3.4248,3.3913,3.3667,3.3421,3.3114,3.2814,3.2653,3.2508,3.2331,3.2097,3.1871,3.1665,3.1458,3.0874,3.0286,2.9892,2.9752,2.9493,2.9218,2.8818,2.8475,2.8146,2.7949,3.5489,3.5489,3.5489,3.5489,3.5489,3.5489,3.5489,3.5489,3.5522,3.5522,3.5522,3.5537,3.5604,3.5703,3.5752,3.591,3.61,3.6289,3.6476,3.6585,3.6816,3.7059,3.718,3.7254,3.7449,3.7626,3.7772,3.7844,3.7931,3.8017,3.8046,3.7963,3.7947,3.7918,3.7831,3.7772,3.7626,3.7492,3.7358,3.7358,3.7344,3.7506,3.7743,3.7687,3.7411,3.7081,3.6782,3.6211,3.5334,3.5068,3.4769,3.4363,3.4226,3.4275,3.4349,3.4423,3.4497,3.457,3.4618,3.4618,3.4618,3.4594,3.457,3.457,3.4521,3.4275,3.4226,3.4226,3.4374,3.4448,3.4497,3.4586,3.4659,3.4691,3.4715,3.4739,3.4787,3.4835,3.4851,3.4851,3.4875,3.4899,3.4899,3.4899,3.4899,3.4899,3.4899,3.4899,3.4899,3.4875,3.4875,3.4851,3.4631,3.4451,3.4411,3.4189,3.4036,3.3807,3.357,3.3376,3.3157,3.2847,3.2534,3.2385,3.2268,3.2019,3.1578,3.1114,3.0692,3.0511,3.0179,2.9609,2.9218,2.8942,2.8499,3.5489,3.5489,3.5489,3.5489,3.5489,3.5489,3.5489,3.5489,3.5621,3.5638,3.5638,3.5671,3.5767,3.5926,3.6006,3.6195,3.6414,3.6631,3.6816,3.6983,3.7224,3.7449,3.7596,3.7714,3.786,3.7988,3.816,3.8319,3.8444,3.8511,3.8556,3.8556,3.8472,3.8331,3.8303,3.8262,3.8148,3.8075,3.8116,3.8001,3.7886,3.7927,3.8071,3.8254,3.8191,3.7997,3.7736,3.7478,3.653,3.5867,3.5696,3.5276,3.4781,3.4772,3.4804,3.4875,3.4899,3.4947,3.4994,3.4994,3.5034,3.5058,3.5081,3.5105,3.4994,3.4643,3.4472,3.4538,3.4562,3.4618,3.4667,3.4756,3.4804,3.4811,3.4835,3.4859,3.4883,3.4883,3.4899,3.4899,3.4899,3.4899,3.4899,3.4899,3.4899,3.4899,3.4899,3.4923,3.4923,3.4923,3.4947,3.4923,3.4899,3.4785,3.4828,3.4771,3.4501,3.4436,3.4255,3.4085,3.3931,3.3742,3.3503,3.3252,3.3067,3.2882,3.2606,3.2111,3.1751,3.1562,3.1234,3.0707,3.0405,3.0132,2.9454,3.5489,3.5489,3.5489,3.5489,3.5489,3.5554,3.5604,3.5636,3.5767,3.5926,3.6022,3.5926,3.599,3.6195,3.632,3.6554,3.6769,3.6952,3.718,3.7403,3.7623,3.7815,3.7976,3.8119,3.8274,3.8444,3.8516,3.8655,3.8805,3.8777,3.875,3.8805,3.875,3.8706,3.8694,3.8628,3.86,3.8588,3.8722,3.865,3.8427,3.8467,3.8523,3.8722,3.8778,3.8673,3.8609,3.8411,3.7825,3.6945,3.6538,3.5747,3.5264,3.5065,3.5105,3.5152,3.5175,3.5222,3.5285,3.5331,3.5331,3.5331,3.5308,3.5245,3.5222,3.4947,3.4923,3.4947,3.4875,3.4923,3.4875,3.4923,3.4875,3.4875,3.4875,3.4899,3.4899,3.4899,3.4899,3.4899,3.4899,3.4899,3.4899,3.4899,3.4899,3.4899,3.4899,3.497,3.4987,3.5011,3.5018,3.5041,3.5018,3.4947,3.4875,3.4875,3.4802,3.4794,3.4811,3.4648,3.4459,3.4543,3.4486,3.4116,3.3871,3.3816,3.3498,3.3062,3.2796,3.259,3.2227,3.1846,3.1551,3.1248,3.0692,3.5504,3.5537,3.5522,3.5554,3.5587,3.5686,3.572,3.5784,3.5973,3.6241,3.6429,3.6258,3.6367,3.6523,3.6647,3.6938,3.7194,3.7417,3.761,3.7831,3.8046,3.8217,3.8359,3.8528,3.8639,3.8777,3.886,3.8887,3.8969,3.8996,3.9023,3.8942,3.8914,3.8942,3.8914,3.8942,3.8985,3.8996,3.9104,3.9185,3.9131,3.905,3.9023,3.9104,3.9239,3.9405,3.9294,3.9131,3.879,3.8011,3.7123,3.6175,3.5572,3.5321,3.5337,3.536,3.5344,3.5344,3.536,3.5383,3.5383,3.536,3.5337,3.5337,3.5337,3.5337,3.5314,3.5268,3.5182,3.5128,3.5065,3.5041,3.4994,3.497,3.497,3.4947,3.4947,3.497,3.497,3.497,3.497,3.497,3.497,3.497,3.4947,3.4947,3.497,3.5058,3.5105,3.5152,3.5158,3.5182,3.5165,3.5088,3.4994,3.4994,3.5018,3.5018,3.4994,3.497,3.4947,3.493,3.4906,3.4818,3.4638,3.4523,3.4393,3.407,3.3827,3.3552,3.343,3.3072,3.249,3.2192,3.189,3.5572,3.5671,3.5671,3.5735,3.5893,3.5941,3.5941,3.6005,3.6242,3.6445,3.66,3.6892,3.7043,3.7074,3.7178,3.7403,3.7626,3.7844,3.8075,3.8278,3.8415,3.8583,3.8694,3.8805,3.886,3.8996,3.9202,3.9352,3.9282,3.9398,3.9504,3.9468,3.9494,3.9494,3.952,3.9494,3.9441,3.9425,3.9451,3.9547,3.9547,3.9494,3.9468,3.952,3.9599,3.9625,3.961,3.9664,3.9295,3.853,3.7542,3.6504,3.588,3.5554,3.5503,3.5503,3.5487,3.5503,3.5503,3.5503,3.5503,3.5503,3.5503,3.5503,3.5503,3.5526,3.5503,3.5458,3.5389,3.5291,3.5245,3.5222,3.5175,3.5175,3.5175,3.5128,3.5088,3.5152,3.5175,3.5175,3.5175,3.5175,3.5175,3.5175,3.5175,3.5175,3.5158,3.5228,3.5251,3.5291,3.5321,3.5367,3.5396,3.5297,3.5228,3.5228,3.5228,3.5222,3.5205,3.5182,3.5182,3.5205,3.5158,3.5065,3.5105,3.5045,3.4938,3.4721,3.4681,3.4445,3.457,3.4317,3.3672,3.3175,3.2942]}]]